<?xml version="1.0" encoding="UTF-8" standalone="no" ?>
<gpx xmlns="http://www.topografix.com/GPX/1/1" xmlns:xsi="http://www.w3.org/2001/XMLSchema-instance" xsi:schemaLocation="http://www.topografix.com/GPX/1/1 http://www.topografix.com/GPX/1/1/gpx.xsd" version="1.1" creator="VisuGPX - https://www.visugpx.com">
  <metadata>
    <name>Turquant 1</name>
    <desc><![CDATA[Randonnée de Saumur-Rando, calendrier départemental, matin]]></desc>
  </metadata>
  <trk>
    <name><![CDATA[2011-08-28 09:27]]></name>
    <desc><![CDATA[]]></desc>
    <trkseg>
      <trkpt lat="47.2237" lon="0.02898">
        <ele>64</ele>
        <time>2011-08-28T07:27:26Z</time>
      </trkpt>
      <trkpt lat="47.22366" lon="0.02895">
        <ele>71</ele>
        <time>2011-08-28T07:27:41Z</time>
      </trkpt>
      <trkpt lat="47.22361" lon="0.02897">
        <ele>71</ele>
        <time>2011-08-28T07:28:16Z</time>
      </trkpt>
      <trkpt lat="47.22356" lon="0.029">
        <ele>71</ele>
        <time>2011-08-28T07:28:38Z</time>
      </trkpt>
      <trkpt lat="47.22352" lon="0.02899">
        <ele>71</ele>
        <time>2011-08-28T07:28:45Z</time>
      </trkpt>
      <trkpt lat="47.22356" lon="0.02897">
        <ele>72</ele>
        <time>2011-08-28T07:30:12Z</time>
      </trkpt>
      <trkpt lat="47.2236" lon="0.029">
        <ele>73</ele>
        <time>2011-08-28T07:30:18Z</time>
      </trkpt>
      <trkpt lat="47.22365" lon="0.02903">
        <ele>74</ele>
        <time>2011-08-28T07:30:23Z</time>
      </trkpt>
      <trkpt lat="47.2237" lon="0.02906">
        <ele>74</ele>
        <time>2011-08-28T07:30:28Z</time>
      </trkpt>
      <trkpt lat="47.22374" lon="0.02909">
        <ele>75</ele>
        <time>2011-08-28T07:30:33Z</time>
      </trkpt>
      <trkpt lat="47.22379" lon="0.02912">
        <ele>75</ele>
        <time>2011-08-28T07:30:38Z</time>
      </trkpt>
      <trkpt lat="47.22384" lon="0.02912">
        <ele>76</ele>
        <time>2011-08-28T07:30:43Z</time>
      </trkpt>
      <trkpt lat="47.22389" lon="0.02911">
        <ele>76</ele>
        <time>2011-08-28T07:30:48Z</time>
      </trkpt>
      <trkpt lat="47.22394" lon="0.02911">
        <ele>77</ele>
        <time>2011-08-28T07:30:53Z</time>
      </trkpt>
      <trkpt lat="47.22398" lon="0.02913">
        <ele>77</ele>
        <time>2011-08-28T07:30:58Z</time>
      </trkpt>
      <trkpt lat="47.22404" lon="0.02915">
        <ele>77</ele>
        <time>2011-08-28T07:31:03Z</time>
      </trkpt>
      <trkpt lat="47.22408" lon="0.02917">
        <ele>78</ele>
        <time>2011-08-28T07:31:08Z</time>
      </trkpt>
      <trkpt lat="47.22414" lon="0.0292">
        <ele>78</ele>
        <time>2011-08-28T07:31:13Z</time>
      </trkpt>
      <trkpt lat="47.22419" lon="0.02922">
        <ele>79</ele>
        <time>2011-08-28T07:31:18Z</time>
      </trkpt>
      <trkpt lat="47.22424" lon="0.02923">
        <ele>79</ele>
        <time>2011-08-28T07:31:23Z</time>
      </trkpt>
      <trkpt lat="47.2243" lon="0.02925">
        <ele>79</ele>
        <time>2011-08-28T07:31:28Z</time>
      </trkpt>
      <trkpt lat="47.22435" lon="0.02927">
        <ele>79</ele>
        <time>2011-08-28T07:31:33Z</time>
      </trkpt>
      <trkpt lat="47.2244" lon="0.02929">
        <ele>80</ele>
        <time>2011-08-28T07:31:38Z</time>
      </trkpt>
      <trkpt lat="47.22444" lon="0.02931">
        <ele>80</ele>
        <time>2011-08-28T07:31:42Z</time>
      </trkpt>
      <trkpt lat="47.22449" lon="0.02933">
        <ele>80</ele>
        <time>2011-08-28T07:31:46Z</time>
      </trkpt>
      <trkpt lat="47.22454" lon="0.02935">
        <ele>80</ele>
        <time>2011-08-28T07:31:51Z</time>
      </trkpt>
      <trkpt lat="47.22459" lon="0.02937">
        <ele>80</ele>
        <time>2011-08-28T07:31:56Z</time>
      </trkpt>
      <trkpt lat="47.22463" lon="0.02939">
        <ele>81</ele>
        <time>2011-08-28T07:32:01Z</time>
      </trkpt>
      <trkpt lat="47.22468" lon="0.02941">
        <ele>81</ele>
        <time>2011-08-28T07:32:06Z</time>
      </trkpt>
      <trkpt lat="47.22474" lon="0.02943">
        <ele>81</ele>
        <time>2011-08-28T07:32:11Z</time>
      </trkpt>
      <trkpt lat="47.22479" lon="0.02945">
        <ele>81</ele>
        <time>2011-08-28T07:32:15Z</time>
      </trkpt>
      <trkpt lat="47.22483" lon="0.02947">
        <ele>82</ele>
        <time>2011-08-28T07:32:19Z</time>
      </trkpt>
      <trkpt lat="47.22488" lon="0.02948">
        <ele>82</ele>
        <time>2011-08-28T07:32:23Z</time>
      </trkpt>
      <trkpt lat="47.22493" lon="0.02946">
        <ele>82</ele>
        <time>2011-08-28T07:32:28Z</time>
      </trkpt>
      <trkpt lat="47.22497" lon="0.02941">
        <ele>82</ele>
        <time>2011-08-28T07:32:33Z</time>
      </trkpt>
      <trkpt lat="47.22501" lon="0.02935">
        <ele>82</ele>
        <time>2011-08-28T07:32:38Z</time>
      </trkpt>
      <trkpt lat="47.22505" lon="0.0293">
        <ele>82</ele>
        <time>2011-08-28T07:32:43Z</time>
      </trkpt>
      <trkpt lat="47.22509" lon="0.02925">
        <ele>81</ele>
        <time>2011-08-28T07:32:48Z</time>
      </trkpt>
      <trkpt lat="47.22512" lon="0.02921">
        <ele>81</ele>
        <time>2011-08-28T07:32:52Z</time>
      </trkpt>
      <trkpt lat="47.22515" lon="0.02915">
        <ele>81</ele>
        <time>2011-08-28T07:32:56Z</time>
      </trkpt>
      <trkpt lat="47.22518" lon="0.02909">
        <ele>81</ele>
        <time>2011-08-28T07:33:00Z</time>
      </trkpt>
      <trkpt lat="47.22521" lon="0.02904">
        <ele>81</ele>
        <time>2011-08-28T07:33:04Z</time>
      </trkpt>
      <trkpt lat="47.22527" lon="0.02903">
        <ele>81</ele>
        <time>2011-08-28T07:33:08Z</time>
      </trkpt>
      <trkpt lat="47.22531" lon="0.02907">
        <ele>81</ele>
        <time>2011-08-28T07:33:12Z</time>
      </trkpt>
      <trkpt lat="47.22533" lon="0.02914">
        <ele>81</ele>
        <time>2011-08-28T07:33:17Z</time>
      </trkpt>
      <trkpt lat="47.22532" lon="0.02922">
        <ele>81</ele>
        <time>2011-08-28T07:33:27Z</time>
      </trkpt>
      <trkpt lat="47.22533" lon="0.02928">
        <ele>81</ele>
        <time>2011-08-28T07:33:31Z</time>
      </trkpt>
      <trkpt lat="47.22536" lon="0.02933">
        <ele>81</ele>
        <time>2011-08-28T07:33:35Z</time>
      </trkpt>
      <trkpt lat="47.2254" lon="0.02937">
        <ele>81</ele>
        <time>2011-08-28T07:33:39Z</time>
      </trkpt>
      <trkpt lat="47.22544" lon="0.0294">
        <ele>81</ele>
        <time>2011-08-28T07:33:43Z</time>
      </trkpt>
      <trkpt lat="47.22548" lon="0.02944">
        <ele>81</ele>
        <time>2011-08-28T07:33:47Z</time>
      </trkpt>
      <trkpt lat="47.22552" lon="0.02948">
        <ele>81</ele>
        <time>2011-08-28T07:33:52Z</time>
      </trkpt>
      <trkpt lat="47.22552" lon="0.02956">
        <ele>81</ele>
        <time>2011-08-28T07:33:58Z</time>
      </trkpt>
      <trkpt lat="47.2255" lon="0.02963">
        <ele>81</ele>
        <time>2011-08-28T07:34:03Z</time>
      </trkpt>
      <trkpt lat="47.22548" lon="0.0297">
        <ele>81</ele>
        <time>2011-08-28T07:34:08Z</time>
      </trkpt>
      <trkpt lat="47.22547" lon="0.02977">
        <ele>81</ele>
        <time>2011-08-28T07:34:13Z</time>
      </trkpt>
      <trkpt lat="47.22549" lon="0.02984">
        <ele>81</ele>
        <time>2011-08-28T07:34:18Z</time>
      </trkpt>
      <trkpt lat="47.22554" lon="0.02988">
        <ele>81</ele>
        <time>2011-08-28T07:34:22Z</time>
      </trkpt>
      <trkpt lat="47.22559" lon="0.02991">
        <ele>81</ele>
        <time>2011-08-28T07:34:26Z</time>
      </trkpt>
      <trkpt lat="47.22564" lon="0.02994">
        <ele>80</ele>
        <time>2011-08-28T07:34:30Z</time>
      </trkpt>
      <trkpt lat="47.22568" lon="0.02996">
        <ele>80</ele>
        <time>2011-08-28T07:34:34Z</time>
      </trkpt>
      <trkpt lat="47.22573" lon="0.02998">
        <ele>80</ele>
        <time>2011-08-28T07:34:38Z</time>
      </trkpt>
      <trkpt lat="47.22577" lon="0.03">
        <ele>80</ele>
        <time>2011-08-28T07:34:42Z</time>
      </trkpt>
      <trkpt lat="47.22582" lon="0.03002">
        <ele>80</ele>
        <time>2011-08-28T07:34:46Z</time>
      </trkpt>
      <trkpt lat="47.22586" lon="0.03003">
        <ele>80</ele>
        <time>2011-08-28T07:34:50Z</time>
      </trkpt>
      <trkpt lat="47.22591" lon="0.03004">
        <ele>80</ele>
        <time>2011-08-28T07:34:54Z</time>
      </trkpt>
      <trkpt lat="47.22596" lon="0.03005">
        <ele>80</ele>
        <time>2011-08-28T07:34:58Z</time>
      </trkpt>
      <trkpt lat="47.22601" lon="0.03007">
        <ele>80</ele>
        <time>2011-08-28T07:35:02Z</time>
      </trkpt>
      <trkpt lat="47.22606" lon="0.03008">
        <ele>80</ele>
        <time>2011-08-28T07:35:06Z</time>
      </trkpt>
      <trkpt lat="47.22611" lon="0.0301">
        <ele>80</ele>
        <time>2011-08-28T07:35:10Z</time>
      </trkpt>
      <trkpt lat="47.22615" lon="0.03011">
        <ele>80</ele>
        <time>2011-08-28T07:35:14Z</time>
      </trkpt>
      <trkpt lat="47.2262" lon="0.03012">
        <ele>80</ele>
        <time>2011-08-28T07:35:18Z</time>
      </trkpt>
      <trkpt lat="47.22624" lon="0.03014">
        <ele>80</ele>
        <time>2011-08-28T07:35:22Z</time>
      </trkpt>
      <trkpt lat="47.22629" lon="0.03015">
        <ele>80</ele>
        <time>2011-08-28T07:35:26Z</time>
      </trkpt>
      <trkpt lat="47.22634" lon="0.03016">
        <ele>80</ele>
        <time>2011-08-28T07:35:31Z</time>
      </trkpt>
      <trkpt lat="47.22639" lon="0.03017">
        <ele>80</ele>
        <time>2011-08-28T07:35:36Z</time>
      </trkpt>
      <trkpt lat="47.22644" lon="0.03018">
        <ele>80</ele>
        <time>2011-08-28T07:35:40Z</time>
      </trkpt>
      <trkpt lat="47.22649" lon="0.0302">
        <ele>80</ele>
        <time>2011-08-28T07:35:44Z</time>
      </trkpt>
      <trkpt lat="47.22654" lon="0.03021">
        <ele>80</ele>
        <time>2011-08-28T07:35:48Z</time>
      </trkpt>
      <trkpt lat="47.22659" lon="0.03022">
        <ele>80</ele>
        <time>2011-08-28T07:35:52Z</time>
      </trkpt>
      <trkpt lat="47.22664" lon="0.03023">
        <ele>80</ele>
        <time>2011-08-28T07:35:56Z</time>
      </trkpt>
      <trkpt lat="47.22669" lon="0.03024">
        <ele>80</ele>
        <time>2011-08-28T07:36:00Z</time>
      </trkpt>
      <trkpt lat="47.22673" lon="0.03025">
        <ele>80</ele>
        <time>2011-08-28T07:36:04Z</time>
      </trkpt>
      <trkpt lat="47.22678" lon="0.03026">
        <ele>80</ele>
        <time>2011-08-28T07:36:08Z</time>
      </trkpt>
      <trkpt lat="47.22682" lon="0.03027">
        <ele>80</ele>
        <time>2011-08-28T07:36:12Z</time>
      </trkpt>
      <trkpt lat="47.22687" lon="0.03029">
        <ele>80</ele>
        <time>2011-08-28T07:36:16Z</time>
      </trkpt>
      <trkpt lat="47.22692" lon="0.0303">
        <ele>80</ele>
        <time>2011-08-28T07:36:20Z</time>
      </trkpt>
      <trkpt lat="47.22696" lon="0.03031">
        <ele>80</ele>
        <time>2011-08-28T07:36:24Z</time>
      </trkpt>
      <trkpt lat="47.22701" lon="0.03032">
        <ele>80</ele>
        <time>2011-08-28T07:36:28Z</time>
      </trkpt>
      <trkpt lat="47.22706" lon="0.03034">
        <ele>80</ele>
        <time>2011-08-28T07:36:32Z</time>
      </trkpt>
      <trkpt lat="47.22711" lon="0.03035">
        <ele>80</ele>
        <time>2011-08-28T07:36:36Z</time>
      </trkpt>
      <trkpt lat="47.22716" lon="0.03036">
        <ele>80</ele>
        <time>2011-08-28T07:36:40Z</time>
      </trkpt>
      <trkpt lat="47.2272" lon="0.03037">
        <ele>80</ele>
        <time>2011-08-28T07:36:44Z</time>
      </trkpt>
      <trkpt lat="47.22725" lon="0.03038">
        <ele>80</ele>
        <time>2011-08-28T07:36:48Z</time>
      </trkpt>
      <trkpt lat="47.2273" lon="0.03039">
        <ele>80</ele>
        <time>2011-08-28T07:36:52Z</time>
      </trkpt>
      <trkpt lat="47.22735" lon="0.0304">
        <ele>79</ele>
        <time>2011-08-28T07:36:56Z</time>
      </trkpt>
      <trkpt lat="47.2274" lon="0.03042">
        <ele>79</ele>
        <time>2011-08-28T07:37:00Z</time>
      </trkpt>
      <trkpt lat="47.22744" lon="0.03043">
        <ele>79</ele>
        <time>2011-08-28T07:37:04Z</time>
      </trkpt>
      <trkpt lat="47.22749" lon="0.03044">
        <ele>79</ele>
        <time>2011-08-28T07:37:08Z</time>
      </trkpt>
      <trkpt lat="47.22754" lon="0.03045">
        <ele>79</ele>
        <time>2011-08-28T07:37:12Z</time>
      </trkpt>
      <trkpt lat="47.22759" lon="0.03046">
        <ele>79</ele>
        <time>2011-08-28T07:37:16Z</time>
      </trkpt>
      <trkpt lat="47.22764" lon="0.03048">
        <ele>79</ele>
        <time>2011-08-28T07:37:20Z</time>
      </trkpt>
      <trkpt lat="47.22769" lon="0.0305">
        <ele>79</ele>
        <time>2011-08-28T07:37:24Z</time>
      </trkpt>
      <trkpt lat="47.22774" lon="0.03051">
        <ele>79</ele>
        <time>2011-08-28T07:37:28Z</time>
      </trkpt>
      <trkpt lat="47.22779" lon="0.03052">
        <ele>79</ele>
        <time>2011-08-28T07:37:32Z</time>
      </trkpt>
      <trkpt lat="47.22784" lon="0.03052">
        <ele>79</ele>
        <time>2011-08-28T07:37:36Z</time>
      </trkpt>
      <trkpt lat="47.22788" lon="0.03054">
        <ele>79</ele>
        <time>2011-08-28T07:37:40Z</time>
      </trkpt>
      <trkpt lat="47.22794" lon="0.03055">
        <ele>79</ele>
        <time>2011-08-28T07:37:44Z</time>
      </trkpt>
      <trkpt lat="47.22799" lon="0.03056">
        <ele>79</ele>
        <time>2011-08-28T07:37:48Z</time>
      </trkpt>
      <trkpt lat="47.22804" lon="0.03058">
        <ele>79</ele>
        <time>2011-08-28T07:37:52Z</time>
      </trkpt>
      <trkpt lat="47.22809" lon="0.03059">
        <ele>79</ele>
        <time>2011-08-28T07:37:56Z</time>
      </trkpt>
      <trkpt lat="47.22813" lon="0.0306">
        <ele>79</ele>
        <time>2011-08-28T07:38:00Z</time>
      </trkpt>
      <trkpt lat="47.22819" lon="0.03063">
        <ele>79</ele>
        <time>2011-08-28T07:38:05Z</time>
      </trkpt>
      <trkpt lat="47.22824" lon="0.03064">
        <ele>79</ele>
        <time>2011-08-28T07:38:10Z</time>
      </trkpt>
      <trkpt lat="47.22828" lon="0.03067">
        <ele>79</ele>
        <time>2011-08-28T07:38:15Z</time>
      </trkpt>
      <trkpt lat="47.22833" lon="0.03069">
        <ele>79</ele>
        <time>2011-08-28T07:38:20Z</time>
      </trkpt>
      <trkpt lat="47.22837" lon="0.03072">
        <ele>79</ele>
        <time>2011-08-28T07:38:26Z</time>
      </trkpt>
      <trkpt lat="47.22842" lon="0.03074">
        <ele>79</ele>
        <time>2011-08-28T07:38:31Z</time>
      </trkpt>
      <trkpt lat="47.22847" lon="0.03077">
        <ele>79</ele>
        <time>2011-08-28T07:38:36Z</time>
      </trkpt>
      <trkpt lat="47.22852" lon="0.03079">
        <ele>79</ele>
        <time>2011-08-28T07:38:41Z</time>
      </trkpt>
      <trkpt lat="47.22856" lon="0.03081">
        <ele>79</ele>
        <time>2011-08-28T07:38:46Z</time>
      </trkpt>
      <trkpt lat="47.22861" lon="0.03084">
        <ele>79</ele>
        <time>2011-08-28T07:38:51Z</time>
      </trkpt>
      <trkpt lat="47.22865" lon="0.03086">
        <ele>79</ele>
        <time>2011-08-28T07:39:04Z</time>
      </trkpt>
      <trkpt lat="47.22871" lon="0.0309">
        <ele>79</ele>
        <time>2011-08-28T07:39:09Z</time>
      </trkpt>
      <trkpt lat="47.22875" lon="0.03093">
        <ele>79</ele>
        <time>2011-08-28T07:39:13Z</time>
      </trkpt>
      <trkpt lat="47.22879" lon="0.03096">
        <ele>79</ele>
        <time>2011-08-28T07:39:17Z</time>
      </trkpt>
      <trkpt lat="47.22884" lon="0.031">
        <ele>79</ele>
        <time>2011-08-28T07:39:20Z</time>
      </trkpt>
      <trkpt lat="47.22888" lon="0.03103">
        <ele>79</ele>
        <time>2011-08-28T07:39:23Z</time>
      </trkpt>
      <trkpt lat="47.22892" lon="0.03106">
        <ele>79</ele>
        <time>2011-08-28T07:39:26Z</time>
      </trkpt>
      <trkpt lat="47.22896" lon="0.0311">
        <ele>80</ele>
        <time>2011-08-28T07:39:31Z</time>
      </trkpt>
      <trkpt lat="47.229" lon="0.03112">
        <ele>80</ele>
        <time>2011-08-28T07:39:37Z</time>
      </trkpt>
      <trkpt lat="47.22905" lon="0.03116">
        <ele>80</ele>
        <time>2011-08-28T07:39:44Z</time>
      </trkpt>
      <trkpt lat="47.2291" lon="0.03119">
        <ele>80</ele>
        <time>2011-08-28T07:39:47Z</time>
      </trkpt>
      <trkpt lat="47.22917" lon="0.03122">
        <ele>80</ele>
        <time>2011-08-28T07:39:50Z</time>
      </trkpt>
      <trkpt lat="47.22922" lon="0.03123">
        <ele>80</ele>
        <time>2011-08-28T07:39:53Z</time>
      </trkpt>
      <trkpt lat="47.22927" lon="0.03121">
        <ele>80</ele>
        <time>2011-08-28T07:39:57Z</time>
      </trkpt>
      <trkpt lat="47.22932" lon="0.03119">
        <ele>80</ele>
        <time>2011-08-28T07:40:01Z</time>
      </trkpt>
      <trkpt lat="47.22935" lon="0.03114">
        <ele>80</ele>
        <time>2011-08-28T07:40:06Z</time>
      </trkpt>
      <trkpt lat="47.22938" lon="0.03108">
        <ele>80</ele>
        <time>2011-08-28T07:40:11Z</time>
      </trkpt>
      <trkpt lat="47.22941" lon="0.03102">
        <ele>80</ele>
        <time>2011-08-28T07:40:16Z</time>
      </trkpt>
      <trkpt lat="47.22942" lon="0.03094">
        <ele>81</ele>
        <time>2011-08-28T07:40:22Z</time>
      </trkpt>
      <trkpt lat="47.22943" lon="0.03087">
        <ele>81</ele>
        <time>2011-08-28T07:40:28Z</time>
      </trkpt>
      <trkpt lat="47.22944" lon="0.0308">
        <ele>81</ele>
        <time>2011-08-28T07:40:34Z</time>
      </trkpt>
      <trkpt lat="47.22946" lon="0.03074">
        <ele>81</ele>
        <time>2011-08-28T07:40:39Z</time>
      </trkpt>
      <trkpt lat="47.22947" lon="0.03067">
        <ele>81</ele>
        <time>2011-08-28T07:40:44Z</time>
      </trkpt>
      <trkpt lat="47.22948" lon="0.03059">
        <ele>81</ele>
        <time>2011-08-28T07:40:49Z</time>
      </trkpt>
      <trkpt lat="47.2295" lon="0.03052">
        <ele>80</ele>
        <time>2011-08-28T07:40:55Z</time>
      </trkpt>
      <trkpt lat="47.22952" lon="0.03047">
        <ele>80</ele>
        <time>2011-08-28T07:41:09Z</time>
      </trkpt>
      <trkpt lat="47.22954" lon="0.0304">
        <ele>80</ele>
        <time>2011-08-28T07:41:38Z</time>
      </trkpt>
      <trkpt lat="47.22954" lon="0.03031">
        <ele>80</ele>
        <time>2011-08-28T07:43:04Z</time>
      </trkpt>
      <trkpt lat="47.22955" lon="0.03023">
        <ele>80</ele>
        <time>2011-08-28T07:43:07Z</time>
      </trkpt>
      <trkpt lat="47.22956" lon="0.03014">
        <ele>80</ele>
        <time>2011-08-28T07:43:10Z</time>
      </trkpt>
      <trkpt lat="47.22958" lon="0.03005">
        <ele>80</ele>
        <time>2011-08-28T07:43:13Z</time>
      </trkpt>
      <trkpt lat="47.22959" lon="0.02998">
        <ele>81</ele>
        <time>2011-08-28T07:43:16Z</time>
      </trkpt>
      <trkpt lat="47.22961" lon="0.02991">
        <ele>81</ele>
        <time>2011-08-28T07:43:19Z</time>
      </trkpt>
      <trkpt lat="47.22963" lon="0.02983">
        <ele>81</ele>
        <time>2011-08-28T07:43:23Z</time>
      </trkpt>
      <trkpt lat="47.22965" lon="0.02976">
        <ele>81</ele>
        <time>2011-08-28T07:43:27Z</time>
      </trkpt>
      <trkpt lat="47.22967" lon="0.02969">
        <ele>81</ele>
        <time>2011-08-28T07:43:31Z</time>
      </trkpt>
      <trkpt lat="47.22968" lon="0.02962">
        <ele>81</ele>
        <time>2011-08-28T07:43:35Z</time>
      </trkpt>
      <trkpt lat="47.2297" lon="0.02954">
        <ele>81</ele>
        <time>2011-08-28T07:43:39Z</time>
      </trkpt>
      <trkpt lat="47.22972" lon="0.02948">
        <ele>81</ele>
        <time>2011-08-28T07:43:43Z</time>
      </trkpt>
      <trkpt lat="47.22976" lon="0.0294">
        <ele>81</ele>
        <time>2011-08-28T07:43:47Z</time>
      </trkpt>
      <trkpt lat="47.22978" lon="0.02935">
        <ele>81</ele>
        <time>2011-08-28T07:43:50Z</time>
      </trkpt>
      <trkpt lat="47.22982" lon="0.02928">
        <ele>81</ele>
        <time>2011-08-28T07:43:54Z</time>
      </trkpt>
      <trkpt lat="47.22984" lon="0.02922">
        <ele>81</ele>
        <time>2011-08-28T07:43:57Z</time>
      </trkpt>
      <trkpt lat="47.22986" lon="0.02916">
        <ele>81</ele>
        <time>2011-08-28T07:44:00Z</time>
      </trkpt>
      <trkpt lat="47.22987" lon="0.02908">
        <ele>82</ele>
        <time>2011-08-28T07:44:04Z</time>
      </trkpt>
      <trkpt lat="47.22988" lon="0.02899">
        <ele>82</ele>
        <time>2011-08-28T07:44:08Z</time>
      </trkpt>
      <trkpt lat="47.22988" lon="0.02891">
        <ele>82</ele>
        <time>2011-08-28T07:44:12Z</time>
      </trkpt>
      <trkpt lat="47.22989" lon="0.02882">
        <ele>82</ele>
        <time>2011-08-28T07:44:16Z</time>
      </trkpt>
      <trkpt lat="47.2299" lon="0.02875">
        <ele>82</ele>
        <time>2011-08-28T07:44:20Z</time>
      </trkpt>
      <trkpt lat="47.22991" lon="0.02868">
        <ele>82</ele>
        <time>2011-08-28T07:44:24Z</time>
      </trkpt>
      <trkpt lat="47.22993" lon="0.0286">
        <ele>82</ele>
        <time>2011-08-28T07:44:28Z</time>
      </trkpt>
      <trkpt lat="47.22993" lon="0.02851">
        <ele>82</ele>
        <time>2011-08-28T07:44:32Z</time>
      </trkpt>
      <trkpt lat="47.22993" lon="0.02844">
        <ele>82</ele>
        <time>2011-08-28T07:44:35Z</time>
      </trkpt>
      <trkpt lat="47.22991" lon="0.02837">
        <ele>82</ele>
        <time>2011-08-28T07:44:38Z</time>
      </trkpt>
      <trkpt lat="47.22989" lon="0.0283">
        <ele>82</ele>
        <time>2011-08-28T07:44:41Z</time>
      </trkpt>
      <trkpt lat="47.22986" lon="0.02823">
        <ele>82</ele>
        <time>2011-08-28T07:44:44Z</time>
      </trkpt>
      <trkpt lat="47.22983" lon="0.02817">
        <ele>82</ele>
        <time>2011-08-28T07:44:47Z</time>
      </trkpt>
      <trkpt lat="47.2298" lon="0.0281">
        <ele>82</ele>
        <time>2011-08-28T07:44:50Z</time>
      </trkpt>
      <trkpt lat="47.22979" lon="0.02804">
        <ele>82</ele>
        <time>2011-08-28T07:44:53Z</time>
      </trkpt>
      <trkpt lat="47.2298" lon="0.02796">
        <ele>82</ele>
        <time>2011-08-28T07:44:57Z</time>
      </trkpt>
      <trkpt lat="47.22982" lon="0.02789">
        <ele>82</ele>
        <time>2011-08-28T07:45:01Z</time>
      </trkpt>
      <trkpt lat="47.22984" lon="0.02783">
        <ele>82</ele>
        <time>2011-08-28T07:45:05Z</time>
      </trkpt>
      <trkpt lat="47.22987" lon="0.02776">
        <ele>82</ele>
        <time>2011-08-28T07:45:09Z</time>
      </trkpt>
      <trkpt lat="47.22988" lon="0.0277">
        <ele>82</ele>
        <time>2011-08-28T07:45:13Z</time>
      </trkpt>
      <trkpt lat="47.22991" lon="0.02764">
        <ele>82</ele>
        <time>2011-08-28T07:45:17Z</time>
      </trkpt>
      <trkpt lat="47.22994" lon="0.02758">
        <ele>82</ele>
        <time>2011-08-28T07:45:21Z</time>
      </trkpt>
      <trkpt lat="47.22999" lon="0.02754">
        <ele>82</ele>
        <time>2011-08-28T07:45:25Z</time>
      </trkpt>
      <trkpt lat="47.23003" lon="0.02748">
        <ele>82</ele>
        <time>2011-08-28T07:45:29Z</time>
      </trkpt>
      <trkpt lat="47.23005" lon="0.02742">
        <ele>82</ele>
        <time>2011-08-28T07:45:32Z</time>
      </trkpt>
      <trkpt lat="47.23008" lon="0.02734">
        <ele>82</ele>
        <time>2011-08-28T07:45:36Z</time>
      </trkpt>
      <trkpt lat="47.2301" lon="0.02728">
        <ele>82</ele>
        <time>2011-08-28T07:45:39Z</time>
      </trkpt>
      <trkpt lat="47.23013" lon="0.0272">
        <ele>82</ele>
        <time>2011-08-28T07:45:43Z</time>
      </trkpt>
      <trkpt lat="47.23015" lon="0.02713">
        <ele>82</ele>
        <time>2011-08-28T07:45:47Z</time>
      </trkpt>
      <trkpt lat="47.23016" lon="0.02706">
        <ele>82</ele>
        <time>2011-08-28T07:45:50Z</time>
      </trkpt>
      <trkpt lat="47.23017" lon="0.02699">
        <ele>82</ele>
        <time>2011-08-28T07:45:53Z</time>
      </trkpt>
      <trkpt lat="47.23018" lon="0.02692">
        <ele>82</ele>
        <time>2011-08-28T07:45:56Z</time>
      </trkpt>
      <trkpt lat="47.2302" lon="0.02686">
        <ele>82</ele>
        <time>2011-08-28T07:45:59Z</time>
      </trkpt>
      <trkpt lat="47.2302" lon="0.02679">
        <ele>82</ele>
        <time>2011-08-28T07:46:02Z</time>
      </trkpt>
      <trkpt lat="47.23022" lon="0.0267">
        <ele>82</ele>
        <time>2011-08-28T07:46:05Z</time>
      </trkpt>
      <trkpt lat="47.23023" lon="0.02662">
        <ele>82</ele>
        <time>2011-08-28T07:46:08Z</time>
      </trkpt>
      <trkpt lat="47.23024" lon="0.02655">
        <ele>82</ele>
        <time>2011-08-28T07:46:11Z</time>
      </trkpt>
      <trkpt lat="47.23024" lon="0.02648">
        <ele>82</ele>
        <time>2011-08-28T07:46:14Z</time>
      </trkpt>
      <trkpt lat="47.23026" lon="0.0264">
        <ele>82</ele>
        <time>2011-08-28T07:46:18Z</time>
      </trkpt>
      <trkpt lat="47.23028" lon="0.02632">
        <ele>82</ele>
        <time>2011-08-28T07:46:22Z</time>
      </trkpt>
      <trkpt lat="47.2303" lon="0.02624">
        <ele>82</ele>
        <time>2011-08-28T07:46:26Z</time>
      </trkpt>
      <trkpt lat="47.23032" lon="0.02616">
        <ele>82</ele>
        <time>2011-08-28T07:46:30Z</time>
      </trkpt>
      <trkpt lat="47.23034" lon="0.02609">
        <ele>82</ele>
        <time>2011-08-28T07:46:34Z</time>
      </trkpt>
      <trkpt lat="47.23036" lon="0.02601">
        <ele>82</ele>
        <time>2011-08-28T07:46:38Z</time>
      </trkpt>
      <trkpt lat="47.23037" lon="0.02594">
        <ele>82</ele>
        <time>2011-08-28T07:46:42Z</time>
      </trkpt>
      <trkpt lat="47.23038" lon="0.02587">
        <ele>82</ele>
        <time>2011-08-28T07:46:46Z</time>
      </trkpt>
      <trkpt lat="47.2304" lon="0.02579">
        <ele>82</ele>
        <time>2011-08-28T07:46:50Z</time>
      </trkpt>
      <trkpt lat="47.23041" lon="0.02571">
        <ele>82</ele>
        <time>2011-08-28T07:46:54Z</time>
      </trkpt>
      <trkpt lat="47.23042" lon="0.02563">
        <ele>82</ele>
        <time>2011-08-28T07:46:58Z</time>
      </trkpt>
      <trkpt lat="47.23043" lon="0.02556">
        <ele>82</ele>
        <time>2011-08-28T07:47:01Z</time>
      </trkpt>
      <trkpt lat="47.23043" lon="0.02549">
        <ele>82</ele>
        <time>2011-08-28T07:47:04Z</time>
      </trkpt>
      <trkpt lat="47.23042" lon="0.02542">
        <ele>82</ele>
        <time>2011-08-28T07:47:07Z</time>
      </trkpt>
      <trkpt lat="47.23043" lon="0.02533">
        <ele>82</ele>
        <time>2011-08-28T07:47:11Z</time>
      </trkpt>
      <trkpt lat="47.23046" lon="0.02525">
        <ele>82</ele>
        <time>2011-08-28T07:47:15Z</time>
      </trkpt>
      <trkpt lat="47.23049" lon="0.0252">
        <ele>82</ele>
        <time>2011-08-28T07:47:18Z</time>
      </trkpt>
      <trkpt lat="47.23051" lon="0.02514">
        <ele>82</ele>
        <time>2011-08-28T07:47:21Z</time>
      </trkpt>
      <trkpt lat="47.23053" lon="0.02508">
        <ele>82</ele>
        <time>2011-08-28T07:47:24Z</time>
      </trkpt>
      <trkpt lat="47.23054" lon="0.02502">
        <ele>82</ele>
        <time>2011-08-28T07:47:27Z</time>
      </trkpt>
      <trkpt lat="47.23056" lon="0.02495">
        <ele>82</ele>
        <time>2011-08-28T07:47:30Z</time>
      </trkpt>
      <trkpt lat="47.23058" lon="0.02489">
        <ele>82</ele>
        <time>2011-08-28T07:47:33Z</time>
      </trkpt>
      <trkpt lat="47.23061" lon="0.02482">
        <ele>82</ele>
        <time>2011-08-28T07:47:37Z</time>
      </trkpt>
      <trkpt lat="47.23058" lon="0.02477">
        <ele>82</ele>
        <time>2011-08-28T07:48:05Z</time>
      </trkpt>
      <trkpt lat="47.23061" lon="0.02471">
        <ele>82</ele>
        <time>2011-08-28T07:48:33Z</time>
      </trkpt>
      <trkpt lat="47.23063" lon="0.02464">
        <ele>82</ele>
        <time>2011-08-28T07:48:36Z</time>
      </trkpt>
      <trkpt lat="47.23065" lon="0.02458">
        <ele>82</ele>
        <time>2011-08-28T07:48:39Z</time>
      </trkpt>
      <trkpt lat="47.23067" lon="0.02451">
        <ele>82</ele>
        <time>2011-08-28T07:48:43Z</time>
      </trkpt>
      <trkpt lat="47.23069" lon="0.02443">
        <ele>82</ele>
        <time>2011-08-28T07:48:47Z</time>
      </trkpt>
      <trkpt lat="47.2307" lon="0.02435">
        <ele>82</ele>
        <time>2011-08-28T07:48:51Z</time>
      </trkpt>
      <trkpt lat="47.23072" lon="0.02428">
        <ele>81</ele>
        <time>2011-08-28T07:48:55Z</time>
      </trkpt>
      <trkpt lat="47.23073" lon="0.0242">
        <ele>81</ele>
        <time>2011-08-28T07:48:59Z</time>
      </trkpt>
      <trkpt lat="47.23074" lon="0.02411">
        <ele>81</ele>
        <time>2011-08-28T07:49:03Z</time>
      </trkpt>
      <trkpt lat="47.23074" lon="0.02404">
        <ele>81</ele>
        <time>2011-08-28T07:49:06Z</time>
      </trkpt>
      <trkpt lat="47.23074" lon="0.02397">
        <ele>82</ele>
        <time>2011-08-28T07:49:09Z</time>
      </trkpt>
      <trkpt lat="47.23072" lon="0.02389">
        <ele>82</ele>
        <time>2011-08-28T07:49:13Z</time>
      </trkpt>
      <trkpt lat="47.23072" lon="0.02382">
        <ele>82</ele>
        <time>2011-08-28T07:49:17Z</time>
      </trkpt>
      <trkpt lat="47.23072" lon="0.02374">
        <ele>82</ele>
        <time>2011-08-28T07:49:21Z</time>
      </trkpt>
      <trkpt lat="47.23072" lon="0.02367">
        <ele>82</ele>
        <time>2011-08-28T07:49:25Z</time>
      </trkpt>
      <trkpt lat="47.23073" lon="0.0236">
        <ele>82</ele>
        <time>2011-08-28T07:49:29Z</time>
      </trkpt>
      <trkpt lat="47.23076" lon="0.02354">
        <ele>82</ele>
        <time>2011-08-28T07:49:33Z</time>
      </trkpt>
      <trkpt lat="47.23081" lon="0.02351">
        <ele>82</ele>
        <time>2011-08-28T07:49:36Z</time>
      </trkpt>
      <trkpt lat="47.23085" lon="0.02345">
        <ele>82</ele>
        <time>2011-08-28T07:49:40Z</time>
      </trkpt>
      <trkpt lat="47.23088" lon="0.02338">
        <ele>82</ele>
        <time>2011-08-28T07:49:44Z</time>
      </trkpt>
      <trkpt lat="47.2309" lon="0.02332">
        <ele>82</ele>
        <time>2011-08-28T07:49:48Z</time>
      </trkpt>
      <trkpt lat="47.23093" lon="0.02325">
        <ele>83</ele>
        <time>2011-08-28T07:49:52Z</time>
      </trkpt>
      <trkpt lat="47.23095" lon="0.02318">
        <ele>83</ele>
        <time>2011-08-28T07:49:56Z</time>
      </trkpt>
      <trkpt lat="47.23097" lon="0.02312">
        <ele>83</ele>
        <time>2011-08-28T07:50:00Z</time>
      </trkpt>
      <trkpt lat="47.23099" lon="0.02305">
        <ele>83</ele>
        <time>2011-08-28T07:50:04Z</time>
      </trkpt>
      <trkpt lat="47.23101" lon="0.02298">
        <ele>83</ele>
        <time>2011-08-28T07:50:08Z</time>
      </trkpt>
      <trkpt lat="47.23102" lon="0.0229">
        <ele>83</ele>
        <time>2011-08-28T07:50:12Z</time>
      </trkpt>
      <trkpt lat="47.23104" lon="0.02283">
        <ele>83</ele>
        <time>2011-08-28T07:50:16Z</time>
      </trkpt>
      <trkpt lat="47.23105" lon="0.02275">
        <ele>83</ele>
        <time>2011-08-28T07:50:20Z</time>
      </trkpt>
      <trkpt lat="47.23106" lon="0.02267">
        <ele>83</ele>
        <time>2011-08-28T07:50:24Z</time>
      </trkpt>
      <trkpt lat="47.23107" lon="0.0226">
        <ele>83</ele>
        <time>2011-08-28T07:50:27Z</time>
      </trkpt>
      <trkpt lat="47.23108" lon="0.02252">
        <ele>83</ele>
        <time>2011-08-28T07:50:31Z</time>
      </trkpt>
      <trkpt lat="47.23108" lon="0.02243">
        <ele>83</ele>
        <time>2011-08-28T07:50:35Z</time>
      </trkpt>
      <trkpt lat="47.2311" lon="0.02235">
        <ele>83</ele>
        <time>2011-08-28T07:50:39Z</time>
      </trkpt>
      <trkpt lat="47.23112" lon="0.02228">
        <ele>83</ele>
        <time>2011-08-28T07:50:43Z</time>
      </trkpt>
      <trkpt lat="47.23114" lon="0.0222">
        <ele>83</ele>
        <time>2011-08-28T07:50:47Z</time>
      </trkpt>
      <trkpt lat="47.23116" lon="0.02212">
        <ele>83</ele>
        <time>2011-08-28T07:50:51Z</time>
      </trkpt>
      <trkpt lat="47.23118" lon="0.02204">
        <ele>83</ele>
        <time>2011-08-28T07:50:55Z</time>
      </trkpt>
      <trkpt lat="47.23119" lon="0.02197">
        <ele>83</ele>
        <time>2011-08-28T07:50:59Z</time>
      </trkpt>
      <trkpt lat="47.2312" lon="0.02189">
        <ele>83</ele>
        <time>2011-08-28T07:51:03Z</time>
      </trkpt>
      <trkpt lat="47.2312" lon="0.02181">
        <ele>83</ele>
        <time>2011-08-28T07:51:06Z</time>
      </trkpt>
      <trkpt lat="47.23121" lon="0.02174">
        <ele>83</ele>
        <time>2011-08-28T07:51:09Z</time>
      </trkpt>
      <trkpt lat="47.23121" lon="0.02167">
        <ele>83</ele>
        <time>2011-08-28T07:51:12Z</time>
      </trkpt>
      <trkpt lat="47.23121" lon="0.0216">
        <ele>83</ele>
        <time>2011-08-28T07:51:15Z</time>
      </trkpt>
      <trkpt lat="47.23121" lon="0.02152">
        <ele>83</ele>
        <time>2011-08-28T07:51:19Z</time>
      </trkpt>
      <trkpt lat="47.23121" lon="0.02143">
        <ele>83</ele>
        <time>2011-08-28T07:51:23Z</time>
      </trkpt>
      <trkpt lat="47.23121" lon="0.02135">
        <ele>83</ele>
        <time>2011-08-28T07:51:27Z</time>
      </trkpt>
      <trkpt lat="47.23121" lon="0.02127">
        <ele>83</ele>
        <time>2011-08-28T07:51:31Z</time>
      </trkpt>
      <trkpt lat="47.23121" lon="0.0212">
        <ele>83</ele>
        <time>2011-08-28T07:51:35Z</time>
      </trkpt>
      <trkpt lat="47.23121" lon="0.02112">
        <ele>83</ele>
        <time>2011-08-28T07:51:39Z</time>
      </trkpt>
      <trkpt lat="47.2312" lon="0.02104">
        <ele>84</ele>
        <time>2011-08-28T07:51:43Z</time>
      </trkpt>
      <trkpt lat="47.23121" lon="0.02097">
        <ele>84</ele>
        <time>2011-08-28T07:51:47Z</time>
      </trkpt>
      <trkpt lat="47.23122" lon="0.0209">
        <ele>84</ele>
        <time>2011-08-28T07:51:51Z</time>
      </trkpt>
      <trkpt lat="47.23126" lon="0.02084">
        <ele>84</ele>
        <time>2011-08-28T07:51:55Z</time>
      </trkpt>
      <trkpt lat="47.2313" lon="0.02079">
        <ele>84</ele>
        <time>2011-08-28T07:51:58Z</time>
      </trkpt>
      <trkpt lat="47.23134" lon="0.02073">
        <ele>84</ele>
        <time>2011-08-28T07:52:01Z</time>
      </trkpt>
      <trkpt lat="47.23136" lon="0.02066">
        <ele>84</ele>
        <time>2011-08-28T07:52:05Z</time>
      </trkpt>
      <trkpt lat="47.23137" lon="0.02058">
        <ele>84</ele>
        <time>2011-08-28T07:52:09Z</time>
      </trkpt>
      <trkpt lat="47.23138" lon="0.0205">
        <ele>84</ele>
        <time>2011-08-28T07:52:13Z</time>
      </trkpt>
      <trkpt lat="47.23139" lon="0.02041">
        <ele>83</ele>
        <time>2011-08-28T07:52:17Z</time>
      </trkpt>
      <trkpt lat="47.23141" lon="0.02033">
        <ele>83</ele>
        <time>2011-08-28T07:52:21Z</time>
      </trkpt>
      <trkpt lat="47.23143" lon="0.02025">
        <ele>83</ele>
        <time>2011-08-28T07:52:25Z</time>
      </trkpt>
      <trkpt lat="47.23145" lon="0.02019">
        <ele>83</ele>
        <time>2011-08-28T07:52:28Z</time>
      </trkpt>
      <trkpt lat="47.23146" lon="0.0201">
        <ele>83</ele>
        <time>2011-08-28T07:52:32Z</time>
      </trkpt>
      <trkpt lat="47.23148" lon="0.02003">
        <ele>83</ele>
        <time>2011-08-28T07:52:36Z</time>
      </trkpt>
      <trkpt lat="47.23151" lon="0.01995">
        <ele>83</ele>
        <time>2011-08-28T07:52:40Z</time>
      </trkpt>
      <trkpt lat="47.23152" lon="0.01988">
        <ele>84</ele>
        <time>2011-08-28T07:52:44Z</time>
      </trkpt>
      <trkpt lat="47.23153" lon="0.0198">
        <ele>84</ele>
        <time>2011-08-28T07:52:48Z</time>
      </trkpt>
      <trkpt lat="47.23155" lon="0.01973">
        <ele>84</ele>
        <time>2011-08-28T07:52:52Z</time>
      </trkpt>
      <trkpt lat="47.23156" lon="0.01966">
        <ele>84</ele>
        <time>2011-08-28T07:52:56Z</time>
      </trkpt>
      <trkpt lat="47.23158" lon="0.01958">
        <ele>84</ele>
        <time>2011-08-28T07:53:00Z</time>
      </trkpt>
      <trkpt lat="47.2316" lon="0.0195">
        <ele>84</ele>
        <time>2011-08-28T07:53:04Z</time>
      </trkpt>
      <trkpt lat="47.23162" lon="0.01942">
        <ele>84</ele>
        <time>2011-08-28T07:53:08Z</time>
      </trkpt>
      <trkpt lat="47.23162" lon="0.01934">
        <ele>84</ele>
        <time>2011-08-28T07:53:12Z</time>
      </trkpt>
      <trkpt lat="47.23163" lon="0.01925">
        <ele>84</ele>
        <time>2011-08-28T07:53:16Z</time>
      </trkpt>
      <trkpt lat="47.23163" lon="0.01918">
        <ele>84</ele>
        <time>2011-08-28T07:53:19Z</time>
      </trkpt>
      <trkpt lat="47.23162" lon="0.01911">
        <ele>84</ele>
        <time>2011-08-28T07:53:22Z</time>
      </trkpt>
      <trkpt lat="47.23162" lon="0.01903">
        <ele>84</ele>
        <time>2011-08-28T07:53:26Z</time>
      </trkpt>
      <trkpt lat="47.2316" lon="0.01894">
        <ele>85</ele>
        <time>2011-08-28T07:53:30Z</time>
      </trkpt>
      <trkpt lat="47.23158" lon="0.01887">
        <ele>85</ele>
        <time>2011-08-28T07:53:34Z</time>
      </trkpt>
      <trkpt lat="47.23157" lon="0.0188">
        <ele>85</ele>
        <time>2011-08-28T07:53:38Z</time>
      </trkpt>
      <trkpt lat="47.23156" lon="0.01872">
        <ele>85</ele>
        <time>2011-08-28T07:53:43Z</time>
      </trkpt>
      <trkpt lat="47.23153" lon="0.01865">
        <ele>85</ele>
        <time>2011-08-28T07:53:48Z</time>
      </trkpt>
      <trkpt lat="47.23151" lon="0.01858">
        <ele>85</ele>
        <time>2011-08-28T07:53:54Z</time>
      </trkpt>
      <trkpt lat="47.2315" lon="0.0185">
        <ele>85</ele>
        <time>2011-08-28T07:54:00Z</time>
      </trkpt>
      <trkpt lat="47.23148" lon="0.01844">
        <ele>85</ele>
        <time>2011-08-28T07:54:05Z</time>
      </trkpt>
      <trkpt lat="47.23145" lon="0.01837">
        <ele>85</ele>
        <time>2011-08-28T07:54:10Z</time>
      </trkpt>
      <trkpt lat="47.23143" lon="0.01831">
        <ele>85</ele>
        <time>2011-08-28T07:54:14Z</time>
      </trkpt>
      <trkpt lat="47.23139" lon="0.01825">
        <ele>85</ele>
        <time>2011-08-28T07:54:19Z</time>
      </trkpt>
      <trkpt lat="47.23138" lon="0.01818">
        <ele>85</ele>
        <time>2011-08-28T07:54:24Z</time>
      </trkpt>
      <trkpt lat="47.23139" lon="0.0181">
        <ele>85</ele>
        <time>2011-08-28T07:54:29Z</time>
      </trkpt>
      <trkpt lat="47.2314" lon="0.01803">
        <ele>85</ele>
        <time>2011-08-28T07:54:33Z</time>
      </trkpt>
      <trkpt lat="47.23141" lon="0.01795">
        <ele>85</ele>
        <time>2011-08-28T07:54:37Z</time>
      </trkpt>
      <trkpt lat="47.23142" lon="0.01788">
        <ele>85</ele>
        <time>2011-08-28T07:54:41Z</time>
      </trkpt>
      <trkpt lat="47.23144" lon="0.01782">
        <ele>85</ele>
        <time>2011-08-28T07:54:45Z</time>
      </trkpt>
      <trkpt lat="47.23148" lon="0.01778">
        <ele>85</ele>
        <time>2011-08-28T07:54:49Z</time>
      </trkpt>
      <trkpt lat="47.23152" lon="0.01774">
        <ele>85</ele>
        <time>2011-08-28T07:54:53Z</time>
      </trkpt>
      <trkpt lat="47.23156" lon="0.0177">
        <ele>85</ele>
        <time>2011-08-28T07:54:58Z</time>
      </trkpt>
      <trkpt lat="47.23161" lon="0.01766">
        <ele>85</ele>
        <time>2011-08-28T07:55:03Z</time>
      </trkpt>
      <trkpt lat="47.23165" lon="0.01764">
        <ele>85</ele>
        <time>2011-08-28T07:55:07Z</time>
      </trkpt>
      <trkpt lat="47.2317" lon="0.01759">
        <ele>85</ele>
        <time>2011-08-28T07:55:11Z</time>
      </trkpt>
      <trkpt lat="47.23173" lon="0.01754">
        <ele>85</ele>
        <time>2011-08-28T07:55:14Z</time>
      </trkpt>
      <trkpt lat="47.23177" lon="0.01749">
        <ele>85</ele>
        <time>2011-08-28T07:55:18Z</time>
      </trkpt>
      <trkpt lat="47.2318" lon="0.01743">
        <ele>85</ele>
        <time>2011-08-28T07:55:22Z</time>
      </trkpt>
      <trkpt lat="47.23184" lon="0.01737">
        <ele>85</ele>
        <time>2011-08-28T07:55:26Z</time>
      </trkpt>
      <trkpt lat="47.23187" lon="0.01732">
        <ele>85</ele>
        <time>2011-08-28T07:55:31Z</time>
      </trkpt>
      <trkpt lat="47.23191" lon="0.01727">
        <ele>85</ele>
        <time>2011-08-28T07:55:36Z</time>
      </trkpt>
      <trkpt lat="47.23194" lon="0.01722">
        <ele>85</ele>
        <time>2011-08-28T07:55:41Z</time>
      </trkpt>
      <trkpt lat="47.23198" lon="0.01718">
        <ele>85</ele>
        <time>2011-08-28T07:55:46Z</time>
      </trkpt>
      <trkpt lat="47.23202" lon="0.01712">
        <ele>85</ele>
        <time>2011-08-28T07:55:51Z</time>
      </trkpt>
      <trkpt lat="47.23205" lon="0.01706">
        <ele>85</ele>
        <time>2011-08-28T07:55:55Z</time>
      </trkpt>
      <trkpt lat="47.23207" lon="0.01699">
        <ele>86</ele>
        <time>2011-08-28T07:55:59Z</time>
      </trkpt>
      <trkpt lat="47.23209" lon="0.01693">
        <ele>86</ele>
        <time>2011-08-28T07:56:02Z</time>
      </trkpt>
      <trkpt lat="47.23212" lon="0.01686">
        <ele>86</ele>
        <time>2011-08-28T07:56:06Z</time>
      </trkpt>
      <trkpt lat="47.23215" lon="0.01679">
        <ele>86</ele>
        <time>2011-08-28T07:56:10Z</time>
      </trkpt>
      <trkpt lat="47.23216" lon="0.01673">
        <ele>86</ele>
        <time>2011-08-28T07:56:14Z</time>
      </trkpt>
      <trkpt lat="47.23218" lon="0.01665">
        <ele>86</ele>
        <time>2011-08-28T07:56:19Z</time>
      </trkpt>
      <trkpt lat="47.23218" lon="0.01658">
        <ele>86</ele>
        <time>2011-08-28T07:56:24Z</time>
      </trkpt>
      <trkpt lat="47.23218" lon="0.01651">
        <ele>86</ele>
        <time>2011-08-28T07:56:30Z</time>
      </trkpt>
      <trkpt lat="47.23221" lon="0.01645">
        <ele>86</ele>
        <time>2011-08-28T07:56:35Z</time>
      </trkpt>
      <trkpt lat="47.23222" lon="0.01638">
        <ele>86</ele>
        <time>2011-08-28T07:56:40Z</time>
      </trkpt>
      <trkpt lat="47.23222" lon="0.01629">
        <ele>86</ele>
        <time>2011-08-28T07:56:45Z</time>
      </trkpt>
      <trkpt lat="47.23223" lon="0.01621">
        <ele>86</ele>
        <time>2011-08-28T07:56:50Z</time>
      </trkpt>
      <trkpt lat="47.23226" lon="0.01614">
        <ele>86</ele>
        <time>2011-08-28T07:56:54Z</time>
      </trkpt>
      <trkpt lat="47.23229" lon="0.01607">
        <ele>86</ele>
        <time>2011-08-28T07:56:58Z</time>
      </trkpt>
      <trkpt lat="47.23231" lon="0.01601">
        <ele>86</ele>
        <time>2011-08-28T07:57:02Z</time>
      </trkpt>
      <trkpt lat="47.23234" lon="0.01595">
        <ele>86</ele>
        <time>2011-08-28T07:57:06Z</time>
      </trkpt>
      <trkpt lat="47.23236" lon="0.01588">
        <ele>87</ele>
        <time>2011-08-28T07:57:11Z</time>
      </trkpt>
      <trkpt lat="47.2324" lon="0.01583">
        <ele>87</ele>
        <time>2011-08-28T07:57:16Z</time>
      </trkpt>
      <trkpt lat="47.23244" lon="0.01578">
        <ele>87</ele>
        <time>2011-08-28T07:57:21Z</time>
      </trkpt>
      <trkpt lat="47.23247" lon="0.01571">
        <ele>87</ele>
        <time>2011-08-28T07:57:25Z</time>
      </trkpt>
      <trkpt lat="47.23249" lon="0.01566">
        <ele>87</ele>
        <time>2011-08-28T07:57:29Z</time>
      </trkpt>
      <trkpt lat="47.23252" lon="0.01559">
        <ele>87</ele>
        <time>2011-08-28T07:57:34Z</time>
      </trkpt>
      <trkpt lat="47.23255" lon="0.01553">
        <ele>87</ele>
        <time>2011-08-28T07:57:38Z</time>
      </trkpt>
      <trkpt lat="47.23257" lon="0.01546">
        <ele>87</ele>
        <time>2011-08-28T07:57:42Z</time>
      </trkpt>
      <trkpt lat="47.23259" lon="0.01539">
        <ele>87</ele>
        <time>2011-08-28T07:57:46Z</time>
      </trkpt>
      <trkpt lat="47.23261" lon="0.01531">
        <ele>87</ele>
        <time>2011-08-28T07:57:50Z</time>
      </trkpt>
      <trkpt lat="47.23262" lon="0.01524">
        <ele>87</ele>
        <time>2011-08-28T07:57:54Z</time>
      </trkpt>
      <trkpt lat="47.23264" lon="0.01517">
        <ele>87</ele>
        <time>2011-08-28T07:57:58Z</time>
      </trkpt>
      <trkpt lat="47.23266" lon="0.01511">
        <ele>87</ele>
        <time>2011-08-28T07:58:02Z</time>
      </trkpt>
      <trkpt lat="47.23268" lon="0.01504">
        <ele>88</ele>
        <time>2011-08-28T07:58:07Z</time>
      </trkpt>
      <trkpt lat="47.2327" lon="0.01497">
        <ele>88</ele>
        <time>2011-08-28T07:58:12Z</time>
      </trkpt>
      <trkpt lat="47.23272" lon="0.0149">
        <ele>88</ele>
        <time>2011-08-28T07:58:17Z</time>
      </trkpt>
      <trkpt lat="47.23274" lon="0.01483">
        <ele>88</ele>
        <time>2011-08-28T07:58:22Z</time>
      </trkpt>
      <trkpt lat="47.23276" lon="0.01477">
        <ele>88</ele>
        <time>2011-08-28T07:58:27Z</time>
      </trkpt>
      <trkpt lat="47.23278" lon="0.0147">
        <ele>88</ele>
        <time>2011-08-28T07:58:32Z</time>
      </trkpt>
      <trkpt lat="47.23279" lon="0.01462">
        <ele>88</ele>
        <time>2011-08-28T07:58:37Z</time>
      </trkpt>
      <trkpt lat="47.2328" lon="0.01455">
        <ele>88</ele>
        <time>2011-08-28T07:58:42Z</time>
      </trkpt>
      <trkpt lat="47.23281" lon="0.01448">
        <ele>88</ele>
        <time>2011-08-28T07:58:50Z</time>
      </trkpt>
      <trkpt lat="47.23283" lon="0.01441">
        <ele>87</ele>
        <time>2011-08-28T07:58:57Z</time>
      </trkpt>
      <trkpt lat="47.23286" lon="0.01434">
        <ele>86</ele>
        <time>2011-08-28T07:59:03Z</time>
      </trkpt>
      <trkpt lat="47.23288" lon="0.01428">
        <ele>85</ele>
        <time>2011-08-28T07:59:07Z</time>
      </trkpt>
      <trkpt lat="47.23291" lon="0.01422">
        <ele>85</ele>
        <time>2011-08-28T07:59:12Z</time>
      </trkpt>
      <trkpt lat="47.23294" lon="0.01415">
        <ele>84</ele>
        <time>2011-08-28T07:59:16Z</time>
      </trkpt>
      <trkpt lat="47.23296" lon="0.01408">
        <ele>83</ele>
        <time>2011-08-28T07:59:20Z</time>
      </trkpt>
      <trkpt lat="47.23298" lon="0.01401">
        <ele>83</ele>
        <time>2011-08-28T07:59:23Z</time>
      </trkpt>
      <trkpt lat="47.233" lon="0.01393">
        <ele>83</ele>
        <time>2011-08-28T07:59:26Z</time>
      </trkpt>
      <trkpt lat="47.23303" lon="0.01385">
        <ele>83</ele>
        <time>2011-08-28T07:59:29Z</time>
      </trkpt>
      <trkpt lat="47.23304" lon="0.01378">
        <ele>82</ele>
        <time>2011-08-28T07:59:31Z</time>
      </trkpt>
      <trkpt lat="47.23306" lon="0.0137">
        <ele>82</ele>
        <time>2011-08-28T07:59:34Z</time>
      </trkpt>
      <trkpt lat="47.23308" lon="0.01362">
        <ele>82</ele>
        <time>2011-08-28T07:59:37Z</time>
      </trkpt>
      <trkpt lat="47.2331" lon="0.01356">
        <ele>82</ele>
        <time>2011-08-28T07:59:40Z</time>
      </trkpt>
      <trkpt lat="47.23313" lon="0.0135">
        <ele>81</ele>
        <time>2011-08-28T07:59:43Z</time>
      </trkpt>
      <trkpt lat="47.23314" lon="0.01344">
        <ele>81</ele>
        <time>2011-08-28T07:59:46Z</time>
      </trkpt>
      <trkpt lat="47.23317" lon="0.01336">
        <ele>81</ele>
        <time>2011-08-28T07:59:50Z</time>
      </trkpt>
      <trkpt lat="47.2332" lon="0.01329">
        <ele>81</ele>
        <time>2011-08-28T07:59:54Z</time>
      </trkpt>
      <trkpt lat="47.23323" lon="0.01321">
        <ele>81</ele>
        <time>2011-08-28T07:59:58Z</time>
      </trkpt>
      <trkpt lat="47.23325" lon="0.01314">
        <ele>81</ele>
        <time>2011-08-28T08:00:02Z</time>
      </trkpt>
      <trkpt lat="47.23327" lon="0.01307">
        <ele>81</ele>
        <time>2011-08-28T08:00:05Z</time>
      </trkpt>
      <trkpt lat="47.23328" lon="0.013">
        <ele>81</ele>
        <time>2011-08-28T08:00:08Z</time>
      </trkpt>
      <trkpt lat="47.2333" lon="0.01294">
        <ele>81</ele>
        <time>2011-08-28T08:00:11Z</time>
      </trkpt>
      <trkpt lat="47.23331" lon="0.01285">
        <ele>81</ele>
        <time>2011-08-28T08:00:15Z</time>
      </trkpt>
      <trkpt lat="47.23332" lon="0.01277">
        <ele>81</ele>
        <time>2011-08-28T08:00:19Z</time>
      </trkpt>
      <trkpt lat="47.23332" lon="0.01271">
        <ele>81</ele>
        <time>2011-08-28T08:00:22Z</time>
      </trkpt>
      <trkpt lat="47.23331" lon="0.01263">
        <ele>81</ele>
        <time>2011-08-28T08:00:26Z</time>
      </trkpt>
      <trkpt lat="47.2333" lon="0.01256">
        <ele>81</ele>
        <time>2011-08-28T08:00:30Z</time>
      </trkpt>
      <trkpt lat="47.23329" lon="0.01247">
        <ele>81</ele>
        <time>2011-08-28T08:00:34Z</time>
      </trkpt>
      <trkpt lat="47.2333" lon="0.0124">
        <ele>81</ele>
        <time>2011-08-28T08:00:38Z</time>
      </trkpt>
      <trkpt lat="47.2333" lon="0.01233">
        <ele>82</ele>
        <time>2011-08-28T08:00:42Z</time>
      </trkpt>
      <trkpt lat="47.23331" lon="0.01226">
        <ele>82</ele>
        <time>2011-08-28T08:00:47Z</time>
      </trkpt>
      <trkpt lat="47.23334" lon="0.01219">
        <ele>82</ele>
        <time>2011-08-28T08:00:53Z</time>
      </trkpt>
      <trkpt lat="47.23336" lon="0.01213">
        <ele>82</ele>
        <time>2011-08-28T08:00:58Z</time>
      </trkpt>
      <trkpt lat="47.23339" lon="0.01207">
        <ele>82</ele>
        <time>2011-08-28T08:01:03Z</time>
      </trkpt>
      <trkpt lat="47.23341" lon="0.01201">
        <ele>82</ele>
        <time>2011-08-28T08:01:07Z</time>
      </trkpt>
      <trkpt lat="47.23344" lon="0.01194">
        <ele>82</ele>
        <time>2011-08-28T08:01:12Z</time>
      </trkpt>
      <trkpt lat="47.23347" lon="0.01188">
        <ele>82</ele>
        <time>2011-08-28T08:01:17Z</time>
      </trkpt>
      <trkpt lat="47.2335" lon="0.01183">
        <ele>82</ele>
        <time>2011-08-28T08:01:21Z</time>
      </trkpt>
      <trkpt lat="47.23354" lon="0.01178">
        <ele>82</ele>
        <time>2011-08-28T08:01:25Z</time>
      </trkpt>
      <trkpt lat="47.23357" lon="0.01171">
        <ele>83</ele>
        <time>2011-08-28T08:01:29Z</time>
      </trkpt>
      <trkpt lat="47.23361" lon="0.01165">
        <ele>83</ele>
        <time>2011-08-28T08:01:33Z</time>
      </trkpt>
      <trkpt lat="47.23364" lon="0.01158">
        <ele>83</ele>
        <time>2011-08-28T08:01:37Z</time>
      </trkpt>
      <trkpt lat="47.23367" lon="0.01151">
        <ele>83</ele>
        <time>2011-08-28T08:01:41Z</time>
      </trkpt>
      <trkpt lat="47.23368" lon="0.01143">
        <ele>83</ele>
        <time>2011-08-28T08:01:45Z</time>
      </trkpt>
      <trkpt lat="47.23369" lon="0.01135">
        <ele>83</ele>
        <time>2011-08-28T08:01:49Z</time>
      </trkpt>
      <trkpt lat="47.23371" lon="0.01129">
        <ele>83</ele>
        <time>2011-08-28T08:01:53Z</time>
      </trkpt>
      <trkpt lat="47.23374" lon="0.01123">
        <ele>83</ele>
        <time>2011-08-28T08:01:57Z</time>
      </trkpt>
      <trkpt lat="47.23377" lon="0.01117">
        <ele>83</ele>
        <time>2011-08-28T08:02:01Z</time>
      </trkpt>
      <trkpt lat="47.2338" lon="0.01112">
        <ele>83</ele>
        <time>2011-08-28T08:02:05Z</time>
      </trkpt>
      <trkpt lat="47.23384" lon="0.01108">
        <ele>84</ele>
        <time>2011-08-28T08:02:09Z</time>
      </trkpt>
      <trkpt lat="47.23388" lon="0.01103">
        <ele>84</ele>
        <time>2011-08-28T08:02:13Z</time>
      </trkpt>
      <trkpt lat="47.23392" lon="0.011">
        <ele>84</ele>
        <time>2011-08-28T08:02:17Z</time>
      </trkpt>
      <trkpt lat="47.23397" lon="0.01096">
        <ele>84</ele>
        <time>2011-08-28T08:02:22Z</time>
      </trkpt>
      <trkpt lat="47.23401" lon="0.01091">
        <ele>84</ele>
        <time>2011-08-28T08:02:27Z</time>
      </trkpt>
      <trkpt lat="47.23404" lon="0.01086">
        <ele>84</ele>
        <time>2011-08-28T08:02:35Z</time>
      </trkpt>
      <trkpt lat="47.23408" lon="0.01081">
        <ele>84</ele>
        <time>2011-08-28T08:02:40Z</time>
      </trkpt>
      <trkpt lat="47.23412" lon="0.01075">
        <ele>84</ele>
        <time>2011-08-28T08:02:44Z</time>
      </trkpt>
      <trkpt lat="47.23416" lon="0.0107">
        <ele>84</ele>
        <time>2011-08-28T08:02:51Z</time>
      </trkpt>
      <trkpt lat="47.23419" lon="0.01064">
        <ele>84</ele>
        <time>2011-08-28T08:02:56Z</time>
      </trkpt>
      <trkpt lat="47.23422" lon="0.01058">
        <ele>84</ele>
        <time>2011-08-28T08:03:01Z</time>
      </trkpt>
      <trkpt lat="47.23425" lon="0.01052">
        <ele>84</ele>
        <time>2011-08-28T08:03:05Z</time>
      </trkpt>
      <trkpt lat="47.23428" lon="0.01046">
        <ele>84</ele>
        <time>2011-08-28T08:03:10Z</time>
      </trkpt>
      <trkpt lat="47.23431" lon="0.0104">
        <ele>84</ele>
        <time>2011-08-28T08:03:14Z</time>
      </trkpt>
      <trkpt lat="47.23433" lon="0.01034">
        <ele>85</ele>
        <time>2011-08-28T08:03:18Z</time>
      </trkpt>
      <trkpt lat="47.23435" lon="0.01026">
        <ele>85</ele>
        <time>2011-08-28T08:03:23Z</time>
      </trkpt>
      <trkpt lat="47.23437" lon="0.0102">
        <ele>85</ele>
        <time>2011-08-28T08:03:27Z</time>
      </trkpt>
      <trkpt lat="47.23439" lon="0.01012">
        <ele>85</ele>
        <time>2011-08-28T08:03:32Z</time>
      </trkpt>
      <trkpt lat="47.23441" lon="0.01006">
        <ele>85</ele>
        <time>2011-08-28T08:03:37Z</time>
      </trkpt>
      <trkpt lat="47.23444" lon="0.01">
        <ele>85</ele>
        <time>2011-08-28T08:03:43Z</time>
      </trkpt>
      <trkpt lat="47.23447" lon="0.00994">
        <ele>85</ele>
        <time>2011-08-28T08:03:50Z</time>
      </trkpt>
      <trkpt lat="47.2345" lon="0.00987">
        <ele>85</ele>
        <time>2011-08-28T08:03:55Z</time>
      </trkpt>
      <trkpt lat="47.23453" lon="0.00981">
        <ele>85</ele>
        <time>2011-08-28T08:04:00Z</time>
      </trkpt>
      <trkpt lat="47.23456" lon="0.00974">
        <ele>85</ele>
        <time>2011-08-28T08:04:05Z</time>
      </trkpt>
      <trkpt lat="47.23458" lon="0.00968">
        <ele>85</ele>
        <time>2011-08-28T08:04:09Z</time>
      </trkpt>
      <trkpt lat="47.23462" lon="0.00962">
        <ele>85</ele>
        <time>2011-08-28T08:04:13Z</time>
      </trkpt>
      <trkpt lat="47.23464" lon="0.00955">
        <ele>85</ele>
        <time>2011-08-28T08:04:17Z</time>
      </trkpt>
      <trkpt lat="47.23467" lon="0.00949">
        <ele>85</ele>
        <time>2011-08-28T08:04:21Z</time>
      </trkpt>
      <trkpt lat="47.23468" lon="0.00943">
        <ele>85</ele>
        <time>2011-08-28T08:04:25Z</time>
      </trkpt>
      <trkpt lat="47.2347" lon="0.00936">
        <ele>85</ele>
        <time>2011-08-28T08:04:29Z</time>
      </trkpt>
      <trkpt lat="47.23472" lon="0.00928">
        <ele>85</ele>
        <time>2011-08-28T08:04:33Z</time>
      </trkpt>
      <trkpt lat="47.23474" lon="0.00921">
        <ele>85</ele>
        <time>2011-08-28T08:04:37Z</time>
      </trkpt>
      <trkpt lat="47.23476" lon="0.00914">
        <ele>86</ele>
        <time>2011-08-28T08:04:41Z</time>
      </trkpt>
      <trkpt lat="47.23479" lon="0.00907">
        <ele>86</ele>
        <time>2011-08-28T08:04:46Z</time>
      </trkpt>
      <trkpt lat="47.23481" lon="0.00899">
        <ele>86</ele>
        <time>2011-08-28T08:04:51Z</time>
      </trkpt>
      <trkpt lat="47.23483" lon="0.00894">
        <ele>86</ele>
        <time>2011-08-28T08:04:55Z</time>
      </trkpt>
      <trkpt lat="47.23486" lon="0.00888">
        <ele>86</ele>
        <time>2011-08-28T08:05:00Z</time>
      </trkpt>
      <trkpt lat="47.2349" lon="0.00884">
        <ele>86</ele>
        <time>2011-08-28T08:05:06Z</time>
      </trkpt>
      <trkpt lat="47.23495" lon="0.00883">
        <ele>86</ele>
        <time>2011-08-28T08:05:11Z</time>
      </trkpt>
      <trkpt lat="47.23499" lon="0.00882">
        <ele>86</ele>
        <time>2011-08-28T08:05:17Z</time>
      </trkpt>
      <trkpt lat="47.23503" lon="0.00878">
        <ele>86</ele>
        <time>2011-08-28T08:05:22Z</time>
      </trkpt>
      <trkpt lat="47.23506" lon="0.00871">
        <ele>86</ele>
        <time>2011-08-28T08:05:32Z</time>
      </trkpt>
      <trkpt lat="47.23508" lon="0.00865">
        <ele>86</ele>
        <time>2011-08-28T08:05:36Z</time>
      </trkpt>
      <trkpt lat="47.23511" lon="0.00858">
        <ele>86</ele>
        <time>2011-08-28T08:05:40Z</time>
      </trkpt>
      <trkpt lat="47.23514" lon="0.00851">
        <ele>86</ele>
        <time>2011-08-28T08:05:43Z</time>
      </trkpt>
      <trkpt lat="47.23516" lon="0.00845">
        <ele>86</ele>
        <time>2011-08-28T08:05:46Z</time>
      </trkpt>
      <trkpt lat="47.23519" lon="0.00838">
        <ele>86</ele>
        <time>2011-08-28T08:05:50Z</time>
      </trkpt>
      <trkpt lat="47.23523" lon="0.00832">
        <ele>86</ele>
        <time>2011-08-28T08:05:54Z</time>
      </trkpt>
      <trkpt lat="47.23528" lon="0.00829">
        <ele>86</ele>
        <time>2011-08-28T08:05:59Z</time>
      </trkpt>
      <trkpt lat="47.23533" lon="0.00828">
        <ele>86</ele>
        <time>2011-08-28T08:06:04Z</time>
      </trkpt>
      <trkpt lat="47.23538" lon="0.00827">
        <ele>86</ele>
        <time>2011-08-28T08:06:09Z</time>
      </trkpt>
      <trkpt lat="47.23542" lon="0.00824">
        <ele>86</ele>
        <time>2011-08-28T08:06:16Z</time>
      </trkpt>
      <trkpt lat="47.23546" lon="0.00819">
        <ele>86</ele>
        <time>2011-08-28T08:06:23Z</time>
      </trkpt>
      <trkpt lat="47.23546" lon="0.00811">
        <ele>84</ele>
        <time>2011-08-28T08:11:20Z</time>
      </trkpt>
      <trkpt lat="47.23549" lon="0.00805">
        <ele>84</ele>
        <time>2011-08-28T08:11:24Z</time>
      </trkpt>
      <trkpt lat="47.23552" lon="0.00799">
        <ele>84</ele>
        <time>2011-08-28T08:11:27Z</time>
      </trkpt>
      <trkpt lat="47.23554" lon="0.00794">
        <ele>84</ele>
        <time>2011-08-28T08:11:30Z</time>
      </trkpt>
      <trkpt lat="47.23558" lon="0.00787">
        <ele>84</ele>
        <time>2011-08-28T08:11:34Z</time>
      </trkpt>
      <trkpt lat="47.23562" lon="0.0078">
        <ele>84</ele>
        <time>2011-08-28T08:11:38Z</time>
      </trkpt>
      <trkpt lat="47.23566" lon="0.00775">
        <ele>84</ele>
        <time>2011-08-28T08:11:42Z</time>
      </trkpt>
      <trkpt lat="47.2357" lon="0.0077">
        <ele>84</ele>
        <time>2011-08-28T08:11:46Z</time>
      </trkpt>
      <trkpt lat="47.23576" lon="0.00767">
        <ele>84</ele>
        <time>2011-08-28T08:11:50Z</time>
      </trkpt>
      <trkpt lat="47.2358" lon="0.00765">
        <ele>85</ele>
        <time>2011-08-28T08:11:53Z</time>
      </trkpt>
      <trkpt lat="47.23586" lon="0.00761">
        <ele>85</ele>
        <time>2011-08-28T08:11:57Z</time>
      </trkpt>
      <trkpt lat="47.2359" lon="0.00756">
        <ele>85</ele>
        <time>2011-08-28T08:12:01Z</time>
      </trkpt>
      <trkpt lat="47.23593" lon="0.0075">
        <ele>85</ele>
        <time>2011-08-28T08:12:05Z</time>
      </trkpt>
      <trkpt lat="47.23595" lon="0.00743">
        <ele>85</ele>
        <time>2011-08-28T08:12:09Z</time>
      </trkpt>
      <trkpt lat="47.23597" lon="0.00738">
        <ele>85</ele>
        <time>2011-08-28T08:12:13Z</time>
      </trkpt>
      <trkpt lat="47.236" lon="0.00733">
        <ele>85</ele>
        <time>2011-08-28T08:12:17Z</time>
      </trkpt>
      <trkpt lat="47.23603" lon="0.00728">
        <ele>85</ele>
        <time>2011-08-28T08:12:21Z</time>
      </trkpt>
      <trkpt lat="47.23607" lon="0.00724">
        <ele>85</ele>
        <time>2011-08-28T08:12:25Z</time>
      </trkpt>
      <trkpt lat="47.23611" lon="0.00719">
        <ele>85</ele>
        <time>2011-08-28T08:12:29Z</time>
      </trkpt>
      <trkpt lat="47.23615" lon="0.00714">
        <ele>85</ele>
        <time>2011-08-28T08:12:33Z</time>
      </trkpt>
      <trkpt lat="47.23619" lon="0.00709">
        <ele>85</ele>
        <time>2011-08-28T08:12:37Z</time>
      </trkpt>
      <trkpt lat="47.23622" lon="0.00702">
        <ele>85</ele>
        <time>2011-08-28T08:12:41Z</time>
      </trkpt>
      <trkpt lat="47.23625" lon="0.00695">
        <ele>85</ele>
        <time>2011-08-28T08:12:45Z</time>
      </trkpt>
      <trkpt lat="47.23627" lon="0.00687">
        <ele>86</ele>
        <time>2011-08-28T08:12:49Z</time>
      </trkpt>
      <trkpt lat="47.23629" lon="0.0068">
        <ele>86</ele>
        <time>2011-08-28T08:12:53Z</time>
      </trkpt>
      <trkpt lat="47.23632" lon="0.00675">
        <ele>86</ele>
        <time>2011-08-28T08:12:57Z</time>
      </trkpt>
      <trkpt lat="47.23638" lon="0.00673">
        <ele>86</ele>
        <time>2011-08-28T08:13:01Z</time>
      </trkpt>
      <trkpt lat="47.23643" lon="0.00672">
        <ele>86</ele>
        <time>2011-08-28T08:13:05Z</time>
      </trkpt>
      <trkpt lat="47.23647" lon="0.0067">
        <ele>86</ele>
        <time>2011-08-28T08:13:09Z</time>
      </trkpt>
      <trkpt lat="47.2365" lon="0.00666">
        <ele>86</ele>
        <time>2011-08-28T08:13:13Z</time>
      </trkpt>
      <trkpt lat="47.23653" lon="0.0066">
        <ele>86</ele>
        <time>2011-08-28T08:13:18Z</time>
      </trkpt>
      <trkpt lat="47.23655" lon="0.00654">
        <ele>86</ele>
        <time>2011-08-28T08:13:22Z</time>
      </trkpt>
      <trkpt lat="47.23656" lon="0.00647">
        <ele>86</ele>
        <time>2011-08-28T08:13:26Z</time>
      </trkpt>
      <trkpt lat="47.23659" lon="0.00639">
        <ele>86</ele>
        <time>2011-08-28T08:13:30Z</time>
      </trkpt>
      <trkpt lat="47.23662" lon="0.00632">
        <ele>86</ele>
        <time>2011-08-28T08:13:34Z</time>
      </trkpt>
      <trkpt lat="47.23665" lon="0.00626">
        <ele>86</ele>
        <time>2011-08-28T08:13:38Z</time>
      </trkpt>
      <trkpt lat="47.23669" lon="0.00622">
        <ele>86</ele>
        <time>2011-08-28T08:13:42Z</time>
      </trkpt>
      <trkpt lat="47.23673" lon="0.00618">
        <ele>86</ele>
        <time>2011-08-28T08:13:46Z</time>
      </trkpt>
      <trkpt lat="47.23678" lon="0.00616">
        <ele>86</ele>
        <time>2011-08-28T08:13:51Z</time>
      </trkpt>
      <trkpt lat="47.23683" lon="0.00617">
        <ele>86</ele>
        <time>2011-08-28T08:13:56Z</time>
      </trkpt>
      <trkpt lat="47.23688" lon="0.00618">
        <ele>86</ele>
        <time>2011-08-28T08:14:01Z</time>
      </trkpt>
      <trkpt lat="47.23693" lon="0.00616">
        <ele>87</ele>
        <time>2011-08-28T08:14:06Z</time>
      </trkpt>
      <trkpt lat="47.23697" lon="0.00612">
        <ele>87</ele>
        <time>2011-08-28T08:14:11Z</time>
      </trkpt>
      <trkpt lat="47.23701" lon="0.00606">
        <ele>87</ele>
        <time>2011-08-28T08:14:16Z</time>
      </trkpt>
      <trkpt lat="47.23704" lon="0.00601">
        <ele>87</ele>
        <time>2011-08-28T08:14:20Z</time>
      </trkpt>
      <trkpt lat="47.23707" lon="0.00595">
        <ele>87</ele>
        <time>2011-08-28T08:14:24Z</time>
      </trkpt>
      <trkpt lat="47.23711" lon="0.0059">
        <ele>87</ele>
        <time>2011-08-28T08:14:28Z</time>
      </trkpt>
      <trkpt lat="47.23714" lon="0.00585">
        <ele>87</ele>
        <time>2011-08-28T08:14:33Z</time>
      </trkpt>
      <trkpt lat="47.23718" lon="0.00578">
        <ele>87</ele>
        <time>2011-08-28T08:14:38Z</time>
      </trkpt>
      <trkpt lat="47.2372" lon="0.00573">
        <ele>87</ele>
        <time>2011-08-28T08:14:42Z</time>
      </trkpt>
      <trkpt lat="47.23723" lon="0.00568">
        <ele>87</ele>
        <time>2011-08-28T08:14:46Z</time>
      </trkpt>
      <trkpt lat="47.23727" lon="0.00563">
        <ele>87</ele>
        <time>2011-08-28T08:14:50Z</time>
      </trkpt>
      <trkpt lat="47.2373" lon="0.00558">
        <ele>87</ele>
        <time>2011-08-28T08:14:54Z</time>
      </trkpt>
      <trkpt lat="47.23733" lon="0.00552">
        <ele>87</ele>
        <time>2011-08-28T08:14:58Z</time>
      </trkpt>
      <trkpt lat="47.23736" lon="0.00546">
        <ele>87</ele>
        <time>2011-08-28T08:15:02Z</time>
      </trkpt>
      <trkpt lat="47.2374" lon="0.0054">
        <ele>87</ele>
        <time>2011-08-28T08:15:06Z</time>
      </trkpt>
      <trkpt lat="47.23743" lon="0.00535">
        <ele>87</ele>
        <time>2011-08-28T08:15:10Z</time>
      </trkpt>
      <trkpt lat="47.23746" lon="0.0053">
        <ele>87</ele>
        <time>2011-08-28T08:15:14Z</time>
      </trkpt>
      <trkpt lat="47.23749" lon="0.00525">
        <ele>87</ele>
        <time>2011-08-28T08:15:18Z</time>
      </trkpt>
      <trkpt lat="47.23752" lon="0.0052">
        <ele>87</ele>
        <time>2011-08-28T08:15:22Z</time>
      </trkpt>
      <trkpt lat="47.23755" lon="0.00514">
        <ele>87</ele>
        <time>2011-08-28T08:15:26Z</time>
      </trkpt>
      <trkpt lat="47.23759" lon="0.00509">
        <ele>87</ele>
        <time>2011-08-28T08:15:30Z</time>
      </trkpt>
      <trkpt lat="47.23762" lon="0.00504">
        <ele>87</ele>
        <time>2011-08-28T08:15:34Z</time>
      </trkpt>
      <trkpt lat="47.23765" lon="0.00498">
        <ele>87</ele>
        <time>2011-08-28T08:15:38Z</time>
      </trkpt>
      <trkpt lat="47.23768" lon="0.00492">
        <ele>87</ele>
        <time>2011-08-28T08:15:42Z</time>
      </trkpt>
      <trkpt lat="47.23771" lon="0.00487">
        <ele>87</ele>
        <time>2011-08-28T08:15:46Z</time>
      </trkpt>
      <trkpt lat="47.23775" lon="0.00483">
        <ele>87</ele>
        <time>2011-08-28T08:15:57Z</time>
      </trkpt>
      <trkpt lat="47.23778" lon="0.00477">
        <ele>86</ele>
        <time>2011-08-28T08:16:01Z</time>
      </trkpt>
      <trkpt lat="47.23779" lon="0.00469">
        <ele>86</ele>
        <time>2011-08-28T08:16:05Z</time>
      </trkpt>
      <trkpt lat="47.23779" lon="0.00461">
        <ele>86</ele>
        <time>2011-08-28T08:16:09Z</time>
      </trkpt>
      <trkpt lat="47.23778" lon="0.00453">
        <ele>86</ele>
        <time>2011-08-28T08:16:13Z</time>
      </trkpt>
      <trkpt lat="47.23778" lon="0.00446">
        <ele>86</ele>
        <time>2011-08-28T08:16:17Z</time>
      </trkpt>
      <trkpt lat="47.23778" lon="0.00438">
        <ele>86</ele>
        <time>2011-08-28T08:16:21Z</time>
      </trkpt>
      <trkpt lat="47.23778" lon="0.0043">
        <ele>86</ele>
        <time>2011-08-28T08:16:25Z</time>
      </trkpt>
      <trkpt lat="47.23779" lon="0.00423">
        <ele>86</ele>
        <time>2011-08-28T08:16:29Z</time>
      </trkpt>
      <trkpt lat="47.2378" lon="0.00415">
        <ele>86</ele>
        <time>2011-08-28T08:16:33Z</time>
      </trkpt>
      <trkpt lat="47.2378" lon="0.00407">
        <ele>86</ele>
        <time>2011-08-28T08:16:37Z</time>
      </trkpt>
      <trkpt lat="47.23781" lon="0.00399">
        <ele>86</ele>
        <time>2011-08-28T08:16:41Z</time>
      </trkpt>
      <trkpt lat="47.23781" lon="0.00391">
        <ele>86</ele>
        <time>2011-08-28T08:16:45Z</time>
      </trkpt>
      <trkpt lat="47.2378" lon="0.00383">
        <ele>86</ele>
        <time>2011-08-28T08:16:49Z</time>
      </trkpt>
      <trkpt lat="47.23779" lon="0.00376">
        <ele>86</ele>
        <time>2011-08-28T08:16:53Z</time>
      </trkpt>
      <trkpt lat="47.23778" lon="0.00368">
        <ele>86</ele>
        <time>2011-08-28T08:16:57Z</time>
      </trkpt>
      <trkpt lat="47.23777" lon="0.0036">
        <ele>86</ele>
        <time>2011-08-28T08:17:01Z</time>
      </trkpt>
      <trkpt lat="47.23776" lon="0.00352">
        <ele>86</ele>
        <time>2011-08-28T08:17:05Z</time>
      </trkpt>
      <trkpt lat="47.23775" lon="0.00344">
        <ele>85</ele>
        <time>2011-08-28T08:17:09Z</time>
      </trkpt>
      <trkpt lat="47.23774" lon="0.00337">
        <ele>85</ele>
        <time>2011-08-28T08:17:13Z</time>
      </trkpt>
      <trkpt lat="47.23772" lon="0.0033">
        <ele>85</ele>
        <time>2011-08-28T08:17:17Z</time>
      </trkpt>
      <trkpt lat="47.2377" lon="0.00323">
        <ele>85</ele>
        <time>2011-08-28T08:17:21Z</time>
      </trkpt>
      <trkpt lat="47.23768" lon="0.00316">
        <ele>85</ele>
        <time>2011-08-28T08:17:25Z</time>
      </trkpt>
      <trkpt lat="47.23766" lon="0.00309">
        <ele>85</ele>
        <time>2011-08-28T08:17:29Z</time>
      </trkpt>
      <trkpt lat="47.23765" lon="0.00303">
        <ele>85</ele>
        <time>2011-08-28T08:17:33Z</time>
      </trkpt>
      <trkpt lat="47.23763" lon="0.00296">
        <ele>85</ele>
        <time>2011-08-28T08:17:37Z</time>
      </trkpt>
      <trkpt lat="47.23762" lon="0.0029">
        <ele>84</ele>
        <time>2011-08-28T08:17:41Z</time>
      </trkpt>
      <trkpt lat="47.2376" lon="0.00283">
        <ele>84</ele>
        <time>2011-08-28T08:17:45Z</time>
      </trkpt>
      <trkpt lat="47.23758" lon="0.00276">
        <ele>84</ele>
        <time>2011-08-28T08:17:49Z</time>
      </trkpt>
      <trkpt lat="47.23757" lon="0.00269">
        <ele>84</ele>
        <time>2011-08-28T08:17:53Z</time>
      </trkpt>
      <trkpt lat="47.23755" lon="0.00263">
        <ele>84</ele>
        <time>2011-08-28T08:17:57Z</time>
      </trkpt>
      <trkpt lat="47.23754" lon="0.00256">
        <ele>84</ele>
        <time>2011-08-28T08:18:01Z</time>
      </trkpt>
      <trkpt lat="47.23751" lon="0.00249">
        <ele>84</ele>
        <time>2011-08-28T08:18:05Z</time>
      </trkpt>
      <trkpt lat="47.23748" lon="0.00243">
        <ele>84</ele>
        <time>2011-08-28T08:18:09Z</time>
      </trkpt>
      <trkpt lat="47.23746" lon="0.00237">
        <ele>84</ele>
        <time>2011-08-28T08:18:13Z</time>
      </trkpt>
      <trkpt lat="47.23743" lon="0.00231">
        <ele>84</ele>
        <time>2011-08-28T08:18:17Z</time>
      </trkpt>
      <trkpt lat="47.23742" lon="0.00224">
        <ele>83</ele>
        <time>2011-08-28T08:18:21Z</time>
      </trkpt>
      <trkpt lat="47.23739" lon="0.00217">
        <ele>83</ele>
        <time>2011-08-28T08:18:26Z</time>
      </trkpt>
      <trkpt lat="47.23736" lon="0.00211">
        <ele>83</ele>
        <time>2011-08-28T08:18:30Z</time>
      </trkpt>
      <trkpt lat="47.23733" lon="0.00205">
        <ele>83</ele>
        <time>2011-08-28T08:18:35Z</time>
      </trkpt>
      <trkpt lat="47.23729" lon="0.00201">
        <ele>83</ele>
        <time>2011-08-28T08:18:39Z</time>
      </trkpt>
      <trkpt lat="47.23724" lon="0.00198">
        <ele>83</ele>
        <time>2011-08-28T08:18:43Z</time>
      </trkpt>
      <trkpt lat="47.23719" lon="0.00195">
        <ele>83</ele>
        <time>2011-08-28T08:18:47Z</time>
      </trkpt>
      <trkpt lat="47.23714" lon="0.00192">
        <ele>83</ele>
        <time>2011-08-28T08:18:51Z</time>
      </trkpt>
      <trkpt lat="47.23709" lon="0.00188">
        <ele>82</ele>
        <time>2011-08-28T08:18:55Z</time>
      </trkpt>
      <trkpt lat="47.23703" lon="0.00185">
        <ele>82</ele>
        <time>2011-08-28T08:18:59Z</time>
      </trkpt>
      <trkpt lat="47.23698" lon="0.00184">
        <ele>82</ele>
        <time>2011-08-28T08:19:03Z</time>
      </trkpt>
      <trkpt lat="47.23693" lon="0.00183">
        <ele>82</ele>
        <time>2011-08-28T08:19:07Z</time>
      </trkpt>
      <trkpt lat="47.23688" lon="0.00182">
        <ele>82</ele>
        <time>2011-08-28T08:19:11Z</time>
      </trkpt>
      <trkpt lat="47.23683" lon="0.00181">
        <ele>81</ele>
        <time>2011-08-28T08:19:16Z</time>
      </trkpt>
      <trkpt lat="47.23678" lon="0.0018">
        <ele>81</ele>
        <time>2011-08-28T08:19:21Z</time>
      </trkpt>
      <trkpt lat="47.23672" lon="0.00179">
        <ele>81</ele>
        <time>2011-08-28T08:19:26Z</time>
      </trkpt>
      <trkpt lat="47.23667" lon="0.00179">
        <ele>81</ele>
        <time>2011-08-28T08:19:31Z</time>
      </trkpt>
      <trkpt lat="47.23662" lon="0.00178">
        <ele>81</ele>
        <time>2011-08-28T08:19:36Z</time>
      </trkpt>
      <trkpt lat="47.23657" lon="0.00177">
        <ele>81</ele>
        <time>2011-08-28T08:19:41Z</time>
      </trkpt>
      <trkpt lat="47.23653" lon="0.00176">
        <ele>81</ele>
        <time>2011-08-28T08:19:46Z</time>
      </trkpt>
      <trkpt lat="47.23648" lon="0.00175">
        <ele>81</ele>
        <time>2011-08-28T08:19:51Z</time>
      </trkpt>
      <trkpt lat="47.23644" lon="0.00174">
        <ele>81</ele>
        <time>2011-08-28T08:19:56Z</time>
      </trkpt>
      <trkpt lat="47.23638" lon="0.00173">
        <ele>81</ele>
        <time>2011-08-28T08:20:02Z</time>
      </trkpt>
      <trkpt lat="47.23636" lon="0.00166">
        <ele>81</ele>
        <time>2011-08-28T08:20:18Z</time>
      </trkpt>
      <trkpt lat="47.23637" lon="0.0016">
        <ele>81</ele>
        <time>2011-08-28T08:20:25Z</time>
      </trkpt>
      <trkpt lat="47.23638" lon="0.00152">
        <ele>81</ele>
        <time>2011-08-28T08:20:30Z</time>
      </trkpt>
      <trkpt lat="47.23639" lon="0.00145">
        <ele>81</ele>
        <time>2011-08-28T08:20:34Z</time>
      </trkpt>
      <trkpt lat="47.2364" lon="0.00137">
        <ele>81</ele>
        <time>2011-08-28T08:20:39Z</time>
      </trkpt>
      <trkpt lat="47.2364" lon="0.0013">
        <ele>82</ele>
        <time>2011-08-28T08:20:46Z</time>
      </trkpt>
      <trkpt lat="47.23641" lon="0.00123">
        <ele>82</ele>
        <time>2011-08-28T08:20:55Z</time>
      </trkpt>
      <trkpt lat="47.23642" lon="0.00116">
        <ele>82</ele>
        <time>2011-08-28T08:20:59Z</time>
      </trkpt>
      <trkpt lat="47.23641" lon="0.00109">
        <ele>82</ele>
        <time>2011-08-28T08:21:06Z</time>
      </trkpt>
      <trkpt lat="47.23638" lon="0.00103">
        <ele>82</ele>
        <time>2011-08-28T08:21:15Z</time>
      </trkpt>
      <trkpt lat="47.2364" lon="0.00109">
        <ele>82</ele>
        <time>2011-08-28T08:21:46Z</time>
      </trkpt>
      <trkpt lat="47.23638" lon="0.00103">
        <ele>80</ele>
        <time>2011-08-28T08:22:13Z</time>
      </trkpt>
      <trkpt lat="47.23636" lon="0.00095">
        <ele>80</ele>
        <time>2011-08-28T08:22:18Z</time>
      </trkpt>
      <trkpt lat="47.23635" lon="0.00087">
        <ele>80</ele>
        <time>2011-08-28T08:22:23Z</time>
      </trkpt>
      <trkpt lat="47.23634" lon="0.00079">
        <ele>81</ele>
        <time>2011-08-28T08:22:28Z</time>
      </trkpt>
      <trkpt lat="47.23634" lon="0.00072">
        <ele>81</ele>
        <time>2011-08-28T08:22:32Z</time>
      </trkpt>
      <trkpt lat="47.23635" lon="0.00065">
        <ele>81</ele>
        <time>2011-08-28T08:22:35Z</time>
      </trkpt>
      <trkpt lat="47.23636" lon="0.00058">
        <ele>81</ele>
        <time>2011-08-28T08:22:38Z</time>
      </trkpt>
      <trkpt lat="47.23637" lon="0.00051">
        <ele>81</ele>
        <time>2011-08-28T08:22:41Z</time>
      </trkpt>
      <trkpt lat="47.23636" lon="0.00043">
        <ele>81</ele>
        <time>2011-08-28T08:22:45Z</time>
      </trkpt>
      <trkpt lat="47.23635" lon="0.00036">
        <ele>82</ele>
        <time>2011-08-28T08:22:50Z</time>
      </trkpt>
      <trkpt lat="47.23634" lon="0.00028">
        <ele>82</ele>
        <time>2011-08-28T08:22:55Z</time>
      </trkpt>
      <trkpt lat="47.23633" lon="0.0002">
        <ele>82</ele>
        <time>2011-08-28T08:23:00Z</time>
      </trkpt>
      <trkpt lat="47.23633" lon="0.00013">
        <ele>82</ele>
        <time>2011-08-28T08:23:04Z</time>
      </trkpt>
      <trkpt lat="47.23633" lon="6.0E-5">
        <ele>82</ele>
        <time>2011-08-28T08:23:08Z</time>
      </trkpt>
      <trkpt lat="47.23634" lon="-1.0E-5">
        <ele>82</ele>
        <time>2011-08-28T08:23:12Z</time>
      </trkpt>
      <trkpt lat="47.23635" lon="-8.0E-5">
        <ele>83</ele>
        <time>2011-08-28T08:23:16Z</time>
      </trkpt>
      <trkpt lat="47.23637" lon="-0.00016">
        <ele>83</ele>
        <time>2011-08-28T08:23:20Z</time>
      </trkpt>
      <trkpt lat="47.23638" lon="-0.00023">
        <ele>83</ele>
        <time>2011-08-28T08:23:24Z</time>
      </trkpt>
      <trkpt lat="47.2364" lon="-0.0003">
        <ele>83</ele>
        <time>2011-08-28T08:23:28Z</time>
      </trkpt>
      <trkpt lat="47.23641" lon="-0.00037">
        <ele>83</ele>
        <time>2011-08-28T08:23:32Z</time>
      </trkpt>
      <trkpt lat="47.23639" lon="-0.00044">
        <ele>83</ele>
        <time>2011-08-28T08:23:36Z</time>
      </trkpt>
      <trkpt lat="47.23638" lon="-0.00052">
        <ele>83</ele>
        <time>2011-08-28T08:23:41Z</time>
      </trkpt>
      <trkpt lat="47.23639" lon="-0.00058">
        <ele>83</ele>
        <time>2011-08-28T08:23:45Z</time>
      </trkpt>
      <trkpt lat="47.23641" lon="-0.00066">
        <ele>83</ele>
        <time>2011-08-28T08:23:49Z</time>
      </trkpt>
      <trkpt lat="47.23643" lon="-0.00072">
        <ele>84</ele>
        <time>2011-08-28T08:23:53Z</time>
      </trkpt>
      <trkpt lat="47.23645" lon="-0.00078">
        <ele>84</ele>
        <time>2011-08-28T08:23:57Z</time>
      </trkpt>
      <trkpt lat="47.23647" lon="-0.00086">
        <ele>84</ele>
        <time>2011-08-28T08:24:01Z</time>
      </trkpt>
      <trkpt lat="47.23648" lon="-0.00093">
        <ele>84</ele>
        <time>2011-08-28T08:24:05Z</time>
      </trkpt>
      <trkpt lat="47.23647" lon="-0.00101">
        <ele>84</ele>
        <time>2011-08-28T08:24:09Z</time>
      </trkpt>
      <trkpt lat="47.23646" lon="-0.00108">
        <ele>84</ele>
        <time>2011-08-28T08:24:13Z</time>
      </trkpt>
      <trkpt lat="47.23647" lon="-0.00115">
        <ele>84</ele>
        <time>2011-08-28T08:24:17Z</time>
      </trkpt>
      <trkpt lat="47.23647" lon="-0.00123">
        <ele>84</ele>
        <time>2011-08-28T08:24:21Z</time>
      </trkpt>
      <trkpt lat="47.23648" lon="-0.0013">
        <ele>84</ele>
        <time>2011-08-28T08:24:25Z</time>
      </trkpt>
      <trkpt lat="47.23648" lon="-0.00138">
        <ele>85</ele>
        <time>2011-08-28T08:24:29Z</time>
      </trkpt>
      <trkpt lat="47.23648" lon="-0.00145">
        <ele>85</ele>
        <time>2011-08-28T08:24:33Z</time>
      </trkpt>
      <trkpt lat="47.23648" lon="-0.00153">
        <ele>85</ele>
        <time>2011-08-28T08:24:37Z</time>
      </trkpt>
      <trkpt lat="47.23649" lon="-0.0016">
        <ele>85</ele>
        <time>2011-08-28T08:24:41Z</time>
      </trkpt>
      <trkpt lat="47.23649" lon="-0.00168">
        <ele>85</ele>
        <time>2011-08-28T08:24:45Z</time>
      </trkpt>
      <trkpt lat="47.23649" lon="-0.00175">
        <ele>85</ele>
        <time>2011-08-28T08:24:49Z</time>
      </trkpt>
      <trkpt lat="47.2365" lon="-0.00183">
        <ele>85</ele>
        <time>2011-08-28T08:24:53Z</time>
      </trkpt>
      <trkpt lat="47.23651" lon="-0.0019">
        <ele>85</ele>
        <time>2011-08-28T08:24:57Z</time>
      </trkpt>
      <trkpt lat="47.23652" lon="-0.00197">
        <ele>85</ele>
        <time>2011-08-28T08:25:01Z</time>
      </trkpt>
      <trkpt lat="47.23654" lon="-0.00204">
        <ele>85</ele>
        <time>2011-08-28T08:25:05Z</time>
      </trkpt>
      <trkpt lat="47.23655" lon="-0.00211">
        <ele>85</ele>
        <time>2011-08-28T08:25:09Z</time>
      </trkpt>
      <trkpt lat="47.23657" lon="-0.00218">
        <ele>85</ele>
        <time>2011-08-28T08:25:13Z</time>
      </trkpt>
      <trkpt lat="47.23658" lon="-0.00226">
        <ele>85</ele>
        <time>2011-08-28T08:25:17Z</time>
      </trkpt>
      <trkpt lat="47.23659" lon="-0.00234">
        <ele>85</ele>
        <time>2011-08-28T08:25:21Z</time>
      </trkpt>
      <trkpt lat="47.23659" lon="-0.00243">
        <ele>86</ele>
        <time>2011-08-28T08:25:25Z</time>
      </trkpt>
      <trkpt lat="47.23658" lon="-0.00251">
        <ele>86</ele>
        <time>2011-08-28T08:25:29Z</time>
      </trkpt>
      <trkpt lat="47.23657" lon="-0.00259">
        <ele>86</ele>
        <time>2011-08-28T08:25:33Z</time>
      </trkpt>
      <trkpt lat="47.23656" lon="-0.00266">
        <ele>86</ele>
        <time>2011-08-28T08:25:36Z</time>
      </trkpt>
      <trkpt lat="47.23655" lon="-0.00272">
        <ele>86</ele>
        <time>2011-08-28T08:25:39Z</time>
      </trkpt>
      <trkpt lat="47.23655" lon="-0.00279">
        <ele>86</ele>
        <time>2011-08-28T08:25:42Z</time>
      </trkpt>
      <trkpt lat="47.23655" lon="-0.00287">
        <ele>86</ele>
        <time>2011-08-28T08:25:46Z</time>
      </trkpt>
      <trkpt lat="47.23655" lon="-0.00294">
        <ele>86</ele>
        <time>2011-08-28T08:25:50Z</time>
      </trkpt>
      <trkpt lat="47.23657" lon="-0.00301">
        <ele>86</ele>
        <time>2011-08-28T08:25:54Z</time>
      </trkpt>
      <trkpt lat="47.23659" lon="-0.00309">
        <ele>86</ele>
        <time>2011-08-28T08:25:58Z</time>
      </trkpt>
      <trkpt lat="47.23661" lon="-0.00316">
        <ele>87</ele>
        <time>2011-08-28T08:26:02Z</time>
      </trkpt>
      <trkpt lat="47.23662" lon="-0.00323">
        <ele>87</ele>
        <time>2011-08-28T08:26:06Z</time>
      </trkpt>
      <trkpt lat="47.23664" lon="-0.00329">
        <ele>87</ele>
        <time>2011-08-28T08:26:10Z</time>
      </trkpt>
      <trkpt lat="47.23665" lon="-0.00336">
        <ele>87</ele>
        <time>2011-08-28T08:26:14Z</time>
      </trkpt>
      <trkpt lat="47.23666" lon="-0.00343">
        <ele>87</ele>
        <time>2011-08-28T08:26:18Z</time>
      </trkpt>
      <trkpt lat="47.23666" lon="-0.0035">
        <ele>87</ele>
        <time>2011-08-28T08:26:22Z</time>
      </trkpt>
      <trkpt lat="47.23667" lon="-0.00358">
        <ele>87</ele>
        <time>2011-08-28T08:26:26Z</time>
      </trkpt>
      <trkpt lat="47.23668" lon="-0.00366">
        <ele>88</ele>
        <time>2011-08-28T08:26:30Z</time>
      </trkpt>
      <trkpt lat="47.23669" lon="-0.00374">
        <ele>88</ele>
        <time>2011-08-28T08:26:33Z</time>
      </trkpt>
      <trkpt lat="47.2367" lon="-0.00381">
        <ele>88</ele>
        <time>2011-08-28T08:26:36Z</time>
      </trkpt>
      <trkpt lat="47.2367" lon="-0.00388">
        <ele>88</ele>
        <time>2011-08-28T08:26:39Z</time>
      </trkpt>
      <trkpt lat="47.2367" lon="-0.00394">
        <ele>88</ele>
        <time>2011-08-28T08:26:42Z</time>
      </trkpt>
      <trkpt lat="47.23671" lon="-0.00403">
        <ele>88</ele>
        <time>2011-08-28T08:26:46Z</time>
      </trkpt>
      <trkpt lat="47.23672" lon="-0.0041">
        <ele>88</ele>
        <time>2011-08-28T08:26:50Z</time>
      </trkpt>
      <trkpt lat="47.23672" lon="-0.00418">
        <ele>89</ele>
        <time>2011-08-28T08:26:54Z</time>
      </trkpt>
      <trkpt lat="47.23672" lon="-0.00425">
        <ele>89</ele>
        <time>2011-08-28T08:26:58Z</time>
      </trkpt>
      <trkpt lat="47.23671" lon="-0.00432">
        <ele>89</ele>
        <time>2011-08-28T08:27:02Z</time>
      </trkpt>
      <trkpt lat="47.2367" lon="-0.0044">
        <ele>89</ele>
        <time>2011-08-28T08:27:06Z</time>
      </trkpt>
      <trkpt lat="47.2367" lon="-0.00448">
        <ele>89</ele>
        <time>2011-08-28T08:27:10Z</time>
      </trkpt>
      <trkpt lat="47.23671" lon="-0.00456">
        <ele>89</ele>
        <time>2011-08-28T08:27:14Z</time>
      </trkpt>
      <trkpt lat="47.23672" lon="-0.00464">
        <ele>90</ele>
        <time>2011-08-28T08:27:18Z</time>
      </trkpt>
      <trkpt lat="47.23674" lon="-0.0047">
        <ele>90</ele>
        <time>2011-08-28T08:27:21Z</time>
      </trkpt>
      <trkpt lat="47.23675" lon="-0.00477">
        <ele>90</ele>
        <time>2011-08-28T08:27:24Z</time>
      </trkpt>
      <trkpt lat="47.23676" lon="-0.00484">
        <ele>90</ele>
        <time>2011-08-28T08:27:27Z</time>
      </trkpt>
      <trkpt lat="47.23677" lon="-0.0049">
        <ele>90</ele>
        <time>2011-08-28T08:27:30Z</time>
      </trkpt>
      <trkpt lat="47.23677" lon="-0.00499">
        <ele>90</ele>
        <time>2011-08-28T08:27:34Z</time>
      </trkpt>
      <trkpt lat="47.23677" lon="-0.00507">
        <ele>90</ele>
        <time>2011-08-28T08:27:38Z</time>
      </trkpt>
      <trkpt lat="47.23676" lon="-0.00514">
        <ele>90</ele>
        <time>2011-08-28T08:27:41Z</time>
      </trkpt>
      <trkpt lat="47.23676" lon="-0.00521">
        <ele>90</ele>
        <time>2011-08-28T08:27:44Z</time>
      </trkpt>
      <trkpt lat="47.23675" lon="-0.00529">
        <ele>90</ele>
        <time>2011-08-28T08:27:48Z</time>
      </trkpt>
      <trkpt lat="47.23674" lon="-0.00538">
        <ele>91</ele>
        <time>2011-08-28T08:27:52Z</time>
      </trkpt>
      <trkpt lat="47.23674" lon="-0.00546">
        <ele>91</ele>
        <time>2011-08-28T08:27:56Z</time>
      </trkpt>
      <trkpt lat="47.23673" lon="-0.00554">
        <ele>91</ele>
        <time>2011-08-28T08:28:00Z</time>
      </trkpt>
      <trkpt lat="47.23672" lon="-0.0056">
        <ele>91</ele>
        <time>2011-08-28T08:28:04Z</time>
      </trkpt>
      <trkpt lat="47.23671" lon="-0.00568">
        <ele>91</ele>
        <time>2011-08-28T08:28:09Z</time>
      </trkpt>
      <trkpt lat="47.23672" lon="-0.00575">
        <ele>91</ele>
        <time>2011-08-28T08:28:13Z</time>
      </trkpt>
      <trkpt lat="47.23673" lon="-0.00582">
        <ele>91</ele>
        <time>2011-08-28T08:28:17Z</time>
      </trkpt>
      <trkpt lat="47.23674" lon="-0.00589">
        <ele>91</ele>
        <time>2011-08-28T08:28:21Z</time>
      </trkpt>
      <trkpt lat="47.23675" lon="-0.00597">
        <ele>91</ele>
        <time>2011-08-28T08:28:25Z</time>
      </trkpt>
      <trkpt lat="47.23676" lon="-0.00605">
        <ele>91</ele>
        <time>2011-08-28T08:28:29Z</time>
      </trkpt>
      <trkpt lat="47.23677" lon="-0.00612">
        <ele>90</ele>
        <time>2011-08-28T08:28:33Z</time>
      </trkpt>
      <trkpt lat="47.23678" lon="-0.0062">
        <ele>90</ele>
        <time>2011-08-28T08:28:37Z</time>
      </trkpt>
      <trkpt lat="47.2368" lon="-0.00626">
        <ele>90</ele>
        <time>2011-08-28T08:28:41Z</time>
      </trkpt>
      <trkpt lat="47.23682" lon="-0.00633">
        <ele>90</ele>
        <time>2011-08-28T08:28:45Z</time>
      </trkpt>
      <trkpt lat="47.23682" lon="-0.0064">
        <ele>90</ele>
        <time>2011-08-28T08:28:49Z</time>
      </trkpt>
      <trkpt lat="47.23682" lon="-0.00648">
        <ele>90</ele>
        <time>2011-08-28T08:28:54Z</time>
      </trkpt>
      <trkpt lat="47.23681" lon="-0.00654">
        <ele>90</ele>
        <time>2011-08-28T08:28:58Z</time>
      </trkpt>
      <trkpt lat="47.23678" lon="-0.00661">
        <ele>90</ele>
        <time>2011-08-28T08:29:02Z</time>
      </trkpt>
      <trkpt lat="47.23674" lon="-0.00666">
        <ele>89</ele>
        <time>2011-08-28T08:29:06Z</time>
      </trkpt>
      <trkpt lat="47.23669" lon="-0.00669">
        <ele>89</ele>
        <time>2011-08-28T08:29:10Z</time>
      </trkpt>
      <trkpt lat="47.23664" lon="-0.00672">
        <ele>88</ele>
        <time>2011-08-28T08:29:15Z</time>
      </trkpt>
      <trkpt lat="47.23659" lon="-0.00674">
        <ele>88</ele>
        <time>2011-08-28T08:29:20Z</time>
      </trkpt>
      <trkpt lat="47.23654" lon="-0.00676">
        <ele>87</ele>
        <time>2011-08-28T08:29:25Z</time>
      </trkpt>
      <trkpt lat="47.23648" lon="-0.00675">
        <ele>87</ele>
        <time>2011-08-28T08:29:29Z</time>
      </trkpt>
      <trkpt lat="47.23644" lon="-0.00672">
        <ele>87</ele>
        <time>2011-08-28T08:29:33Z</time>
      </trkpt>
      <trkpt lat="47.23639" lon="-0.0067">
        <ele>86</ele>
        <time>2011-08-28T08:29:37Z</time>
      </trkpt>
      <trkpt lat="47.23634" lon="-0.00667">
        <ele>86</ele>
        <time>2011-08-28T08:29:41Z</time>
      </trkpt>
      <trkpt lat="47.23629" lon="-0.00666">
        <ele>86</ele>
        <time>2011-08-28T08:29:45Z</time>
      </trkpt>
      <trkpt lat="47.23625" lon="-0.0067">
        <ele>85</ele>
        <time>2011-08-28T08:29:51Z</time>
      </trkpt>
      <trkpt lat="47.23625" lon="-0.00678">
        <ele>85</ele>
        <time>2011-08-28T08:29:55Z</time>
      </trkpt>
      <trkpt lat="47.23628" lon="-0.00685">
        <ele>85</ele>
        <time>2011-08-28T08:29:59Z</time>
      </trkpt>
      <trkpt lat="47.2363" lon="-0.00692">
        <ele>85</ele>
        <time>2011-08-28T08:30:03Z</time>
      </trkpt>
      <trkpt lat="47.23633" lon="-0.00698">
        <ele>85</ele>
        <time>2011-08-28T08:30:07Z</time>
      </trkpt>
      <trkpt lat="47.23635" lon="-0.00704">
        <ele>85</ele>
        <time>2011-08-28T08:30:11Z</time>
      </trkpt>
      <trkpt lat="47.23637" lon="-0.00711">
        <ele>85</ele>
        <time>2011-08-28T08:30:15Z</time>
      </trkpt>
      <trkpt lat="47.2364" lon="-0.00718">
        <ele>85</ele>
        <time>2011-08-28T08:30:19Z</time>
      </trkpt>
      <trkpt lat="47.23642" lon="-0.00724">
        <ele>85</ele>
        <time>2011-08-28T08:30:23Z</time>
      </trkpt>
      <trkpt lat="47.23645" lon="-0.00732">
        <ele>85</ele>
        <time>2011-08-28T08:30:27Z</time>
      </trkpt>
      <trkpt lat="47.23647" lon="-0.00739">
        <ele>85</ele>
        <time>2011-08-28T08:30:31Z</time>
      </trkpt>
      <trkpt lat="47.23649" lon="-0.00746">
        <ele>85</ele>
        <time>2011-08-28T08:30:40Z</time>
      </trkpt>
      <trkpt lat="47.23647" lon="-0.00752">
        <ele>85</ele>
        <time>2011-08-28T08:31:32Z</time>
      </trkpt>
      <trkpt lat="47.23642" lon="-0.00753">
        <ele>85</ele>
        <time>2011-08-28T08:31:41Z</time>
      </trkpt>
      <trkpt lat="47.2364" lon="-0.00759">
        <ele>84</ele>
        <time>2011-08-28T08:32:23Z</time>
      </trkpt>
      <trkpt lat="47.23637" lon="-0.00764">
        <ele>84</ele>
        <time>2011-08-28T08:32:41Z</time>
      </trkpt>
      <trkpt lat="47.23633" lon="-0.00762">
        <ele>84</ele>
        <time>2011-08-28T08:33:23Z</time>
      </trkpt>
      <trkpt lat="47.23628" lon="-0.0076">
        <ele>84</ele>
        <time>2011-08-28T08:34:06Z</time>
      </trkpt>
      <trkpt lat="47.23633" lon="-0.0076">
        <ele>84</ele>
        <time>2011-08-28T08:34:44Z</time>
      </trkpt>
      <trkpt lat="47.23636" lon="-0.00755">
        <ele>84</ele>
        <time>2011-08-28T08:35:02Z</time>
      </trkpt>
      <trkpt lat="47.23636" lon="-0.00762">
        <ele>85</ele>
        <time>2011-08-28T08:36:56Z</time>
      </trkpt>
      <trkpt lat="47.23633" lon="-0.00767">
        <ele>86</ele>
        <time>2011-08-28T08:37:02Z</time>
      </trkpt>
      <trkpt lat="47.2363" lon="-0.00773">
        <ele>86</ele>
        <time>2011-08-28T08:37:08Z</time>
      </trkpt>
      <trkpt lat="47.23627" lon="-0.0078">
        <ele>85</ele>
        <time>2011-08-28T08:37:13Z</time>
      </trkpt>
      <trkpt lat="47.23624" lon="-0.00785">
        <ele>85</ele>
        <time>2011-08-28T08:37:18Z</time>
      </trkpt>
      <trkpt lat="47.2362" lon="-0.0079">
        <ele>85</ele>
        <time>2011-08-28T08:37:22Z</time>
      </trkpt>
      <trkpt lat="47.23616" lon="-0.00794">
        <ele>85</ele>
        <time>2011-08-28T08:37:27Z</time>
      </trkpt>
      <trkpt lat="47.23615" lon="-0.00801">
        <ele>85</ele>
        <time>2011-08-28T08:37:34Z</time>
      </trkpt>
      <trkpt lat="47.23618" lon="-0.00807">
        <ele>85</ele>
        <time>2011-08-28T08:37:40Z</time>
      </trkpt>
      <trkpt lat="47.2362" lon="-0.00813">
        <ele>85</ele>
        <time>2011-08-28T08:37:45Z</time>
      </trkpt>
      <trkpt lat="47.23624" lon="-0.00818">
        <ele>85</ele>
        <time>2011-08-28T08:37:50Z</time>
      </trkpt>
      <trkpt lat="47.23628" lon="-0.00824">
        <ele>85</ele>
        <time>2011-08-28T08:37:55Z</time>
      </trkpt>
      <trkpt lat="47.23632" lon="-0.00828">
        <ele>85</ele>
        <time>2011-08-28T08:37:59Z</time>
      </trkpt>
      <trkpt lat="47.23635" lon="-0.00833">
        <ele>85</ele>
        <time>2011-08-28T08:38:03Z</time>
      </trkpt>
      <trkpt lat="47.23638" lon="-0.00838">
        <ele>85</ele>
        <time>2011-08-28T08:38:07Z</time>
      </trkpt>
      <trkpt lat="47.23641" lon="-0.00842">
        <ele>85</ele>
        <time>2011-08-28T08:38:11Z</time>
      </trkpt>
      <trkpt lat="47.23645" lon="-0.00848">
        <ele>85</ele>
        <time>2011-08-28T08:38:16Z</time>
      </trkpt>
      <trkpt lat="47.23649" lon="-0.00852">
        <ele>85</ele>
        <time>2011-08-28T08:38:20Z</time>
      </trkpt>
      <trkpt lat="47.23652" lon="-0.00858">
        <ele>86</ele>
        <time>2011-08-28T08:38:24Z</time>
      </trkpt>
      <trkpt lat="47.23654" lon="-0.00863">
        <ele>86</ele>
        <time>2011-08-28T08:38:28Z</time>
      </trkpt>
      <trkpt lat="47.23658" lon="-0.00869">
        <ele>86</ele>
        <time>2011-08-28T08:38:33Z</time>
      </trkpt>
      <trkpt lat="47.23662" lon="-0.00873">
        <ele>86</ele>
        <time>2011-08-28T08:38:37Z</time>
      </trkpt>
      <trkpt lat="47.23666" lon="-0.00876">
        <ele>86</ele>
        <time>2011-08-28T08:38:41Z</time>
      </trkpt>
      <trkpt lat="47.2367" lon="-0.0088">
        <ele>86</ele>
        <time>2011-08-28T08:38:46Z</time>
      </trkpt>
      <trkpt lat="47.23674" lon="-0.00885">
        <ele>86</ele>
        <time>2011-08-28T08:38:51Z</time>
      </trkpt>
      <trkpt lat="47.23678" lon="-0.0089">
        <ele>86</ele>
        <time>2011-08-28T08:38:56Z</time>
      </trkpt>
      <trkpt lat="47.23678" lon="-0.00896">
        <ele>86</ele>
        <time>2011-08-28T08:39:01Z</time>
      </trkpt>
      <trkpt lat="47.23676" lon="-0.00902">
        <ele>86</ele>
        <time>2011-08-28T08:39:05Z</time>
      </trkpt>
      <trkpt lat="47.23672" lon="-0.00908">
        <ele>86</ele>
        <time>2011-08-28T08:39:09Z</time>
      </trkpt>
      <trkpt lat="47.23668" lon="-0.00911">
        <ele>86</ele>
        <time>2011-08-28T08:39:12Z</time>
      </trkpt>
      <trkpt lat="47.23664" lon="-0.00914">
        <ele>86</ele>
        <time>2011-08-28T08:39:15Z</time>
      </trkpt>
      <trkpt lat="47.2366" lon="-0.00918">
        <ele>86</ele>
        <time>2011-08-28T08:39:19Z</time>
      </trkpt>
      <trkpt lat="47.23656" lon="-0.00922">
        <ele>86</ele>
        <time>2011-08-28T08:39:23Z</time>
      </trkpt>
      <trkpt lat="47.23652" lon="-0.00925">
        <ele>86</ele>
        <time>2011-08-28T08:39:27Z</time>
      </trkpt>
      <trkpt lat="47.23648" lon="-0.0093">
        <ele>86</ele>
        <time>2011-08-28T08:39:31Z</time>
      </trkpt>
      <trkpt lat="47.23645" lon="-0.00936">
        <ele>86</ele>
        <time>2011-08-28T08:39:35Z</time>
      </trkpt>
      <trkpt lat="47.23642" lon="-0.00943">
        <ele>86</ele>
        <time>2011-08-28T08:39:39Z</time>
      </trkpt>
      <trkpt lat="47.23638" lon="-0.00948">
        <ele>86</ele>
        <time>2011-08-28T08:39:44Z</time>
      </trkpt>
      <trkpt lat="47.23634" lon="-0.00951">
        <ele>87</ele>
        <time>2011-08-28T08:39:48Z</time>
      </trkpt>
      <trkpt lat="47.23629" lon="-0.00955">
        <ele>87</ele>
        <time>2011-08-28T08:39:52Z</time>
      </trkpt>
      <trkpt lat="47.23625" lon="-0.00959">
        <ele>87</ele>
        <time>2011-08-28T08:39:56Z</time>
      </trkpt>
      <trkpt lat="47.2362" lon="-0.00962">
        <ele>87</ele>
        <time>2011-08-28T08:40:00Z</time>
      </trkpt>
      <trkpt lat="47.23617" lon="-0.00967">
        <ele>87</ele>
        <time>2011-08-28T08:40:06Z</time>
      </trkpt>
      <trkpt lat="47.2362" lon="-0.00973">
        <ele>87</ele>
        <time>2011-08-28T08:40:12Z</time>
      </trkpt>
      <trkpt lat="47.23623" lon="-0.00979">
        <ele>88</ele>
        <time>2011-08-28T08:40:17Z</time>
      </trkpt>
      <trkpt lat="47.23626" lon="-0.00985">
        <ele>88</ele>
        <time>2011-08-28T08:40:22Z</time>
      </trkpt>
      <trkpt lat="47.2363" lon="-0.00991">
        <ele>88</ele>
        <time>2011-08-28T08:40:27Z</time>
      </trkpt>
      <trkpt lat="47.23632" lon="-0.00996">
        <ele>88</ele>
        <time>2011-08-28T08:40:32Z</time>
      </trkpt>
      <trkpt lat="47.23635" lon="-0.01002">
        <ele>88</ele>
        <time>2011-08-28T08:40:37Z</time>
      </trkpt>
      <trkpt lat="47.23638" lon="-0.01007">
        <ele>88</ele>
        <time>2011-08-28T08:40:42Z</time>
      </trkpt>
      <trkpt lat="47.23641" lon="-0.01014">
        <ele>88</ele>
        <time>2011-08-28T08:40:48Z</time>
      </trkpt>
      <trkpt lat="47.23674" lon="-0.01002">
        <ele>88</ele>
        <time>2011-08-28T08:43:55Z</time>
      </trkpt>
      <trkpt lat="47.23674" lon="-0.01002">
        <ele>88</ele>
        <time>2011-08-28T08:43:55Z</time>
      </trkpt>
      <trkpt lat="47.23674" lon="-0.01002">
        <ele>88</ele>
        <time>2011-08-28T08:43:59Z</time>
      </trkpt>
      <trkpt lat="47.2368" lon="-0.0101">
        <ele>88</ele>
        <time>2011-08-28T08:44:00Z</time>
      </trkpt>
      <trkpt lat="47.2368" lon="-0.01018">
        <ele>88</ele>
        <time>2011-08-28T08:44:01Z</time>
      </trkpt>
      <trkpt lat="47.23677" lon="-0.01024">
        <ele>88</ele>
        <time>2011-08-28T08:44:04Z</time>
      </trkpt>
      <trkpt lat="47.23682" lon="-0.01022">
        <ele>88</ele>
        <time>2011-08-28T08:44:22Z</time>
      </trkpt>
      <trkpt lat="47.23686" lon="-0.01023">
        <ele>88</ele>
        <time>2011-08-28T08:44:33Z</time>
      </trkpt>
      <trkpt lat="47.23691" lon="-0.01024">
        <ele>88</ele>
        <time>2011-08-28T08:44:40Z</time>
      </trkpt>
      <trkpt lat="47.23696" lon="-0.01024">
        <ele>88</ele>
        <time>2011-08-28T08:44:49Z</time>
      </trkpt>
      <trkpt lat="47.237" lon="-0.01024">
        <ele>88</ele>
        <time>2011-08-28T08:45:00Z</time>
      </trkpt>
      <trkpt lat="47.23692" lon="-0.00993">
        <ele>88</ele>
        <time>2011-08-28T08:45:31Z</time>
      </trkpt>
      <trkpt lat="47.23692" lon="-0.00993">
        <ele>88</ele>
        <time>2011-08-28T08:45:31Z</time>
      </trkpt>
      <trkpt lat="47.23692" lon="-0.00993">
        <ele>88</ele>
        <time>2011-08-28T08:45:35Z</time>
      </trkpt>
      <trkpt lat="47.23709" lon="-0.0099">
        <ele>88</ele>
        <time>2011-08-28T08:45:44Z</time>
      </trkpt>
      <trkpt lat="47.23714" lon="-0.00989">
        <ele>88</ele>
        <time>2011-08-28T08:45:45Z</time>
      </trkpt>
      <trkpt lat="47.23724" lon="-0.00995">
        <ele>88</ele>
        <time>2011-08-28T08:45:46Z</time>
      </trkpt>
      <trkpt lat="47.2373" lon="-0.00999">
        <ele>88</ele>
        <time>2011-08-28T08:45:47Z</time>
      </trkpt>
      <trkpt lat="47.23734" lon="-0.01005">
        <ele>88</ele>
        <time>2011-08-28T08:45:50Z</time>
      </trkpt>
      <trkpt lat="47.23736" lon="-0.01011">
        <ele>87</ele>
        <time>2011-08-28T08:45:53Z</time>
      </trkpt>
      <trkpt lat="47.23737" lon="-0.01018">
        <ele>87</ele>
        <time>2011-08-28T08:45:58Z</time>
      </trkpt>
      <trkpt lat="47.2374" lon="-0.01024">
        <ele>87</ele>
        <time>2011-08-28T08:46:03Z</time>
      </trkpt>
      <trkpt lat="47.23743" lon="-0.01029">
        <ele>87</ele>
        <time>2011-08-28T08:46:08Z</time>
      </trkpt>
      <trkpt lat="47.23747" lon="-0.01035">
        <ele>87</ele>
        <time>2011-08-28T08:46:13Z</time>
      </trkpt>
      <trkpt lat="47.2375" lon="-0.01039">
        <ele>87</ele>
        <time>2011-08-28T08:46:17Z</time>
      </trkpt>
      <trkpt lat="47.23754" lon="-0.01044">
        <ele>87</ele>
        <time>2011-08-28T08:46:22Z</time>
      </trkpt>
      <trkpt lat="47.23758" lon="-0.01049">
        <ele>87</ele>
        <time>2011-08-28T08:46:28Z</time>
      </trkpt>
      <trkpt lat="47.23761" lon="-0.01054">
        <ele>87</ele>
        <time>2011-08-28T08:46:34Z</time>
      </trkpt>
      <trkpt lat="47.23765" lon="-0.01059">
        <ele>87</ele>
        <time>2011-08-28T08:46:40Z</time>
      </trkpt>
      <trkpt lat="47.23768" lon="-0.01065">
        <ele>88</ele>
        <time>2011-08-28T08:46:46Z</time>
      </trkpt>
      <trkpt lat="47.23771" lon="-0.01071">
        <ele>88</ele>
        <time>2011-08-28T08:46:51Z</time>
      </trkpt>
      <trkpt lat="47.23773" lon="-0.01077">
        <ele>88</ele>
        <time>2011-08-28T08:46:56Z</time>
      </trkpt>
      <trkpt lat="47.23777" lon="-0.01081">
        <ele>88</ele>
        <time>2011-08-28T08:47:01Z</time>
      </trkpt>
      <trkpt lat="47.2378" lon="-0.01085">
        <ele>88</ele>
        <time>2011-08-28T08:47:06Z</time>
      </trkpt>
      <trkpt lat="47.23785" lon="-0.0108">
        <ele>88</ele>
        <time>2011-08-28T08:47:11Z</time>
      </trkpt>
      <trkpt lat="47.23789" lon="-0.01084">
        <ele>87</ele>
        <time>2011-08-28T08:47:20Z</time>
      </trkpt>
      <trkpt lat="47.2379" lon="-0.01091">
        <ele>87</ele>
        <time>2011-08-28T08:47:26Z</time>
      </trkpt>
      <trkpt lat="47.2379" lon="-0.01098">
        <ele>87</ele>
        <time>2011-08-28T08:47:31Z</time>
      </trkpt>
      <trkpt lat="47.23791" lon="-0.01105">
        <ele>87</ele>
        <time>2011-08-28T08:47:36Z</time>
      </trkpt>
      <trkpt lat="47.23792" lon="-0.01112">
        <ele>87</ele>
        <time>2011-08-28T08:47:41Z</time>
      </trkpt>
      <trkpt lat="47.23795" lon="-0.01118">
        <ele>87</ele>
        <time>2011-08-28T08:47:46Z</time>
      </trkpt>
      <trkpt lat="47.23796" lon="-0.01124">
        <ele>87</ele>
        <time>2011-08-28T08:47:50Z</time>
      </trkpt>
      <trkpt lat="47.23798" lon="-0.01131">
        <ele>87</ele>
        <time>2011-08-28T08:47:54Z</time>
      </trkpt>
      <trkpt lat="47.23799" lon="-0.01138">
        <ele>87</ele>
        <time>2011-08-28T08:47:58Z</time>
      </trkpt>
      <trkpt lat="47.23799" lon="-0.01145">
        <ele>87</ele>
        <time>2011-08-28T08:48:02Z</time>
      </trkpt>
      <trkpt lat="47.23799" lon="-0.01152">
        <ele>87</ele>
        <time>2011-08-28T08:48:07Z</time>
      </trkpt>
      <trkpt lat="47.23801" lon="-0.01159">
        <ele>87</ele>
        <time>2011-08-28T08:48:14Z</time>
      </trkpt>
      <trkpt lat="47.23802" lon="-0.01166">
        <ele>87</ele>
        <time>2011-08-28T08:48:21Z</time>
      </trkpt>
      <trkpt lat="47.23804" lon="-0.01173">
        <ele>87</ele>
        <time>2011-08-28T08:48:28Z</time>
      </trkpt>
      <trkpt lat="47.23807" lon="-0.01179">
        <ele>87</ele>
        <time>2011-08-28T08:48:33Z</time>
      </trkpt>
      <trkpt lat="47.23809" lon="-0.01187">
        <ele>87</ele>
        <time>2011-08-28T08:48:37Z</time>
      </trkpt>
      <trkpt lat="47.23811" lon="-0.01195">
        <ele>87</ele>
        <time>2011-08-28T08:48:41Z</time>
      </trkpt>
      <trkpt lat="47.23814" lon="-0.01202">
        <ele>88</ele>
        <time>2011-08-28T08:48:45Z</time>
      </trkpt>
      <trkpt lat="47.23816" lon="-0.01208">
        <ele>88</ele>
        <time>2011-08-28T08:48:49Z</time>
      </trkpt>
      <trkpt lat="47.23818" lon="-0.01215">
        <ele>88</ele>
        <time>2011-08-28T08:48:53Z</time>
      </trkpt>
      <trkpt lat="47.2382" lon="-0.01222">
        <ele>88</ele>
        <time>2011-08-28T08:48:57Z</time>
      </trkpt>
      <trkpt lat="47.23821" lon="-0.01228">
        <ele>88</ele>
        <time>2011-08-28T08:49:01Z</time>
      </trkpt>
      <trkpt lat="47.23823" lon="-0.01234">
        <ele>88</ele>
        <time>2011-08-28T08:49:05Z</time>
      </trkpt>
      <trkpt lat="47.23825" lon="-0.01241">
        <ele>88</ele>
        <time>2011-08-28T08:49:09Z</time>
      </trkpt>
      <trkpt lat="47.23826" lon="-0.01248">
        <ele>88</ele>
        <time>2011-08-28T08:49:13Z</time>
      </trkpt>
      <trkpt lat="47.23828" lon="-0.01254">
        <ele>88</ele>
        <time>2011-08-28T08:49:17Z</time>
      </trkpt>
      <trkpt lat="47.23831" lon="-0.0126">
        <ele>88</ele>
        <time>2011-08-28T08:49:21Z</time>
      </trkpt>
      <trkpt lat="47.23834" lon="-0.01265">
        <ele>88</ele>
        <time>2011-08-28T08:49:25Z</time>
      </trkpt>
      <trkpt lat="47.23836" lon="-0.01271">
        <ele>88</ele>
        <time>2011-08-28T08:49:30Z</time>
      </trkpt>
      <trkpt lat="47.23837" lon="-0.01278">
        <ele>88</ele>
        <time>2011-08-28T08:49:35Z</time>
      </trkpt>
      <trkpt lat="47.23839" lon="-0.01285">
        <ele>88</ele>
        <time>2011-08-28T08:49:40Z</time>
      </trkpt>
      <trkpt lat="47.23841" lon="-0.01292">
        <ele>88</ele>
        <time>2011-08-28T08:49:45Z</time>
      </trkpt>
      <trkpt lat="47.23842" lon="-0.01299">
        <ele>88</ele>
        <time>2011-08-28T08:49:49Z</time>
      </trkpt>
      <trkpt lat="47.23843" lon="-0.01306">
        <ele>88</ele>
        <time>2011-08-28T08:49:53Z</time>
      </trkpt>
      <trkpt lat="47.23844" lon="-0.01314">
        <ele>89</ele>
        <time>2011-08-28T08:49:57Z</time>
      </trkpt>
      <trkpt lat="47.23845" lon="-0.01322">
        <ele>89</ele>
        <time>2011-08-28T08:50:01Z</time>
      </trkpt>
      <trkpt lat="47.23845" lon="-0.0133">
        <ele>89</ele>
        <time>2011-08-28T08:50:05Z</time>
      </trkpt>
      <trkpt lat="47.23845" lon="-0.01337">
        <ele>89</ele>
        <time>2011-08-28T08:50:09Z</time>
      </trkpt>
      <trkpt lat="47.23846" lon="-0.01345">
        <ele>89</ele>
        <time>2011-08-28T08:50:13Z</time>
      </trkpt>
      <trkpt lat="47.23847" lon="-0.01352">
        <ele>89</ele>
        <time>2011-08-28T08:50:17Z</time>
      </trkpt>
      <trkpt lat="47.2385" lon="-0.01359">
        <ele>89</ele>
        <time>2011-08-28T08:50:21Z</time>
      </trkpt>
      <trkpt lat="47.23851" lon="-0.01365">
        <ele>90</ele>
        <time>2011-08-28T08:50:25Z</time>
      </trkpt>
      <trkpt lat="47.23853" lon="-0.01371">
        <ele>90</ele>
        <time>2011-08-28T08:50:29Z</time>
      </trkpt>
      <trkpt lat="47.23855" lon="-0.01378">
        <ele>90</ele>
        <time>2011-08-28T08:50:33Z</time>
      </trkpt>
      <trkpt lat="47.23857" lon="-0.01383">
        <ele>90</ele>
        <time>2011-08-28T08:50:37Z</time>
      </trkpt>
      <trkpt lat="47.23859" lon="-0.0139">
        <ele>90</ele>
        <time>2011-08-28T08:50:41Z</time>
      </trkpt>
      <trkpt lat="47.2386" lon="-0.01396">
        <ele>90</ele>
        <time>2011-08-28T08:50:45Z</time>
      </trkpt>
      <trkpt lat="47.23862" lon="-0.01403">
        <ele>90</ele>
        <time>2011-08-28T08:50:50Z</time>
      </trkpt>
      <trkpt lat="47.23865" lon="-0.0141">
        <ele>90</ele>
        <time>2011-08-28T08:50:55Z</time>
      </trkpt>
      <trkpt lat="47.23867" lon="-0.01417">
        <ele>90</ele>
        <time>2011-08-28T08:51:00Z</time>
      </trkpt>
      <trkpt lat="47.23869" lon="-0.01424">
        <ele>90</ele>
        <time>2011-08-28T08:51:05Z</time>
      </trkpt>
      <trkpt lat="47.2387" lon="-0.0143">
        <ele>90</ele>
        <time>2011-08-28T08:51:10Z</time>
      </trkpt>
      <trkpt lat="47.23872" lon="-0.01438">
        <ele>90</ele>
        <time>2011-08-28T08:51:16Z</time>
      </trkpt>
      <trkpt lat="47.23874" lon="-0.01444">
        <ele>90</ele>
        <time>2011-08-28T08:51:24Z</time>
      </trkpt>
      <trkpt lat="47.23878" lon="-0.01442">
        <ele>90</ele>
        <time>2011-08-28T08:51:34Z</time>
      </trkpt>
      <trkpt lat="47.23876" lon="-0.01436">
        <ele>90</ele>
        <time>2011-08-28T08:51:39Z</time>
      </trkpt>
      <trkpt lat="47.23873" lon="-0.01427">
        <ele>90</ele>
        <time>2011-08-28T08:51:41Z</time>
      </trkpt>
      <trkpt lat="47.2387" lon="-0.01419">
        <ele>90</ele>
        <time>2011-08-28T08:51:43Z</time>
      </trkpt>
      <trkpt lat="47.23867" lon="-0.01413">
        <ele>90</ele>
        <time>2011-08-28T08:51:46Z</time>
      </trkpt>
      <trkpt lat="47.23864" lon="-0.01407">
        <ele>90</ele>
        <time>2011-08-28T08:51:52Z</time>
      </trkpt>
      <trkpt lat="47.23861" lon="-0.01402">
        <ele>90</ele>
        <time>2011-08-28T08:52:02Z</time>
      </trkpt>
      <trkpt lat="47.23857" lon="-0.01398">
        <ele>90</ele>
        <time>2011-08-28T08:52:33Z</time>
      </trkpt>
      <trkpt lat="47.23778" lon="-0.01446">
        <ele>90</ele>
        <time>2011-08-28T08:53:24Z</time>
      </trkpt>
      <trkpt lat="47.23782" lon="-0.01431">
        <ele>90</ele>
        <time>2011-08-28T08:53:25Z</time>
      </trkpt>
      <trkpt lat="47.23782" lon="-0.01431">
        <ele>90</ele>
        <time>2011-08-28T08:53:25Z</time>
      </trkpt>
      <trkpt lat="47.23782" lon="-0.01431">
        <ele>90</ele>
        <time>2011-08-28T08:53:28Z</time>
      </trkpt>
      <trkpt lat="47.23787" lon="-0.01431">
        <ele>90</ele>
        <time>2011-08-28T08:53:29Z</time>
      </trkpt>
      <trkpt lat="47.23781" lon="-0.0144">
        <ele>90</ele>
        <time>2011-08-28T08:53:30Z</time>
      </trkpt>
      <trkpt lat="47.23784" lon="-0.01446">
        <ele>90</ele>
        <time>2011-08-28T08:53:33Z</time>
      </trkpt>
      <trkpt lat="47.23787" lon="-0.01451">
        <ele>91</ele>
        <time>2011-08-28T08:53:40Z</time>
      </trkpt>
      <trkpt lat="47.23788" lon="-0.01458">
        <ele>91</ele>
        <time>2011-08-28T08:53:55Z</time>
      </trkpt>
      <trkpt lat="47.23786" lon="-0.01465">
        <ele>91</ele>
        <time>2011-08-28T08:54:00Z</time>
      </trkpt>
      <trkpt lat="47.23784" lon="-0.01471">
        <ele>91</ele>
        <time>2011-08-28T08:54:06Z</time>
      </trkpt>
      <trkpt lat="47.23782" lon="-0.01477">
        <ele>91</ele>
        <time>2011-08-28T08:54:12Z</time>
      </trkpt>
      <trkpt lat="47.23777" lon="-0.0148">
        <ele>91</ele>
        <time>2011-08-28T08:54:17Z</time>
      </trkpt>
      <trkpt lat="47.23771" lon="-0.01478">
        <ele>92</ele>
        <time>2011-08-28T08:54:21Z</time>
      </trkpt>
      <trkpt lat="47.23766" lon="-0.01479">
        <ele>92</ele>
        <time>2011-08-28T08:54:26Z</time>
      </trkpt>
      <trkpt lat="47.23761" lon="-0.0148">
        <ele>92</ele>
        <time>2011-08-28T08:54:31Z</time>
      </trkpt>
      <trkpt lat="47.23755" lon="-0.0148">
        <ele>92</ele>
        <time>2011-08-28T08:54:36Z</time>
      </trkpt>
      <trkpt lat="47.2375" lon="-0.01482">
        <ele>93</ele>
        <time>2011-08-28T08:54:41Z</time>
      </trkpt>
      <trkpt lat="47.23746" lon="-0.01484">
        <ele>93</ele>
        <time>2011-08-28T08:54:47Z</time>
      </trkpt>
      <trkpt lat="47.23741" lon="-0.01484">
        <ele>94</ele>
        <time>2011-08-28T08:54:59Z</time>
      </trkpt>
      <trkpt lat="47.23738" lon="-0.01477">
        <ele>94</ele>
        <time>2011-08-28T08:55:04Z</time>
      </trkpt>
      <trkpt lat="47.23737" lon="-0.0147">
        <ele>94</ele>
        <time>2011-08-28T08:55:09Z</time>
      </trkpt>
      <trkpt lat="47.23736" lon="-0.01463">
        <ele>94</ele>
        <time>2011-08-28T08:55:13Z</time>
      </trkpt>
      <trkpt lat="47.23733" lon="-0.01457">
        <ele>95</ele>
        <time>2011-08-28T08:55:18Z</time>
      </trkpt>
      <trkpt lat="47.2373" lon="-0.01449">
        <ele>95</ele>
        <time>2011-08-28T08:55:23Z</time>
      </trkpt>
      <trkpt lat="47.23728" lon="-0.01443">
        <ele>95</ele>
        <time>2011-08-28T08:55:27Z</time>
      </trkpt>
      <trkpt lat="47.23726" lon="-0.01436">
        <ele>95</ele>
        <time>2011-08-28T08:55:31Z</time>
      </trkpt>
      <trkpt lat="47.23723" lon="-0.0143">
        <ele>96</ele>
        <time>2011-08-28T08:55:36Z</time>
      </trkpt>
      <trkpt lat="47.23719" lon="-0.01424">
        <ele>96</ele>
        <time>2011-08-28T08:55:41Z</time>
      </trkpt>
      <trkpt lat="47.23715" lon="-0.01424">
        <ele>97</ele>
        <time>2011-08-28T08:55:46Z</time>
      </trkpt>
      <trkpt lat="47.2371" lon="-0.01427">
        <ele>97</ele>
        <time>2011-08-28T08:55:58Z</time>
      </trkpt>
      <trkpt lat="47.23706" lon="-0.01424">
        <ele>97</ele>
        <time>2011-08-28T08:56:23Z</time>
      </trkpt>
      <trkpt lat="47.23704" lon="-0.01418">
        <ele>98</ele>
        <time>2011-08-28T08:57:33Z</time>
      </trkpt>
      <trkpt lat="47.237" lon="-0.01413">
        <ele>98</ele>
        <time>2011-08-28T08:57:37Z</time>
      </trkpt>
      <trkpt lat="47.23697" lon="-0.01408">
        <ele>99</ele>
        <time>2011-08-28T08:57:41Z</time>
      </trkpt>
      <trkpt lat="47.23695" lon="-0.01402">
        <ele>99</ele>
        <time>2011-08-28T08:57:45Z</time>
      </trkpt>
      <trkpt lat="47.23692" lon="-0.01396">
        <ele>99</ele>
        <time>2011-08-28T08:57:49Z</time>
      </trkpt>
      <trkpt lat="47.2369" lon="-0.0139">
        <ele>99</ele>
        <time>2011-08-28T08:57:53Z</time>
      </trkpt>
      <trkpt lat="47.23687" lon="-0.01384">
        <ele>99</ele>
        <time>2011-08-28T08:57:57Z</time>
      </trkpt>
      <trkpt lat="47.23684" lon="-0.01378">
        <ele>99</ele>
        <time>2011-08-28T08:58:01Z</time>
      </trkpt>
      <trkpt lat="47.23681" lon="-0.01372">
        <ele>100</ele>
        <time>2011-08-28T08:58:05Z</time>
      </trkpt>
      <trkpt lat="47.23678" lon="-0.01366">
        <ele>100</ele>
        <time>2011-08-28T08:58:09Z</time>
      </trkpt>
      <trkpt lat="47.23675" lon="-0.01359">
        <ele>100</ele>
        <time>2011-08-28T08:58:13Z</time>
      </trkpt>
      <trkpt lat="47.23672" lon="-0.01352">
        <ele>100</ele>
        <time>2011-08-28T08:58:17Z</time>
      </trkpt>
      <trkpt lat="47.23669" lon="-0.01345">
        <ele>100</ele>
        <time>2011-08-28T08:58:21Z</time>
      </trkpt>
      <trkpt lat="47.23666" lon="-0.01339">
        <ele>100</ele>
        <time>2011-08-28T08:58:25Z</time>
      </trkpt>
      <trkpt lat="47.23664" lon="-0.01333">
        <ele>100</ele>
        <time>2011-08-28T08:58:29Z</time>
      </trkpt>
      <trkpt lat="47.2366" lon="-0.01327">
        <ele>100</ele>
        <time>2011-08-28T08:58:33Z</time>
      </trkpt>
      <trkpt lat="47.23658" lon="-0.01322">
        <ele>101</ele>
        <time>2011-08-28T08:58:37Z</time>
      </trkpt>
      <trkpt lat="47.23654" lon="-0.01315">
        <ele>101</ele>
        <time>2011-08-28T08:58:42Z</time>
      </trkpt>
      <trkpt lat="47.23652" lon="-0.01308">
        <ele>101</ele>
        <time>2011-08-28T08:58:47Z</time>
      </trkpt>
      <trkpt lat="47.23648" lon="-0.01302">
        <ele>101</ele>
        <time>2011-08-28T08:58:52Z</time>
      </trkpt>
      <trkpt lat="47.23645" lon="-0.01295">
        <ele>101</ele>
        <time>2011-08-28T08:58:57Z</time>
      </trkpt>
      <trkpt lat="47.23642" lon="-0.0129">
        <ele>101</ele>
        <time>2011-08-28T08:59:02Z</time>
      </trkpt>
      <trkpt lat="47.23639" lon="-0.01284">
        <ele>101</ele>
        <time>2011-08-28T08:59:07Z</time>
      </trkpt>
      <trkpt lat="47.23636" lon="-0.01277">
        <ele>101</ele>
        <time>2011-08-28T08:59:12Z</time>
      </trkpt>
      <trkpt lat="47.23633" lon="-0.01271">
        <ele>101</ele>
        <time>2011-08-28T08:59:16Z</time>
      </trkpt>
      <trkpt lat="47.2363" lon="-0.01265">
        <ele>101</ele>
        <time>2011-08-28T08:59:20Z</time>
      </trkpt>
      <trkpt lat="47.23627" lon="-0.0126">
        <ele>101</ele>
        <time>2011-08-28T08:59:24Z</time>
      </trkpt>
      <trkpt lat="47.23624" lon="-0.01254">
        <ele>101</ele>
        <time>2011-08-28T08:59:28Z</time>
      </trkpt>
      <trkpt lat="47.2362" lon="-0.01248">
        <ele>101</ele>
        <time>2011-08-28T08:59:32Z</time>
      </trkpt>
      <trkpt lat="47.23616" lon="-0.01243">
        <ele>101</ele>
        <time>2011-08-28T08:59:36Z</time>
      </trkpt>
      <trkpt lat="47.23613" lon="-0.01238">
        <ele>101</ele>
        <time>2011-08-28T08:59:40Z</time>
      </trkpt>
      <trkpt lat="47.2361" lon="-0.01233">
        <ele>101</ele>
        <time>2011-08-28T08:59:44Z</time>
      </trkpt>
      <trkpt lat="47.23606" lon="-0.01226">
        <ele>101</ele>
        <time>2011-08-28T08:59:49Z</time>
      </trkpt>
      <trkpt lat="47.23603" lon="-0.0122">
        <ele>101</ele>
        <time>2011-08-28T08:59:54Z</time>
      </trkpt>
      <trkpt lat="47.236" lon="-0.01214">
        <ele>101</ele>
        <time>2011-08-28T08:59:58Z</time>
      </trkpt>
      <trkpt lat="47.23597" lon="-0.01209">
        <ele>101</ele>
        <time>2011-08-28T09:00:02Z</time>
      </trkpt>
      <trkpt lat="47.23594" lon="-0.01204">
        <ele>101</ele>
        <time>2011-08-28T09:00:06Z</time>
      </trkpt>
      <trkpt lat="47.23591" lon="-0.01198">
        <ele>101</ele>
        <time>2011-08-28T09:00:10Z</time>
      </trkpt>
      <trkpt lat="47.23588" lon="-0.01192">
        <ele>101</ele>
        <time>2011-08-28T09:00:14Z</time>
      </trkpt>
      <trkpt lat="47.23585" lon="-0.01185">
        <ele>101</ele>
        <time>2011-08-28T09:00:18Z</time>
      </trkpt>
      <trkpt lat="47.23582" lon="-0.01178">
        <ele>101</ele>
        <time>2011-08-28T09:00:22Z</time>
      </trkpt>
      <trkpt lat="47.23579" lon="-0.01172">
        <ele>101</ele>
        <time>2011-08-28T09:00:26Z</time>
      </trkpt>
      <trkpt lat="47.23577" lon="-0.01165">
        <ele>101</ele>
        <time>2011-08-28T09:00:30Z</time>
      </trkpt>
      <trkpt lat="47.23576" lon="-0.01158">
        <ele>101</ele>
        <time>2011-08-28T09:00:34Z</time>
      </trkpt>
      <trkpt lat="47.23574" lon="-0.01152">
        <ele>100</ele>
        <time>2011-08-28T09:00:38Z</time>
      </trkpt>
      <trkpt lat="47.23573" lon="-0.01145">
        <ele>100</ele>
        <time>2011-08-28T09:00:42Z</time>
      </trkpt>
      <trkpt lat="47.2357" lon="-0.01138">
        <ele>100</ele>
        <time>2011-08-28T09:00:47Z</time>
      </trkpt>
      <trkpt lat="47.23566" lon="-0.01133">
        <ele>100</ele>
        <time>2011-08-28T09:00:51Z</time>
      </trkpt>
      <trkpt lat="47.23562" lon="-0.01128">
        <ele>100</ele>
        <time>2011-08-28T09:00:55Z</time>
      </trkpt>
      <trkpt lat="47.23559" lon="-0.01123">
        <ele>100</ele>
        <time>2011-08-28T09:00:59Z</time>
      </trkpt>
      <trkpt lat="47.23555" lon="-0.01119">
        <ele>100</ele>
        <time>2011-08-28T09:01:03Z</time>
      </trkpt>
      <trkpt lat="47.23551" lon="-0.01114">
        <ele>100</ele>
        <time>2011-08-28T09:01:07Z</time>
      </trkpt>
      <trkpt lat="47.23548" lon="-0.0111">
        <ele>100</ele>
        <time>2011-08-28T09:01:11Z</time>
      </trkpt>
      <trkpt lat="47.23544" lon="-0.01106">
        <ele>100</ele>
        <time>2011-08-28T09:01:15Z</time>
      </trkpt>
      <trkpt lat="47.2354" lon="-0.01101">
        <ele>100</ele>
        <time>2011-08-28T09:01:19Z</time>
      </trkpt>
      <trkpt lat="47.23537" lon="-0.01096">
        <ele>99</ele>
        <time>2011-08-28T09:01:23Z</time>
      </trkpt>
      <trkpt lat="47.23533" lon="-0.0109">
        <ele>99</ele>
        <time>2011-08-28T09:01:27Z</time>
      </trkpt>
      <trkpt lat="47.2353" lon="-0.01084">
        <ele>99</ele>
        <time>2011-08-28T09:01:31Z</time>
      </trkpt>
      <trkpt lat="47.23527" lon="-0.01078">
        <ele>99</ele>
        <time>2011-08-28T09:01:35Z</time>
      </trkpt>
      <trkpt lat="47.23525" lon="-0.01071">
        <ele>98</ele>
        <time>2011-08-28T09:01:39Z</time>
      </trkpt>
      <trkpt lat="47.23522" lon="-0.01065">
        <ele>98</ele>
        <time>2011-08-28T09:01:43Z</time>
      </trkpt>
      <trkpt lat="47.23519" lon="-0.01059">
        <ele>98</ele>
        <time>2011-08-28T09:01:47Z</time>
      </trkpt>
      <trkpt lat="47.23515" lon="-0.01054">
        <ele>97</ele>
        <time>2011-08-28T09:01:52Z</time>
      </trkpt>
      <trkpt lat="47.23511" lon="-0.01049">
        <ele>97</ele>
        <time>2011-08-28T09:01:57Z</time>
      </trkpt>
      <trkpt lat="47.23505" lon="-0.01046">
        <ele>97</ele>
        <time>2011-08-28T09:02:02Z</time>
      </trkpt>
      <trkpt lat="47.235" lon="-0.01044">
        <ele>96</ele>
        <time>2011-08-28T09:02:07Z</time>
      </trkpt>
      <trkpt lat="47.23499" lon="-0.01037">
        <ele>96</ele>
        <time>2011-08-28T09:02:14Z</time>
      </trkpt>
      <trkpt lat="47.23501" lon="-0.01031">
        <ele>95</ele>
        <time>2011-08-28T09:02:19Z</time>
      </trkpt>
      <trkpt lat="47.23505" lon="-0.01027">
        <ele>95</ele>
        <time>2011-08-28T09:02:27Z</time>
      </trkpt>
      <trkpt lat="47.23508" lon="-0.01022">
        <ele>95</ele>
        <time>2011-08-28T09:02:33Z</time>
      </trkpt>
      <trkpt lat="47.23511" lon="-0.01016">
        <ele>94</ele>
        <time>2011-08-28T09:02:46Z</time>
      </trkpt>
      <trkpt lat="47.23514" lon="-0.01011">
        <ele>94</ele>
        <time>2011-08-28T09:02:51Z</time>
      </trkpt>
      <trkpt lat="47.23518" lon="-0.01006">
        <ele>93</ele>
        <time>2011-08-28T09:02:56Z</time>
      </trkpt>
      <trkpt lat="47.23521" lon="-0.01">
        <ele>93</ele>
        <time>2011-08-28T09:03:01Z</time>
      </trkpt>
      <trkpt lat="47.23522" lon="-0.00994">
        <ele>93</ele>
        <time>2011-08-28T09:03:06Z</time>
      </trkpt>
      <trkpt lat="47.2352" lon="-0.00988">
        <ele>93</ele>
        <time>2011-08-28T09:03:17Z</time>
      </trkpt>
      <trkpt lat="47.23516" lon="-0.00983">
        <ele>92</ele>
        <time>2011-08-28T09:03:22Z</time>
      </trkpt>
      <trkpt lat="47.23512" lon="-0.00977">
        <ele>92</ele>
        <time>2011-08-28T09:03:27Z</time>
      </trkpt>
      <trkpt lat="47.23508" lon="-0.00972">
        <ele>92</ele>
        <time>2011-08-28T09:03:32Z</time>
      </trkpt>
      <trkpt lat="47.23505" lon="-0.00968">
        <ele>91</ele>
        <time>2011-08-28T09:03:36Z</time>
      </trkpt>
      <trkpt lat="47.23502" lon="-0.00962">
        <ele>91</ele>
        <time>2011-08-28T09:03:40Z</time>
      </trkpt>
      <trkpt lat="47.23499" lon="-0.00956">
        <ele>91</ele>
        <time>2011-08-28T09:03:45Z</time>
      </trkpt>
      <trkpt lat="47.23496" lon="-0.0095">
        <ele>91</ele>
        <time>2011-08-28T09:03:50Z</time>
      </trkpt>
      <trkpt lat="47.23492" lon="-0.00945">
        <ele>91</ele>
        <time>2011-08-28T09:03:54Z</time>
      </trkpt>
      <trkpt lat="47.23488" lon="-0.0094">
        <ele>91</ele>
        <time>2011-08-28T09:03:58Z</time>
      </trkpt>
      <trkpt lat="47.23484" lon="-0.00934">
        <ele>91</ele>
        <time>2011-08-28T09:04:03Z</time>
      </trkpt>
      <trkpt lat="47.23481" lon="-0.00929">
        <ele>91</ele>
        <time>2011-08-28T09:04:08Z</time>
      </trkpt>
      <trkpt lat="47.23477" lon="-0.00922">
        <ele>90</ele>
        <time>2011-08-28T09:04:13Z</time>
      </trkpt>
      <trkpt lat="47.23474" lon="-0.00917">
        <ele>90</ele>
        <time>2011-08-28T09:04:17Z</time>
      </trkpt>
      <trkpt lat="47.23471" lon="-0.00911">
        <ele>90</ele>
        <time>2011-08-28T09:04:21Z</time>
      </trkpt>
      <trkpt lat="47.23468" lon="-0.00905">
        <ele>91</ele>
        <time>2011-08-28T09:04:25Z</time>
      </trkpt>
      <trkpt lat="47.23465" lon="-0.00898">
        <ele>91</ele>
        <time>2011-08-28T09:04:30Z</time>
      </trkpt>
      <trkpt lat="47.23463" lon="-0.00892">
        <ele>91</ele>
        <time>2011-08-28T09:04:34Z</time>
      </trkpt>
      <trkpt lat="47.2346" lon="-0.00885">
        <ele>91</ele>
        <time>2011-08-28T09:04:39Z</time>
      </trkpt>
      <trkpt lat="47.23457" lon="-0.00879">
        <ele>91</ele>
        <time>2011-08-28T09:04:43Z</time>
      </trkpt>
      <trkpt lat="47.23455" lon="-0.00872">
        <ele>91</ele>
        <time>2011-08-28T09:04:47Z</time>
      </trkpt>
      <trkpt lat="47.23452" lon="-0.00866">
        <ele>91</ele>
        <time>2011-08-28T09:04:51Z</time>
      </trkpt>
      <trkpt lat="47.2345" lon="-0.0086">
        <ele>91</ele>
        <time>2011-08-28T09:04:55Z</time>
      </trkpt>
      <trkpt lat="47.23447" lon="-0.00854">
        <ele>90</ele>
        <time>2011-08-28T09:04:59Z</time>
      </trkpt>
      <trkpt lat="47.23444" lon="-0.00848">
        <ele>90</ele>
        <time>2011-08-28T09:05:03Z</time>
      </trkpt>
      <trkpt lat="47.2344" lon="-0.00842">
        <ele>90</ele>
        <time>2011-08-28T09:05:08Z</time>
      </trkpt>
      <trkpt lat="47.23438" lon="-0.00837">
        <ele>90</ele>
        <time>2011-08-28T09:05:12Z</time>
      </trkpt>
      <trkpt lat="47.23434" lon="-0.0083">
        <ele>90</ele>
        <time>2011-08-28T09:05:17Z</time>
      </trkpt>
      <trkpt lat="47.23431" lon="-0.00825">
        <ele>90</ele>
        <time>2011-08-28T09:05:21Z</time>
      </trkpt>
      <trkpt lat="47.23427" lon="-0.0082">
        <ele>90</ele>
        <time>2011-08-28T09:05:25Z</time>
      </trkpt>
      <trkpt lat="47.23423" lon="-0.00817">
        <ele>90</ele>
        <time>2011-08-28T09:05:29Z</time>
      </trkpt>
      <trkpt lat="47.23418" lon="-0.00813">
        <ele>90</ele>
        <time>2011-08-28T09:05:33Z</time>
      </trkpt>
      <trkpt lat="47.23415" lon="-0.00808">
        <ele>90</ele>
        <time>2011-08-28T09:05:37Z</time>
      </trkpt>
      <trkpt lat="47.23412" lon="-0.00803">
        <ele>90</ele>
        <time>2011-08-28T09:05:41Z</time>
      </trkpt>
      <trkpt lat="47.23409" lon="-0.00797">
        <ele>90</ele>
        <time>2011-08-28T09:05:46Z</time>
      </trkpt>
      <trkpt lat="47.23405" lon="-0.0079">
        <ele>90</ele>
        <time>2011-08-28T09:05:51Z</time>
      </trkpt>
      <trkpt lat="47.23403" lon="-0.00784">
        <ele>90</ele>
        <time>2011-08-28T09:05:55Z</time>
      </trkpt>
      <trkpt lat="47.234" lon="-0.00778">
        <ele>91</ele>
        <time>2011-08-28T09:05:59Z</time>
      </trkpt>
      <trkpt lat="47.23398" lon="-0.00772">
        <ele>91</ele>
        <time>2011-08-28T09:06:03Z</time>
      </trkpt>
      <trkpt lat="47.23396" lon="-0.00766">
        <ele>91</ele>
        <time>2011-08-28T09:06:07Z</time>
      </trkpt>
      <trkpt lat="47.23394" lon="-0.00759">
        <ele>91</ele>
        <time>2011-08-28T09:06:11Z</time>
      </trkpt>
      <trkpt lat="47.23392" lon="-0.00753">
        <ele>91</ele>
        <time>2011-08-28T09:06:15Z</time>
      </trkpt>
      <trkpt lat="47.23389" lon="-0.00747">
        <ele>91</ele>
        <time>2011-08-28T09:06:19Z</time>
      </trkpt>
      <trkpt lat="47.23387" lon="-0.0074">
        <ele>91</ele>
        <time>2011-08-28T09:06:23Z</time>
      </trkpt>
      <trkpt lat="47.23384" lon="-0.00734">
        <ele>92</ele>
        <time>2011-08-28T09:06:27Z</time>
      </trkpt>
      <trkpt lat="47.23381" lon="-0.00728">
        <ele>92</ele>
        <time>2011-08-28T09:06:31Z</time>
      </trkpt>
      <trkpt lat="47.23377" lon="-0.00725">
        <ele>92</ele>
        <time>2011-08-28T09:06:35Z</time>
      </trkpt>
      <trkpt lat="47.23373" lon="-0.00724">
        <ele>92</ele>
        <time>2011-08-28T09:06:39Z</time>
      </trkpt>
      <trkpt lat="47.23367" lon="-0.00726">
        <ele>93</ele>
        <time>2011-08-28T09:06:44Z</time>
      </trkpt>
      <trkpt lat="47.23362" lon="-0.00728">
        <ele>93</ele>
        <time>2011-08-28T09:06:49Z</time>
      </trkpt>
      <trkpt lat="47.23358" lon="-0.00731">
        <ele>93</ele>
        <time>2011-08-28T09:06:53Z</time>
      </trkpt>
      <trkpt lat="47.23353" lon="-0.00734">
        <ele>93</ele>
        <time>2011-08-28T09:06:57Z</time>
      </trkpt>
      <trkpt lat="47.23349" lon="-0.00737">
        <ele>93</ele>
        <time>2011-08-28T09:07:01Z</time>
      </trkpt>
      <trkpt lat="47.23344" lon="-0.00739">
        <ele>93</ele>
        <time>2011-08-28T09:07:05Z</time>
      </trkpt>
      <trkpt lat="47.23339" lon="-0.00743">
        <ele>93</ele>
        <time>2011-08-28T09:07:10Z</time>
      </trkpt>
      <trkpt lat="47.23335" lon="-0.00745">
        <ele>93</ele>
        <time>2011-08-28T09:07:14Z</time>
      </trkpt>
      <trkpt lat="47.2333" lon="-0.00748">
        <ele>93</ele>
        <time>2011-08-28T09:07:18Z</time>
      </trkpt>
      <trkpt lat="47.23326" lon="-0.00751">
        <ele>93</ele>
        <time>2011-08-28T09:07:22Z</time>
      </trkpt>
      <trkpt lat="47.23321" lon="-0.00754">
        <ele>94</ele>
        <time>2011-08-28T09:07:26Z</time>
      </trkpt>
      <trkpt lat="47.23317" lon="-0.00757">
        <ele>94</ele>
        <time>2011-08-28T09:07:30Z</time>
      </trkpt>
      <trkpt lat="47.23312" lon="-0.00759">
        <ele>94</ele>
        <time>2011-08-28T09:07:34Z</time>
      </trkpt>
      <trkpt lat="47.23308" lon="-0.00762">
        <ele>94</ele>
        <time>2011-08-28T09:07:38Z</time>
      </trkpt>
      <trkpt lat="47.23303" lon="-0.00764">
        <ele>94</ele>
        <time>2011-08-28T09:07:42Z</time>
      </trkpt>
      <trkpt lat="47.23298" lon="-0.00767">
        <ele>94</ele>
        <time>2011-08-28T09:07:46Z</time>
      </trkpt>
      <trkpt lat="47.23293" lon="-0.00769">
        <ele>94</ele>
        <time>2011-08-28T09:07:50Z</time>
      </trkpt>
      <trkpt lat="47.23289" lon="-0.00772">
        <ele>94</ele>
        <time>2011-08-28T09:07:54Z</time>
      </trkpt>
      <trkpt lat="47.23284" lon="-0.00774">
        <ele>94</ele>
        <time>2011-08-28T09:07:58Z</time>
      </trkpt>
      <trkpt lat="47.2328" lon="-0.00777">
        <ele>95</ele>
        <time>2011-08-28T09:08:02Z</time>
      </trkpt>
      <trkpt lat="47.23275" lon="-0.0078">
        <ele>95</ele>
        <time>2011-08-28T09:08:06Z</time>
      </trkpt>
      <trkpt lat="47.2327" lon="-0.00782">
        <ele>95</ele>
        <time>2011-08-28T09:08:11Z</time>
      </trkpt>
      <trkpt lat="47.23266" lon="-0.00778">
        <ele>95</ele>
        <time>2011-08-28T09:08:17Z</time>
      </trkpt>
      <trkpt lat="47.23265" lon="-0.00771">
        <ele>95</ele>
        <time>2011-08-28T09:08:21Z</time>
      </trkpt>
      <trkpt lat="47.23263" lon="-0.00764">
        <ele>96</ele>
        <time>2011-08-28T09:08:25Z</time>
      </trkpt>
      <trkpt lat="47.23262" lon="-0.00757">
        <ele>96</ele>
        <time>2011-08-28T09:08:29Z</time>
      </trkpt>
      <trkpt lat="47.2326" lon="-0.0075">
        <ele>96</ele>
        <time>2011-08-28T09:08:33Z</time>
      </trkpt>
      <trkpt lat="47.23258" lon="-0.00744">
        <ele>96</ele>
        <time>2011-08-28T09:08:37Z</time>
      </trkpt>
      <trkpt lat="47.23256" lon="-0.00738">
        <ele>97</ele>
        <time>2011-08-28T09:08:41Z</time>
      </trkpt>
      <trkpt lat="47.23253" lon="-0.00732">
        <ele>97</ele>
        <time>2011-08-28T09:08:45Z</time>
      </trkpt>
      <trkpt lat="47.2325" lon="-0.00726">
        <ele>97</ele>
        <time>2011-08-28T09:08:49Z</time>
      </trkpt>
      <trkpt lat="47.23248" lon="-0.00719">
        <ele>98</ele>
        <time>2011-08-28T09:08:53Z</time>
      </trkpt>
      <trkpt lat="47.23245" lon="-0.00713">
        <ele>98</ele>
        <time>2011-08-28T09:08:57Z</time>
      </trkpt>
      <trkpt lat="47.23243" lon="-0.00706">
        <ele>98</ele>
        <time>2011-08-28T09:09:01Z</time>
      </trkpt>
      <trkpt lat="47.2324" lon="-0.007">
        <ele>98</ele>
        <time>2011-08-28T09:09:05Z</time>
      </trkpt>
      <trkpt lat="47.23238" lon="-0.00693">
        <ele>99</ele>
        <time>2011-08-28T09:09:09Z</time>
      </trkpt>
      <trkpt lat="47.23236" lon="-0.00686">
        <ele>99</ele>
        <time>2011-08-28T09:09:13Z</time>
      </trkpt>
      <trkpt lat="47.23233" lon="-0.0068">
        <ele>99</ele>
        <time>2011-08-28T09:09:17Z</time>
      </trkpt>
      <trkpt lat="47.23231" lon="-0.00673">
        <ele>99</ele>
        <time>2011-08-28T09:09:22Z</time>
      </trkpt>
      <trkpt lat="47.23228" lon="-0.00666">
        <ele>99</ele>
        <time>2011-08-28T09:09:28Z</time>
      </trkpt>
      <trkpt lat="47.23227" lon="-0.00659">
        <ele>100</ele>
        <time>2011-08-28T09:09:33Z</time>
      </trkpt>
      <trkpt lat="47.23224" lon="-0.00652">
        <ele>100</ele>
        <time>2011-08-28T09:09:38Z</time>
      </trkpt>
      <trkpt lat="47.23221" lon="-0.00645">
        <ele>100</ele>
        <time>2011-08-28T09:09:43Z</time>
      </trkpt>
      <trkpt lat="47.23218" lon="-0.0064">
        <ele>100</ele>
        <time>2011-08-28T09:09:47Z</time>
      </trkpt>
      <trkpt lat="47.23215" lon="-0.00635">
        <ele>100</ele>
        <time>2011-08-28T09:09:51Z</time>
      </trkpt>
      <trkpt lat="47.23212" lon="-0.00629">
        <ele>100</ele>
        <time>2011-08-28T09:09:55Z</time>
      </trkpt>
      <trkpt lat="47.23208" lon="-0.00624">
        <ele>101</ele>
        <time>2011-08-28T09:09:59Z</time>
      </trkpt>
      <trkpt lat="47.23204" lon="-0.0062">
        <ele>101</ele>
        <time>2011-08-28T09:10:03Z</time>
      </trkpt>
      <trkpt lat="47.23201" lon="-0.00614">
        <ele>101</ele>
        <time>2011-08-28T09:10:07Z</time>
      </trkpt>
      <trkpt lat="47.23198" lon="-0.00609">
        <ele>101</ele>
        <time>2011-08-28T09:10:11Z</time>
      </trkpt>
      <trkpt lat="47.23195" lon="-0.00603">
        <ele>101</ele>
        <time>2011-08-28T09:10:15Z</time>
      </trkpt>
      <trkpt lat="47.23194" lon="-0.00597">
        <ele>101</ele>
        <time>2011-08-28T09:10:19Z</time>
      </trkpt>
      <trkpt lat="47.23191" lon="-0.00591">
        <ele>102</ele>
        <time>2011-08-28T09:10:23Z</time>
      </trkpt>
      <trkpt lat="47.23189" lon="-0.00585">
        <ele>102</ele>
        <time>2011-08-28T09:10:27Z</time>
      </trkpt>
      <trkpt lat="47.23187" lon="-0.00578">
        <ele>102</ele>
        <time>2011-08-28T09:10:31Z</time>
      </trkpt>
      <trkpt lat="47.23185" lon="-0.00572">
        <ele>102</ele>
        <time>2011-08-28T09:10:35Z</time>
      </trkpt>
      <trkpt lat="47.23183" lon="-0.00565">
        <ele>102</ele>
        <time>2011-08-28T09:10:39Z</time>
      </trkpt>
      <trkpt lat="47.23181" lon="-0.00558">
        <ele>102</ele>
        <time>2011-08-28T09:10:43Z</time>
      </trkpt>
      <trkpt lat="47.23179" lon="-0.00552">
        <ele>102</ele>
        <time>2011-08-28T09:10:47Z</time>
      </trkpt>
      <trkpt lat="47.23176" lon="-0.00545">
        <ele>102</ele>
        <time>2011-08-28T09:10:51Z</time>
      </trkpt>
      <trkpt lat="47.23174" lon="-0.00539">
        <ele>102</ele>
        <time>2011-08-28T09:10:55Z</time>
      </trkpt>
      <trkpt lat="47.23172" lon="-0.00532">
        <ele>102</ele>
        <time>2011-08-28T09:10:59Z</time>
      </trkpt>
      <trkpt lat="47.23169" lon="-0.00526">
        <ele>102</ele>
        <time>2011-08-28T09:11:03Z</time>
      </trkpt>
      <trkpt lat="47.23167" lon="-0.00519">
        <ele>102</ele>
        <time>2011-08-28T09:11:07Z</time>
      </trkpt>
      <trkpt lat="47.23164" lon="-0.00513">
        <ele>102</ele>
        <time>2011-08-28T09:11:11Z</time>
      </trkpt>
      <trkpt lat="47.23162" lon="-0.00507">
        <ele>102</ele>
        <time>2011-08-28T09:11:15Z</time>
      </trkpt>
      <trkpt lat="47.2316" lon="-0.005">
        <ele>102</ele>
        <time>2011-08-28T09:11:19Z</time>
      </trkpt>
      <trkpt lat="47.23158" lon="-0.00494">
        <ele>102</ele>
        <time>2011-08-28T09:11:23Z</time>
      </trkpt>
      <trkpt lat="47.23156" lon="-0.00488">
        <ele>102</ele>
        <time>2011-08-28T09:11:27Z</time>
      </trkpt>
      <trkpt lat="47.23155" lon="-0.00481">
        <ele>102</ele>
        <time>2011-08-28T09:11:31Z</time>
      </trkpt>
      <trkpt lat="47.23155" lon="-0.00474">
        <ele>102</ele>
        <time>2011-08-28T09:11:36Z</time>
      </trkpt>
      <trkpt lat="47.23159" lon="-0.00469">
        <ele>102</ele>
        <time>2011-08-28T09:11:40Z</time>
      </trkpt>
      <trkpt lat="47.23163" lon="-0.00465">
        <ele>102</ele>
        <time>2011-08-28T09:11:44Z</time>
      </trkpt>
      <trkpt lat="47.23167" lon="-0.00462">
        <ele>103</ele>
        <time>2011-08-28T09:11:48Z</time>
      </trkpt>
      <trkpt lat="47.23171" lon="-0.00458">
        <ele>103</ele>
        <time>2011-08-28T09:11:52Z</time>
      </trkpt>
      <trkpt lat="47.23176" lon="-0.00455">
        <ele>103</ele>
        <time>2011-08-28T09:11:56Z</time>
      </trkpt>
      <trkpt lat="47.2318" lon="-0.00453">
        <ele>103</ele>
        <time>2011-08-28T09:12:00Z</time>
      </trkpt>
      <trkpt lat="47.23184" lon="-0.0045">
        <ele>103</ele>
        <time>2011-08-28T09:12:04Z</time>
      </trkpt>
      <trkpt lat="47.23189" lon="-0.00446">
        <ele>104</ele>
        <time>2011-08-28T09:12:09Z</time>
      </trkpt>
      <trkpt lat="47.23193" lon="-0.00441">
        <ele>104</ele>
        <time>2011-08-28T09:12:15Z</time>
      </trkpt>
      <trkpt lat="47.23198" lon="-0.00439">
        <ele>104</ele>
        <time>2011-08-28T09:12:19Z</time>
      </trkpt>
      <trkpt lat="47.23202" lon="-0.00436">
        <ele>104</ele>
        <time>2011-08-28T09:12:23Z</time>
      </trkpt>
      <trkpt lat="47.23204" lon="-0.00428">
        <ele>105</ele>
        <time>2011-08-28T09:12:28Z</time>
      </trkpt>
      <trkpt lat="47.23202" lon="-0.00422">
        <ele>105</ele>
        <time>2011-08-28T09:12:32Z</time>
      </trkpt>
      <trkpt lat="47.232" lon="-0.00415">
        <ele>105</ele>
        <time>2011-08-28T09:12:36Z</time>
      </trkpt>
      <trkpt lat="47.23197" lon="-0.00409">
        <ele>105</ele>
        <time>2011-08-28T09:12:40Z</time>
      </trkpt>
      <trkpt lat="47.23194" lon="-0.00402">
        <ele>105</ele>
        <time>2011-08-28T09:12:45Z</time>
      </trkpt>
      <trkpt lat="47.23192" lon="-0.00395">
        <ele>105</ele>
        <time>2011-08-28T09:12:50Z</time>
      </trkpt>
      <trkpt lat="47.2319" lon="-0.00388">
        <ele>105</ele>
        <time>2011-08-28T09:12:55Z</time>
      </trkpt>
      <trkpt lat="47.23189" lon="-0.00381">
        <ele>105</ele>
        <time>2011-08-28T09:12:59Z</time>
      </trkpt>
      <trkpt lat="47.23187" lon="-0.00374">
        <ele>106</ele>
        <time>2011-08-28T09:13:03Z</time>
      </trkpt>
      <trkpt lat="47.23185" lon="-0.00368">
        <ele>106</ele>
        <time>2011-08-28T09:13:07Z</time>
      </trkpt>
      <trkpt lat="47.23183" lon="-0.0036">
        <ele>106</ele>
        <time>2011-08-28T09:13:12Z</time>
      </trkpt>
      <trkpt lat="47.23181" lon="-0.00352">
        <ele>106</ele>
        <time>2011-08-28T09:13:17Z</time>
      </trkpt>
      <trkpt lat="47.23179" lon="-0.00346">
        <ele>106</ele>
        <time>2011-08-28T09:13:21Z</time>
      </trkpt>
      <trkpt lat="47.23177" lon="-0.0034">
        <ele>106</ele>
        <time>2011-08-28T09:13:25Z</time>
      </trkpt>
      <trkpt lat="47.23176" lon="-0.00334">
        <ele>106</ele>
        <time>2011-08-28T09:13:29Z</time>
      </trkpt>
      <trkpt lat="47.23174" lon="-0.00328">
        <ele>106</ele>
        <time>2011-08-28T09:13:33Z</time>
      </trkpt>
      <trkpt lat="47.23172" lon="-0.00321">
        <ele>106</ele>
        <time>2011-08-28T09:13:37Z</time>
      </trkpt>
      <trkpt lat="47.2317" lon="-0.00313">
        <ele>106</ele>
        <time>2011-08-28T09:13:42Z</time>
      </trkpt>
      <trkpt lat="47.23168" lon="-0.00306">
        <ele>106</ele>
        <time>2011-08-28T09:13:47Z</time>
      </trkpt>
      <trkpt lat="47.23166" lon="-0.00299">
        <ele>106</ele>
        <time>2011-08-28T09:13:51Z</time>
      </trkpt>
      <trkpt lat="47.23164" lon="-0.00292">
        <ele>106</ele>
        <time>2011-08-28T09:13:55Z</time>
      </trkpt>
      <trkpt lat="47.23161" lon="-0.00285">
        <ele>106</ele>
        <time>2011-08-28T09:13:59Z</time>
      </trkpt>
      <trkpt lat="47.23159" lon="-0.00277">
        <ele>107</ele>
        <time>2011-08-28T09:14:04Z</time>
      </trkpt>
      <trkpt lat="47.23157" lon="-0.0027">
        <ele>107</ele>
        <time>2011-08-28T09:14:09Z</time>
      </trkpt>
      <trkpt lat="47.23156" lon="-0.00263">
        <ele>107</ele>
        <time>2011-08-28T09:14:14Z</time>
      </trkpt>
      <trkpt lat="47.23158" lon="-0.00256">
        <ele>107</ele>
        <time>2011-08-28T09:14:19Z</time>
      </trkpt>
      <trkpt lat="47.23162" lon="-0.00253">
        <ele>107</ele>
        <time>2011-08-28T09:14:23Z</time>
      </trkpt>
      <trkpt lat="47.23163" lon="-0.00246">
        <ele>107</ele>
        <time>2011-08-28T09:14:29Z</time>
      </trkpt>
      <trkpt lat="47.23162" lon="-0.00239">
        <ele>107</ele>
        <time>2011-08-28T09:14:34Z</time>
      </trkpt>
      <trkpt lat="47.2316" lon="-0.00232">
        <ele>107</ele>
        <time>2011-08-28T09:14:40Z</time>
      </trkpt>
      <trkpt lat="47.23158" lon="-0.00226">
        <ele>108</ele>
        <time>2011-08-28T09:14:47Z</time>
      </trkpt>
      <trkpt lat="47.23156" lon="-0.00219">
        <ele>108</ele>
        <time>2011-08-28T09:14:52Z</time>
      </trkpt>
      <trkpt lat="47.23154" lon="-0.00213">
        <ele>108</ele>
        <time>2011-08-28T09:14:56Z</time>
      </trkpt>
      <trkpt lat="47.23152" lon="-0.00206">
        <ele>108</ele>
        <time>2011-08-28T09:15:00Z</time>
      </trkpt>
      <trkpt lat="47.2315" lon="-0.00199">
        <ele>108</ele>
        <time>2011-08-28T09:15:04Z</time>
      </trkpt>
      <trkpt lat="47.23148" lon="-0.00192">
        <ele>108</ele>
        <time>2011-08-28T09:15:08Z</time>
      </trkpt>
      <trkpt lat="47.23146" lon="-0.00185">
        <ele>108</ele>
        <time>2011-08-28T09:15:12Z</time>
      </trkpt>
      <trkpt lat="47.23144" lon="-0.00178">
        <ele>108</ele>
        <time>2011-08-28T09:15:16Z</time>
      </trkpt>
      <trkpt lat="47.23142" lon="-0.00172">
        <ele>108</ele>
        <time>2011-08-28T09:15:20Z</time>
      </trkpt>
      <trkpt lat="47.2314" lon="-0.00166">
        <ele>108</ele>
        <time>2011-08-28T09:15:24Z</time>
      </trkpt>
      <trkpt lat="47.23137" lon="-0.00159">
        <ele>108</ele>
        <time>2011-08-28T09:15:29Z</time>
      </trkpt>
      <trkpt lat="47.23135" lon="-0.00153">
        <ele>109</ele>
        <time>2011-08-28T09:15:33Z</time>
      </trkpt>
      <trkpt lat="47.23133" lon="-0.00146">
        <ele>109</ele>
        <time>2011-08-28T09:15:37Z</time>
      </trkpt>
      <trkpt lat="47.23131" lon="-0.00138">
        <ele>109</ele>
        <time>2011-08-28T09:15:41Z</time>
      </trkpt>
      <trkpt lat="47.23129" lon="-0.00131">
        <ele>109</ele>
        <time>2011-08-28T09:15:45Z</time>
      </trkpt>
      <trkpt lat="47.23126" lon="-0.00125">
        <ele>109</ele>
        <time>2011-08-28T09:15:49Z</time>
      </trkpt>
      <trkpt lat="47.23124" lon="-0.0012">
        <ele>109</ele>
        <time>2011-08-28T09:15:53Z</time>
      </trkpt>
      <trkpt lat="47.23121" lon="-0.00114">
        <ele>109</ele>
        <time>2011-08-28T09:15:57Z</time>
      </trkpt>
      <trkpt lat="47.23118" lon="-0.00108">
        <ele>109</ele>
        <time>2011-08-28T09:16:01Z</time>
      </trkpt>
      <trkpt lat="47.23116" lon="-0.00101">
        <ele>109</ele>
        <time>2011-08-28T09:16:05Z</time>
      </trkpt>
      <trkpt lat="47.23114" lon="-0.00095">
        <ele>109</ele>
        <time>2011-08-28T09:16:09Z</time>
      </trkpt>
      <trkpt lat="47.23111" lon="-0.0009">
        <ele>109</ele>
        <time>2011-08-28T09:16:13Z</time>
      </trkpt>
      <trkpt lat="47.23107" lon="-0.00085">
        <ele>109</ele>
        <time>2011-08-28T09:16:17Z</time>
      </trkpt>
      <trkpt lat="47.23103" lon="-0.00082">
        <ele>109</ele>
        <time>2011-08-28T09:16:21Z</time>
      </trkpt>
      <trkpt lat="47.231" lon="-0.00078">
        <ele>108</ele>
        <time>2011-08-28T09:16:25Z</time>
      </trkpt>
      <trkpt lat="47.23096" lon="-0.00074">
        <ele>108</ele>
        <time>2011-08-28T09:16:29Z</time>
      </trkpt>
      <trkpt lat="47.23092" lon="-0.0007">
        <ele>108</ele>
        <time>2011-08-28T09:16:33Z</time>
      </trkpt>
      <trkpt lat="47.23088" lon="-0.00065">
        <ele>108</ele>
        <time>2011-08-28T09:16:37Z</time>
      </trkpt>
      <trkpt lat="47.23086" lon="-0.0006">
        <ele>108</ele>
        <time>2011-08-28T09:16:41Z</time>
      </trkpt>
      <trkpt lat="47.23084" lon="-0.00053">
        <ele>108</ele>
        <time>2011-08-28T09:16:45Z</time>
      </trkpt>
      <trkpt lat="47.23081" lon="-0.00047">
        <ele>108</ele>
        <time>2011-08-28T09:16:49Z</time>
      </trkpt>
      <trkpt lat="47.23079" lon="-0.00041">
        <ele>108</ele>
        <time>2011-08-28T09:16:53Z</time>
      </trkpt>
      <trkpt lat="47.23077" lon="-0.00033">
        <ele>108</ele>
        <time>2011-08-28T09:16:58Z</time>
      </trkpt>
      <trkpt lat="47.23074" lon="-0.00027">
        <ele>108</ele>
        <time>2011-08-28T09:17:02Z</time>
      </trkpt>
      <trkpt lat="47.23072" lon="-0.00022">
        <ele>108</ele>
        <time>2011-08-28T09:17:06Z</time>
      </trkpt>
      <trkpt lat="47.23069" lon="-0.00014">
        <ele>108</ele>
        <time>2011-08-28T09:17:11Z</time>
      </trkpt>
      <trkpt lat="47.23066" lon="-7.0E-5">
        <ele>108</ele>
        <time>2011-08-28T09:17:16Z</time>
      </trkpt>
      <trkpt lat="47.23064" lon="-1.0E-5">
        <ele>108</ele>
        <time>2011-08-28T09:17:20Z</time>
      </trkpt>
      <trkpt lat="47.23062" lon="6.0E-5">
        <ele>108</ele>
        <time>2011-08-28T09:17:24Z</time>
      </trkpt>
      <trkpt lat="47.23061" lon="0.00012">
        <ele>108</ele>
        <time>2011-08-28T09:17:28Z</time>
      </trkpt>
      <trkpt lat="47.2306" lon="0.00019">
        <ele>108</ele>
        <time>2011-08-28T09:17:32Z</time>
      </trkpt>
      <trkpt lat="47.23059" lon="0.00026">
        <ele>108</ele>
        <time>2011-08-28T09:17:36Z</time>
      </trkpt>
      <trkpt lat="47.23057" lon="0.00033">
        <ele>108</ele>
        <time>2011-08-28T09:17:40Z</time>
      </trkpt>
      <trkpt lat="47.23055" lon="0.00039">
        <ele>108</ele>
        <time>2011-08-28T09:17:44Z</time>
      </trkpt>
      <trkpt lat="47.23053" lon="0.00046">
        <ele>108</ele>
        <time>2011-08-28T09:17:48Z</time>
      </trkpt>
      <trkpt lat="47.23052" lon="0.00052">
        <ele>108</ele>
        <time>2011-08-28T09:17:52Z</time>
      </trkpt>
      <trkpt lat="47.2305" lon="0.00058">
        <ele>108</ele>
        <time>2011-08-28T09:17:56Z</time>
      </trkpt>
      <trkpt lat="47.23048" lon="0.00065">
        <ele>108</ele>
        <time>2011-08-28T09:18:00Z</time>
      </trkpt>
      <trkpt lat="47.23046" lon="0.00071">
        <ele>108</ele>
        <time>2011-08-28T09:18:04Z</time>
      </trkpt>
      <trkpt lat="47.23044" lon="0.00078">
        <ele>108</ele>
        <time>2011-08-28T09:18:08Z</time>
      </trkpt>
      <trkpt lat="47.23042" lon="0.00084">
        <ele>108</ele>
        <time>2011-08-28T09:18:12Z</time>
      </trkpt>
      <trkpt lat="47.2304" lon="0.00091">
        <ele>108</ele>
        <time>2011-08-28T09:18:17Z</time>
      </trkpt>
      <trkpt lat="47.2304" lon="0.00098">
        <ele>108</ele>
        <time>2011-08-28T09:18:23Z</time>
      </trkpt>
      <trkpt lat="47.23041" lon="0.00105">
        <ele>108</ele>
        <time>2011-08-28T09:18:28Z</time>
      </trkpt>
      <trkpt lat="47.23044" lon="0.0011">
        <ele>108</ele>
        <time>2011-08-28T09:18:32Z</time>
      </trkpt>
      <trkpt lat="47.23048" lon="0.00114">
        <ele>108</ele>
        <time>2011-08-28T09:18:36Z</time>
      </trkpt>
      <trkpt lat="47.23052" lon="0.00117">
        <ele>108</ele>
        <time>2011-08-28T09:18:40Z</time>
      </trkpt>
      <trkpt lat="47.23056" lon="0.0012">
        <ele>108</ele>
        <time>2011-08-28T09:18:47Z</time>
      </trkpt>
      <trkpt lat="47.23061" lon="0.00121">
        <ele>108</ele>
        <time>2011-08-28T09:18:52Z</time>
      </trkpt>
      <trkpt lat="47.23067" lon="0.00122">
        <ele>107</ele>
        <time>2011-08-28T09:18:57Z</time>
      </trkpt>
      <trkpt lat="47.23071" lon="0.00124">
        <ele>107</ele>
        <time>2011-08-28T09:19:01Z</time>
      </trkpt>
      <trkpt lat="47.23075" lon="0.00125">
        <ele>107</ele>
        <time>2011-08-28T09:19:05Z</time>
      </trkpt>
      <trkpt lat="47.2308" lon="0.00128">
        <ele>107</ele>
        <time>2011-08-28T09:19:10Z</time>
      </trkpt>
      <trkpt lat="47.23085" lon="0.00131">
        <ele>107</ele>
        <time>2011-08-28T09:19:15Z</time>
      </trkpt>
      <trkpt lat="47.23089" lon="0.00134">
        <ele>107</ele>
        <time>2011-08-28T09:19:20Z</time>
      </trkpt>
      <trkpt lat="47.23094" lon="0.00138">
        <ele>107</ele>
        <time>2011-08-28T09:19:25Z</time>
      </trkpt>
      <trkpt lat="47.23098" lon="0.00141">
        <ele>107</ele>
        <time>2011-08-28T09:19:31Z</time>
      </trkpt>
      <trkpt lat="47.23103" lon="0.00144">
        <ele>107</ele>
        <time>2011-08-28T09:19:36Z</time>
      </trkpt>
      <trkpt lat="47.23107" lon="0.00148">
        <ele>107</ele>
        <time>2011-08-28T09:19:41Z</time>
      </trkpt>
      <trkpt lat="47.23112" lon="0.00151">
        <ele>107</ele>
        <time>2011-08-28T09:19:46Z</time>
      </trkpt>
      <trkpt lat="47.23116" lon="0.00153">
        <ele>107</ele>
        <time>2011-08-28T09:19:50Z</time>
      </trkpt>
      <trkpt lat="47.23121" lon="0.00155">
        <ele>107</ele>
        <time>2011-08-28T09:19:54Z</time>
      </trkpt>
      <trkpt lat="47.23127" lon="0.00156">
        <ele>107</ele>
        <time>2011-08-28T09:19:58Z</time>
      </trkpt>
      <trkpt lat="47.23132" lon="0.00157">
        <ele>107</ele>
        <time>2011-08-28T09:20:02Z</time>
      </trkpt>
      <trkpt lat="47.23137" lon="0.00158">
        <ele>106</ele>
        <time>2011-08-28T09:20:06Z</time>
      </trkpt>
      <trkpt lat="47.23142" lon="0.0016">
        <ele>106</ele>
        <time>2011-08-28T09:20:10Z</time>
      </trkpt>
      <trkpt lat="47.23147" lon="0.00162">
        <ele>106</ele>
        <time>2011-08-28T09:20:14Z</time>
      </trkpt>
      <trkpt lat="47.23151" lon="0.00166">
        <ele>106</ele>
        <time>2011-08-28T09:20:18Z</time>
      </trkpt>
      <trkpt lat="47.23156" lon="0.00168">
        <ele>106</ele>
        <time>2011-08-28T09:20:22Z</time>
      </trkpt>
      <trkpt lat="47.2316" lon="0.00171">
        <ele>106</ele>
        <time>2011-08-28T09:20:26Z</time>
      </trkpt>
      <trkpt lat="47.23164" lon="0.00174">
        <ele>106</ele>
        <time>2011-08-28T09:20:30Z</time>
      </trkpt>
      <trkpt lat="47.23168" lon="0.00178">
        <ele>106</ele>
        <time>2011-08-28T09:20:34Z</time>
      </trkpt>
      <trkpt lat="47.23173" lon="0.00182">
        <ele>106</ele>
        <time>2011-08-28T09:20:39Z</time>
      </trkpt>
      <trkpt lat="47.23177" lon="0.00186">
        <ele>106</ele>
        <time>2011-08-28T09:20:43Z</time>
      </trkpt>
      <trkpt lat="47.23181" lon="0.00189">
        <ele>106</ele>
        <time>2011-08-28T09:20:47Z</time>
      </trkpt>
      <trkpt lat="47.23185" lon="0.00193">
        <ele>106</ele>
        <time>2011-08-28T09:20:51Z</time>
      </trkpt>
      <trkpt lat="47.23188" lon="0.00196">
        <ele>106</ele>
        <time>2011-08-28T09:20:55Z</time>
      </trkpt>
      <trkpt lat="47.23192" lon="0.00202">
        <ele>106</ele>
        <time>2011-08-28T09:21:00Z</time>
      </trkpt>
      <trkpt lat="47.23195" lon="0.00207">
        <ele>106</ele>
        <time>2011-08-28T09:21:04Z</time>
      </trkpt>
      <trkpt lat="47.23198" lon="0.00214">
        <ele>106</ele>
        <time>2011-08-28T09:21:09Z</time>
      </trkpt>
      <trkpt lat="47.23198" lon="0.00222">
        <ele>106</ele>
        <time>2011-08-28T09:21:13Z</time>
      </trkpt>
      <trkpt lat="47.23199" lon="0.0023">
        <ele>106</ele>
        <time>2011-08-28T09:21:17Z</time>
      </trkpt>
      <trkpt lat="47.232" lon="0.00238">
        <ele>106</ele>
        <time>2011-08-28T09:21:21Z</time>
      </trkpt>
      <trkpt lat="47.232" lon="0.00246">
        <ele>105</ele>
        <time>2011-08-28T09:21:25Z</time>
      </trkpt>
      <trkpt lat="47.23199" lon="0.00255">
        <ele>105</ele>
        <time>2011-08-28T09:21:29Z</time>
      </trkpt>
      <trkpt lat="47.23198" lon="0.00262">
        <ele>105</ele>
        <time>2011-08-28T09:21:33Z</time>
      </trkpt>
      <trkpt lat="47.23197" lon="0.0027">
        <ele>105</ele>
        <time>2011-08-28T09:21:37Z</time>
      </trkpt>
      <trkpt lat="47.23198" lon="0.00277">
        <ele>105</ele>
        <time>2011-08-28T09:21:41Z</time>
      </trkpt>
      <trkpt lat="47.23198" lon="0.00284">
        <ele>104</ele>
        <time>2011-08-28T09:21:45Z</time>
      </trkpt>
      <trkpt lat="47.23198" lon="0.0029">
        <ele>104</ele>
        <time>2011-08-28T09:21:49Z</time>
      </trkpt>
      <trkpt lat="47.23198" lon="0.00297">
        <ele>104</ele>
        <time>2011-08-28T09:21:53Z</time>
      </trkpt>
      <trkpt lat="47.23198" lon="0.00304">
        <ele>104</ele>
        <time>2011-08-28T09:21:57Z</time>
      </trkpt>
      <trkpt lat="47.23198" lon="0.00311">
        <ele>103</ele>
        <time>2011-08-28T09:22:01Z</time>
      </trkpt>
      <trkpt lat="47.23198" lon="0.00318">
        <ele>103</ele>
        <time>2011-08-28T09:22:05Z</time>
      </trkpt>
      <trkpt lat="47.23198" lon="0.00325">
        <ele>103</ele>
        <time>2011-08-28T09:22:09Z</time>
      </trkpt>
      <trkpt lat="47.23198" lon="0.00332">
        <ele>103</ele>
        <time>2011-08-28T09:22:13Z</time>
      </trkpt>
      <trkpt lat="47.23198" lon="0.00339">
        <ele>103</ele>
        <time>2011-08-28T09:22:17Z</time>
      </trkpt>
      <trkpt lat="47.23198" lon="0.00346">
        <ele>103</ele>
        <time>2011-08-28T09:22:21Z</time>
      </trkpt>
      <trkpt lat="47.23198" lon="0.00353">
        <ele>103</ele>
        <time>2011-08-28T09:22:25Z</time>
      </trkpt>
      <trkpt lat="47.23198" lon="0.0036">
        <ele>102</ele>
        <time>2011-08-28T09:22:29Z</time>
      </trkpt>
      <trkpt lat="47.23198" lon="0.00367">
        <ele>102</ele>
        <time>2011-08-28T09:22:33Z</time>
      </trkpt>
      <trkpt lat="47.23199" lon="0.00374">
        <ele>102</ele>
        <time>2011-08-28T09:22:37Z</time>
      </trkpt>
      <trkpt lat="47.23199" lon="0.00381">
        <ele>102</ele>
        <time>2011-08-28T09:22:41Z</time>
      </trkpt>
      <trkpt lat="47.23199" lon="0.00388">
        <ele>102</ele>
        <time>2011-08-28T09:22:45Z</time>
      </trkpt>
      <trkpt lat="47.23199" lon="0.00395">
        <ele>102</ele>
        <time>2011-08-28T09:22:49Z</time>
      </trkpt>
      <trkpt lat="47.23199" lon="0.00402">
        <ele>102</ele>
        <time>2011-08-28T09:22:53Z</time>
      </trkpt>
      <trkpt lat="47.23199" lon="0.0041">
        <ele>102</ele>
        <time>2011-08-28T09:22:57Z</time>
      </trkpt>
      <trkpt lat="47.23199" lon="0.00417">
        <ele>102</ele>
        <time>2011-08-28T09:23:01Z</time>
      </trkpt>
      <trkpt lat="47.23199" lon="0.00425">
        <ele>102</ele>
        <time>2011-08-28T09:23:05Z</time>
      </trkpt>
      <trkpt lat="47.23199" lon="0.00433">
        <ele>102</ele>
        <time>2011-08-28T09:23:09Z</time>
      </trkpt>
      <trkpt lat="47.23198" lon="0.0044">
        <ele>102</ele>
        <time>2011-08-28T09:23:13Z</time>
      </trkpt>
      <trkpt lat="47.23198" lon="0.00448">
        <ele>102</ele>
        <time>2011-08-28T09:23:17Z</time>
      </trkpt>
      <trkpt lat="47.23197" lon="0.00456">
        <ele>102</ele>
        <time>2011-08-28T09:23:21Z</time>
      </trkpt>
      <trkpt lat="47.23197" lon="0.00463">
        <ele>102</ele>
        <time>2011-08-28T09:23:25Z</time>
      </trkpt>
      <trkpt lat="47.23196" lon="0.00471">
        <ele>102</ele>
        <time>2011-08-28T09:23:29Z</time>
      </trkpt>
      <trkpt lat="47.23194" lon="0.00478">
        <ele>102</ele>
        <time>2011-08-28T09:23:33Z</time>
      </trkpt>
      <trkpt lat="47.23194" lon="0.00485">
        <ele>102</ele>
        <time>2011-08-28T09:23:37Z</time>
      </trkpt>
      <trkpt lat="47.23193" lon="0.00492">
        <ele>102</ele>
        <time>2011-08-28T09:23:41Z</time>
      </trkpt>
      <trkpt lat="47.23192" lon="0.00499">
        <ele>102</ele>
        <time>2011-08-28T09:23:45Z</time>
      </trkpt>
      <trkpt lat="47.23191" lon="0.00506">
        <ele>102</ele>
        <time>2011-08-28T09:23:49Z</time>
      </trkpt>
      <trkpt lat="47.2319" lon="0.00513">
        <ele>102</ele>
        <time>2011-08-28T09:23:53Z</time>
      </trkpt>
      <trkpt lat="47.23189" lon="0.00521">
        <ele>102</ele>
        <time>2011-08-28T09:23:57Z</time>
      </trkpt>
      <trkpt lat="47.23188" lon="0.00529">
        <ele>102</ele>
        <time>2011-08-28T09:24:01Z</time>
      </trkpt>
      <trkpt lat="47.23189" lon="0.00536">
        <ele>103</ele>
        <time>2011-08-28T09:24:05Z</time>
      </trkpt>
      <trkpt lat="47.2319" lon="0.00544">
        <ele>103</ele>
        <time>2011-08-28T09:24:09Z</time>
      </trkpt>
      <trkpt lat="47.23192" lon="0.0055">
        <ele>103</ele>
        <time>2011-08-28T09:24:13Z</time>
      </trkpt>
      <trkpt lat="47.23195" lon="0.00555">
        <ele>103</ele>
        <time>2011-08-28T09:24:17Z</time>
      </trkpt>
      <trkpt lat="47.23199" lon="0.00559">
        <ele>104</ele>
        <time>2011-08-28T09:24:21Z</time>
      </trkpt>
      <trkpt lat="47.23203" lon="0.00562">
        <ele>104</ele>
        <time>2011-08-28T09:24:25Z</time>
      </trkpt>
      <trkpt lat="47.23207" lon="0.00566">
        <ele>104</ele>
        <time>2011-08-28T09:24:29Z</time>
      </trkpt>
      <trkpt lat="47.23209" lon="0.00574">
        <ele>105</ele>
        <time>2011-08-28T09:24:34Z</time>
      </trkpt>
      <trkpt lat="47.2321" lon="0.00581">
        <ele>105</ele>
        <time>2011-08-28T09:24:39Z</time>
      </trkpt>
      <trkpt lat="47.2321" lon="0.00588">
        <ele>106</ele>
        <time>2011-08-28T09:24:44Z</time>
      </trkpt>
      <trkpt lat="47.23209" lon="0.00596">
        <ele>106</ele>
        <time>2011-08-28T09:24:49Z</time>
      </trkpt>
      <trkpt lat="47.23209" lon="0.00603">
        <ele>106</ele>
        <time>2011-08-28T09:24:53Z</time>
      </trkpt>
      <trkpt lat="47.23208" lon="0.0061">
        <ele>107</ele>
        <time>2011-08-28T09:24:57Z</time>
      </trkpt>
      <trkpt lat="47.23207" lon="0.00617">
        <ele>107</ele>
        <time>2011-08-28T09:25:01Z</time>
      </trkpt>
      <trkpt lat="47.23205" lon="0.00624">
        <ele>107</ele>
        <time>2011-08-28T09:25:05Z</time>
      </trkpt>
      <trkpt lat="47.23202" lon="0.0063">
        <ele>108</ele>
        <time>2011-08-28T09:25:09Z</time>
      </trkpt>
      <trkpt lat="47.232" lon="0.00636">
        <ele>108</ele>
        <time>2011-08-28T09:25:13Z</time>
      </trkpt>
      <trkpt lat="47.23198" lon="0.00643">
        <ele>108</ele>
        <time>2011-08-28T09:25:17Z</time>
      </trkpt>
      <trkpt lat="47.23196" lon="0.0065">
        <ele>108</ele>
        <time>2011-08-28T09:25:21Z</time>
      </trkpt>
      <trkpt lat="47.23195" lon="0.00657">
        <ele>109</ele>
        <time>2011-08-28T09:25:25Z</time>
      </trkpt>
      <trkpt lat="47.23194" lon="0.00664">
        <ele>109</ele>
        <time>2011-08-28T09:25:29Z</time>
      </trkpt>
      <trkpt lat="47.23193" lon="0.00671">
        <ele>109</ele>
        <time>2011-08-28T09:25:33Z</time>
      </trkpt>
      <trkpt lat="47.23192" lon="0.00678">
        <ele>109</ele>
        <time>2011-08-28T09:25:37Z</time>
      </trkpt>
      <trkpt lat="47.23191" lon="0.00686">
        <ele>109</ele>
        <time>2011-08-28T09:25:41Z</time>
      </trkpt>
      <trkpt lat="47.2319" lon="0.00692">
        <ele>109</ele>
        <time>2011-08-28T09:25:45Z</time>
      </trkpt>
      <trkpt lat="47.23188" lon="0.00699">
        <ele>110</ele>
        <time>2011-08-28T09:25:49Z</time>
      </trkpt>
      <trkpt lat="47.23187" lon="0.00706">
        <ele>110</ele>
        <time>2011-08-28T09:25:53Z</time>
      </trkpt>
      <trkpt lat="47.23185" lon="0.00714">
        <ele>110</ele>
        <time>2011-08-28T09:25:57Z</time>
      </trkpt>
      <trkpt lat="47.23183" lon="0.00721">
        <ele>110</ele>
        <time>2011-08-28T09:26:01Z</time>
      </trkpt>
      <trkpt lat="47.23182" lon="0.00729">
        <ele>110</ele>
        <time>2011-08-28T09:26:05Z</time>
      </trkpt>
      <trkpt lat="47.2318" lon="0.00736">
        <ele>110</ele>
        <time>2011-08-28T09:26:09Z</time>
      </trkpt>
      <trkpt lat="47.23178" lon="0.00742">
        <ele>110</ele>
        <time>2011-08-28T09:26:13Z</time>
      </trkpt>
      <trkpt lat="47.23176" lon="0.00748">
        <ele>111</ele>
        <time>2011-08-28T09:26:17Z</time>
      </trkpt>
      <trkpt lat="47.23174" lon="0.00755">
        <ele>111</ele>
        <time>2011-08-28T09:26:21Z</time>
      </trkpt>
      <trkpt lat="47.23173" lon="0.00762">
        <ele>111</ele>
        <time>2011-08-28T09:26:25Z</time>
      </trkpt>
      <trkpt lat="47.23172" lon="0.00769">
        <ele>111</ele>
        <time>2011-08-28T09:26:29Z</time>
      </trkpt>
      <trkpt lat="47.2317" lon="0.00776">
        <ele>111</ele>
        <time>2011-08-28T09:26:33Z</time>
      </trkpt>
      <trkpt lat="47.23169" lon="0.00783">
        <ele>111</ele>
        <time>2011-08-28T09:26:37Z</time>
      </trkpt>
      <trkpt lat="47.23167" lon="0.0079">
        <ele>112</ele>
        <time>2011-08-28T09:26:41Z</time>
      </trkpt>
      <trkpt lat="47.23164" lon="0.00796">
        <ele>112</ele>
        <time>2011-08-28T09:26:46Z</time>
      </trkpt>
      <trkpt lat="47.23161" lon="0.00803">
        <ele>112</ele>
        <time>2011-08-28T09:26:51Z</time>
      </trkpt>
      <trkpt lat="47.23158" lon="0.00809">
        <ele>112</ele>
        <time>2011-08-28T09:26:56Z</time>
      </trkpt>
      <trkpt lat="47.23156" lon="0.00816">
        <ele>112</ele>
        <time>2011-08-28T09:27:01Z</time>
      </trkpt>
      <trkpt lat="47.23154" lon="0.00822">
        <ele>113</ele>
        <time>2011-08-28T09:27:09Z</time>
      </trkpt>
      <trkpt lat="47.23156" lon="0.00828">
        <ele>113</ele>
        <time>2011-08-28T09:28:07Z</time>
      </trkpt>
      <trkpt lat="47.23153" lon="0.00824">
        <ele>113</ele>
        <time>2011-08-28T09:33:56Z</time>
      </trkpt>
      <trkpt lat="47.23151" lon="0.0083">
        <ele>113</ele>
        <time>2011-08-28T09:34:33Z</time>
      </trkpt>
      <trkpt lat="47.2315" lon="0.00824">
        <ele>113</ele>
        <time>2011-08-28T09:35:25Z</time>
      </trkpt>
      <trkpt lat="47.23147" lon="0.00828">
        <ele>113</ele>
        <time>2011-08-28T09:36:20Z</time>
      </trkpt>
      <trkpt lat="47.23144" lon="0.00833">
        <ele>114</ele>
        <time>2011-08-28T09:36:24Z</time>
      </trkpt>
      <trkpt lat="47.2314" lon="0.00839">
        <ele>114</ele>
        <time>2011-08-28T09:36:29Z</time>
      </trkpt>
      <trkpt lat="47.23136" lon="0.00844">
        <ele>114</ele>
        <time>2011-08-28T09:36:34Z</time>
      </trkpt>
      <trkpt lat="47.23132" lon="0.00849">
        <ele>114</ele>
        <time>2011-08-28T09:36:39Z</time>
      </trkpt>
      <trkpt lat="47.23128" lon="0.00854">
        <ele>114</ele>
        <time>2011-08-28T09:36:44Z</time>
      </trkpt>
      <trkpt lat="47.23125" lon="0.0086">
        <ele>114</ele>
        <time>2011-08-28T09:36:49Z</time>
      </trkpt>
      <trkpt lat="47.23122" lon="0.00866">
        <ele>115</ele>
        <time>2011-08-28T09:36:54Z</time>
      </trkpt>
      <trkpt lat="47.23118" lon="0.00872">
        <ele>115</ele>
        <time>2011-08-28T09:36:59Z</time>
      </trkpt>
      <trkpt lat="47.23115" lon="0.00878">
        <ele>115</ele>
        <time>2011-08-28T09:37:04Z</time>
      </trkpt>
      <trkpt lat="47.23113" lon="0.00884">
        <ele>115</ele>
        <time>2011-08-28T09:37:08Z</time>
      </trkpt>
      <trkpt lat="47.23111" lon="0.00891">
        <ele>115</ele>
        <time>2011-08-28T09:37:12Z</time>
      </trkpt>
      <trkpt lat="47.2311" lon="0.00899">
        <ele>115</ele>
        <time>2011-08-28T09:37:16Z</time>
      </trkpt>
      <trkpt lat="47.2311" lon="0.00908">
        <ele>115</ele>
        <time>2011-08-28T09:37:20Z</time>
      </trkpt>
      <trkpt lat="47.23109" lon="0.00915">
        <ele>115</ele>
        <time>2011-08-28T09:37:24Z</time>
      </trkpt>
      <trkpt lat="47.23109" lon="0.00922">
        <ele>115</ele>
        <time>2011-08-28T09:37:28Z</time>
      </trkpt>
      <trkpt lat="47.23108" lon="0.00929">
        <ele>115</ele>
        <time>2011-08-28T09:37:32Z</time>
      </trkpt>
      <trkpt lat="47.23109" lon="0.00936">
        <ele>115</ele>
        <time>2011-08-28T09:37:36Z</time>
      </trkpt>
      <trkpt lat="47.23108" lon="0.00944">
        <ele>115</ele>
        <time>2011-08-28T09:37:40Z</time>
      </trkpt>
      <trkpt lat="47.23108" lon="0.00951">
        <ele>115</ele>
        <time>2011-08-28T09:37:43Z</time>
      </trkpt>
      <trkpt lat="47.23106" lon="0.00957">
        <ele>116</ele>
        <time>2011-08-28T09:37:46Z</time>
      </trkpt>
      <trkpt lat="47.23105" lon="0.00965">
        <ele>116</ele>
        <time>2011-08-28T09:37:50Z</time>
      </trkpt>
      <trkpt lat="47.23104" lon="0.00973">
        <ele>116</ele>
        <time>2011-08-28T09:37:54Z</time>
      </trkpt>
      <trkpt lat="47.23102" lon="0.00981">
        <ele>116</ele>
        <time>2011-08-28T09:37:58Z</time>
      </trkpt>
      <trkpt lat="47.23101" lon="0.00988">
        <ele>116</ele>
        <time>2011-08-28T09:38:02Z</time>
      </trkpt>
      <trkpt lat="47.23099" lon="0.00995">
        <ele>116</ele>
        <time>2011-08-28T09:38:06Z</time>
      </trkpt>
      <trkpt lat="47.23098" lon="0.01002">
        <ele>116</ele>
        <time>2011-08-28T09:38:10Z</time>
      </trkpt>
      <trkpt lat="47.23096" lon="0.01008">
        <ele>116</ele>
        <time>2011-08-28T09:38:14Z</time>
      </trkpt>
      <trkpt lat="47.23093" lon="0.01014">
        <ele>117</ele>
        <time>2011-08-28T09:38:18Z</time>
      </trkpt>
      <trkpt lat="47.2309" lon="0.01021">
        <ele>117</ele>
        <time>2011-08-28T09:38:22Z</time>
      </trkpt>
      <trkpt lat="47.23088" lon="0.01028">
        <ele>117</ele>
        <time>2011-08-28T09:38:26Z</time>
      </trkpt>
      <trkpt lat="47.23086" lon="0.01036">
        <ele>117</ele>
        <time>2011-08-28T09:38:30Z</time>
      </trkpt>
      <trkpt lat="47.23084" lon="0.01042">
        <ele>117</ele>
        <time>2011-08-28T09:38:34Z</time>
      </trkpt>
      <trkpt lat="47.23081" lon="0.01049">
        <ele>117</ele>
        <time>2011-08-28T09:38:38Z</time>
      </trkpt>
      <trkpt lat="47.23079" lon="0.01055">
        <ele>117</ele>
        <time>2011-08-28T09:38:42Z</time>
      </trkpt>
      <trkpt lat="47.23076" lon="0.01062">
        <ele>117</ele>
        <time>2011-08-28T09:38:46Z</time>
      </trkpt>
      <trkpt lat="47.23074" lon="0.01068">
        <ele>117</ele>
        <time>2011-08-28T09:38:50Z</time>
      </trkpt>
      <trkpt lat="47.23071" lon="0.01074">
        <ele>117</ele>
        <time>2011-08-28T09:38:54Z</time>
      </trkpt>
      <trkpt lat="47.23068" lon="0.0108">
        <ele>118</ele>
        <time>2011-08-28T09:38:58Z</time>
      </trkpt>
      <trkpt lat="47.23065" lon="0.01086">
        <ele>118</ele>
        <time>2011-08-28T09:39:02Z</time>
      </trkpt>
      <trkpt lat="47.23062" lon="0.01092">
        <ele>118</ele>
        <time>2011-08-28T09:39:06Z</time>
      </trkpt>
      <trkpt lat="47.23058" lon="0.01099">
        <ele>118</ele>
        <time>2011-08-28T09:39:10Z</time>
      </trkpt>
      <trkpt lat="47.23056" lon="0.01106">
        <ele>118</ele>
        <time>2011-08-28T09:39:14Z</time>
      </trkpt>
      <trkpt lat="47.23054" lon="0.01112">
        <ele>118</ele>
        <time>2011-08-28T09:39:18Z</time>
      </trkpt>
      <trkpt lat="47.23051" lon="0.01119">
        <ele>118</ele>
        <time>2011-08-28T09:39:22Z</time>
      </trkpt>
      <trkpt lat="47.23048" lon="0.01126">
        <ele>119</ele>
        <time>2011-08-28T09:39:26Z</time>
      </trkpt>
      <trkpt lat="47.23046" lon="0.01132">
        <ele>119</ele>
        <time>2011-08-28T09:39:30Z</time>
      </trkpt>
      <trkpt lat="47.23043" lon="0.01139">
        <ele>119</ele>
        <time>2011-08-28T09:39:34Z</time>
      </trkpt>
      <trkpt lat="47.2304" lon="0.01146">
        <ele>119</ele>
        <time>2011-08-28T09:39:38Z</time>
      </trkpt>
      <trkpt lat="47.23037" lon="0.01152">
        <ele>119</ele>
        <time>2011-08-28T09:39:42Z</time>
      </trkpt>
      <trkpt lat="47.23034" lon="0.01159">
        <ele>119</ele>
        <time>2011-08-28T09:39:46Z</time>
      </trkpt>
      <trkpt lat="47.2303" lon="0.01165">
        <ele>119</ele>
        <time>2011-08-28T09:39:50Z</time>
      </trkpt>
      <trkpt lat="47.23027" lon="0.01171">
        <ele>119</ele>
        <time>2011-08-28T09:39:54Z</time>
      </trkpt>
      <trkpt lat="47.23024" lon="0.01177">
        <ele>119</ele>
        <time>2011-08-28T09:39:58Z</time>
      </trkpt>
      <trkpt lat="47.23021" lon="0.01182">
        <ele>119</ele>
        <time>2011-08-28T09:40:02Z</time>
      </trkpt>
      <trkpt lat="47.23018" lon="0.01189">
        <ele>119</ele>
        <time>2011-08-28T09:40:06Z</time>
      </trkpt>
      <trkpt lat="47.23016" lon="0.01195">
        <ele>119</ele>
        <time>2011-08-28T09:40:10Z</time>
      </trkpt>
      <trkpt lat="47.23013" lon="0.01203">
        <ele>119</ele>
        <time>2011-08-28T09:40:14Z</time>
      </trkpt>
      <trkpt lat="47.2301" lon="0.0121">
        <ele>119</ele>
        <time>2011-08-28T09:40:18Z</time>
      </trkpt>
      <trkpt lat="47.23007" lon="0.01216">
        <ele>119</ele>
        <time>2011-08-28T09:40:22Z</time>
      </trkpt>
      <trkpt lat="47.23005" lon="0.01223">
        <ele>119</ele>
        <time>2011-08-28T09:40:26Z</time>
      </trkpt>
      <trkpt lat="47.23002" lon="0.01229">
        <ele>119</ele>
        <time>2011-08-28T09:40:30Z</time>
      </trkpt>
      <trkpt lat="47.22999" lon="0.01235">
        <ele>119</ele>
        <time>2011-08-28T09:40:34Z</time>
      </trkpt>
      <trkpt lat="47.22997" lon="0.01241">
        <ele>118</ele>
        <time>2011-08-28T09:40:38Z</time>
      </trkpt>
      <trkpt lat="47.22994" lon="0.01247">
        <ele>118</ele>
        <time>2011-08-28T09:40:42Z</time>
      </trkpt>
      <trkpt lat="47.22991" lon="0.01253">
        <ele>118</ele>
        <time>2011-08-28T09:40:46Z</time>
      </trkpt>
      <trkpt lat="47.22987" lon="0.01258">
        <ele>118</ele>
        <time>2011-08-28T09:40:50Z</time>
      </trkpt>
      <trkpt lat="47.22983" lon="0.01263">
        <ele>118</ele>
        <time>2011-08-28T09:40:54Z</time>
      </trkpt>
      <trkpt lat="47.22979" lon="0.01268">
        <ele>118</ele>
        <time>2011-08-28T09:40:58Z</time>
      </trkpt>
      <trkpt lat="47.22975" lon="0.01271">
        <ele>118</ele>
        <time>2011-08-28T09:41:02Z</time>
      </trkpt>
      <trkpt lat="47.22971" lon="0.01274">
        <ele>118</ele>
        <time>2011-08-28T09:41:06Z</time>
      </trkpt>
      <trkpt lat="47.22966" lon="0.01276">
        <ele>118</ele>
        <time>2011-08-28T09:41:10Z</time>
      </trkpt>
      <trkpt lat="47.22962" lon="0.01278">
        <ele>118</ele>
        <time>2011-08-28T09:41:14Z</time>
      </trkpt>
      <trkpt lat="47.22958" lon="0.01281">
        <ele>118</ele>
        <time>2011-08-28T09:41:18Z</time>
      </trkpt>
      <trkpt lat="47.22953" lon="0.01284">
        <ele>118</ele>
        <time>2011-08-28T09:41:22Z</time>
      </trkpt>
      <trkpt lat="47.22948" lon="0.01287">
        <ele>118</ele>
        <time>2011-08-28T09:41:26Z</time>
      </trkpt>
      <trkpt lat="47.22943" lon="0.0129">
        <ele>118</ele>
        <time>2011-08-28T09:41:30Z</time>
      </trkpt>
      <trkpt lat="47.22938" lon="0.01293">
        <ele>118</ele>
        <time>2011-08-28T09:41:34Z</time>
      </trkpt>
      <trkpt lat="47.22933" lon="0.01297">
        <ele>118</ele>
        <time>2011-08-28T09:41:38Z</time>
      </trkpt>
      <trkpt lat="47.22928" lon="0.01301">
        <ele>118</ele>
        <time>2011-08-28T09:41:42Z</time>
      </trkpt>
      <trkpt lat="47.22923" lon="0.01305">
        <ele>118</ele>
        <time>2011-08-28T09:41:46Z</time>
      </trkpt>
      <trkpt lat="47.22918" lon="0.01309">
        <ele>118</ele>
        <time>2011-08-28T09:41:50Z</time>
      </trkpt>
      <trkpt lat="47.22914" lon="0.01314">
        <ele>118</ele>
        <time>2011-08-28T09:41:54Z</time>
      </trkpt>
      <trkpt lat="47.22911" lon="0.01319">
        <ele>118</ele>
        <time>2011-08-28T09:41:58Z</time>
      </trkpt>
      <trkpt lat="47.22907" lon="0.01324">
        <ele>118</ele>
        <time>2011-08-28T09:42:02Z</time>
      </trkpt>
      <trkpt lat="47.22904" lon="0.0133">
        <ele>118</ele>
        <time>2011-08-28T09:42:06Z</time>
      </trkpt>
      <trkpt lat="47.229" lon="0.01336">
        <ele>118</ele>
        <time>2011-08-28T09:42:10Z</time>
      </trkpt>
      <trkpt lat="47.22897" lon="0.01342">
        <ele>118</ele>
        <time>2011-08-28T09:42:14Z</time>
      </trkpt>
      <trkpt lat="47.22894" lon="0.01348">
        <ele>118</ele>
        <time>2011-08-28T09:42:18Z</time>
      </trkpt>
      <trkpt lat="47.2289" lon="0.01354">
        <ele>118</ele>
        <time>2011-08-28T09:42:22Z</time>
      </trkpt>
      <trkpt lat="47.22888" lon="0.01361">
        <ele>118</ele>
        <time>2011-08-28T09:42:26Z</time>
      </trkpt>
      <trkpt lat="47.22885" lon="0.01367">
        <ele>118</ele>
        <time>2011-08-28T09:42:30Z</time>
      </trkpt>
      <trkpt lat="47.22882" lon="0.01373">
        <ele>118</ele>
        <time>2011-08-28T09:42:34Z</time>
      </trkpt>
      <trkpt lat="47.22879" lon="0.01378">
        <ele>118</ele>
        <time>2011-08-28T09:42:38Z</time>
      </trkpt>
      <trkpt lat="47.22875" lon="0.01384">
        <ele>118</ele>
        <time>2011-08-28T09:42:42Z</time>
      </trkpt>
      <trkpt lat="47.22872" lon="0.01389">
        <ele>118</ele>
        <time>2011-08-28T09:42:46Z</time>
      </trkpt>
      <trkpt lat="47.22868" lon="0.01395">
        <ele>118</ele>
        <time>2011-08-28T09:42:51Z</time>
      </trkpt>
      <trkpt lat="47.22864" lon="0.014">
        <ele>118</ele>
        <time>2011-08-28T09:42:56Z</time>
      </trkpt>
      <trkpt lat="47.2286" lon="0.01405">
        <ele>118</ele>
        <time>2011-08-28T09:43:00Z</time>
      </trkpt>
      <trkpt lat="47.22855" lon="0.01407">
        <ele>118</ele>
        <time>2011-08-28T09:43:04Z</time>
      </trkpt>
      <trkpt lat="47.22851" lon="0.01405">
        <ele>118</ele>
        <time>2011-08-28T09:43:09Z</time>
      </trkpt>
      <trkpt lat="47.22846" lon="0.014">
        <ele>117</ele>
        <time>2011-08-28T09:43:14Z</time>
      </trkpt>
      <trkpt lat="47.22843" lon="0.01395">
        <ele>117</ele>
        <time>2011-08-28T09:43:19Z</time>
      </trkpt>
      <trkpt lat="47.22838" lon="0.01391">
        <ele>117</ele>
        <time>2011-08-28T09:43:24Z</time>
      </trkpt>
      <trkpt lat="47.22834" lon="0.01386">
        <ele>117</ele>
        <time>2011-08-28T09:43:28Z</time>
      </trkpt>
      <trkpt lat="47.2283" lon="0.01381">
        <ele>117</ele>
        <time>2011-08-28T09:43:32Z</time>
      </trkpt>
      <trkpt lat="47.22828" lon="0.01375">
        <ele>117</ele>
        <time>2011-08-28T09:43:36Z</time>
      </trkpt>
      <trkpt lat="47.22824" lon="0.0137">
        <ele>117</ele>
        <time>2011-08-28T09:43:40Z</time>
      </trkpt>
      <trkpt lat="47.22821" lon="0.01365">
        <ele>117</ele>
        <time>2011-08-28T09:43:44Z</time>
      </trkpt>
      <trkpt lat="47.22817" lon="0.0136">
        <ele>117</ele>
        <time>2011-08-28T09:43:48Z</time>
      </trkpt>
      <trkpt lat="47.22814" lon="0.01355">
        <ele>117</ele>
        <time>2011-08-28T09:43:52Z</time>
      </trkpt>
      <trkpt lat="47.2281" lon="0.01351">
        <ele>117</ele>
        <time>2011-08-28T09:43:56Z</time>
      </trkpt>
      <trkpt lat="47.22806" lon="0.01347">
        <ele>117</ele>
        <time>2011-08-28T09:44:00Z</time>
      </trkpt>
      <trkpt lat="47.22801" lon="0.01343">
        <ele>117</ele>
        <time>2011-08-28T09:44:04Z</time>
      </trkpt>
      <trkpt lat="47.22797" lon="0.01339">
        <ele>117</ele>
        <time>2011-08-28T09:44:08Z</time>
      </trkpt>
      <trkpt lat="47.22794" lon="0.01335">
        <ele>117</ele>
        <time>2011-08-28T09:44:12Z</time>
      </trkpt>
      <trkpt lat="47.2279" lon="0.01331">
        <ele>117</ele>
        <time>2011-08-28T09:44:16Z</time>
      </trkpt>
      <trkpt lat="47.22786" lon="0.01327">
        <ele>117</ele>
        <time>2011-08-28T09:44:20Z</time>
      </trkpt>
      <trkpt lat="47.22782" lon="0.01323">
        <ele>117</ele>
        <time>2011-08-28T09:44:24Z</time>
      </trkpt>
      <trkpt lat="47.22777" lon="0.01319">
        <ele>117</ele>
        <time>2011-08-28T09:44:28Z</time>
      </trkpt>
      <trkpt lat="47.22773" lon="0.01315">
        <ele>118</ele>
        <time>2011-08-28T09:44:32Z</time>
      </trkpt>
      <trkpt lat="47.22769" lon="0.01311">
        <ele>118</ele>
        <time>2011-08-28T09:44:36Z</time>
      </trkpt>
      <trkpt lat="47.22764" lon="0.01307">
        <ele>118</ele>
        <time>2011-08-28T09:44:44Z</time>
      </trkpt>
      <trkpt lat="47.2276" lon="0.01302">
        <ele>118</ele>
        <time>2011-08-28T09:44:48Z</time>
      </trkpt>
      <trkpt lat="47.22756" lon="0.01298">
        <ele>118</ele>
        <time>2011-08-28T09:44:52Z</time>
      </trkpt>
      <trkpt lat="47.22751" lon="0.01293">
        <ele>118</ele>
        <time>2011-08-28T09:44:56Z</time>
      </trkpt>
      <trkpt lat="47.22748" lon="0.01288">
        <ele>119</ele>
        <time>2011-08-28T09:45:00Z</time>
      </trkpt>
      <trkpt lat="47.22744" lon="0.01284">
        <ele>119</ele>
        <time>2011-08-28T09:45:04Z</time>
      </trkpt>
      <trkpt lat="47.2274" lon="0.0128">
        <ele>119</ele>
        <time>2011-08-28T09:45:10Z</time>
      </trkpt>
      <trkpt lat="47.22736" lon="0.01275">
        <ele>119</ele>
        <time>2011-08-28T09:45:14Z</time>
      </trkpt>
      <trkpt lat="47.22733" lon="0.01271">
        <ele>119</ele>
        <time>2011-08-28T09:45:18Z</time>
      </trkpt>
      <trkpt lat="47.22728" lon="0.01267">
        <ele>119</ele>
        <time>2011-08-28T09:45:22Z</time>
      </trkpt>
      <trkpt lat="47.22724" lon="0.01263">
        <ele>120</ele>
        <time>2011-08-28T09:45:26Z</time>
      </trkpt>
      <trkpt lat="47.22719" lon="0.01258">
        <ele>120</ele>
        <time>2011-08-28T09:45:30Z</time>
      </trkpt>
      <trkpt lat="47.22714" lon="0.01254">
        <ele>120</ele>
        <time>2011-08-28T09:45:34Z</time>
      </trkpt>
      <trkpt lat="47.2271" lon="0.0125">
        <ele>120</ele>
        <time>2011-08-28T09:45:38Z</time>
      </trkpt>
      <trkpt lat="47.22707" lon="0.01245">
        <ele>120</ele>
        <time>2011-08-28T09:45:42Z</time>
      </trkpt>
      <trkpt lat="47.22703" lon="0.01241">
        <ele>120</ele>
        <time>2011-08-28T09:45:46Z</time>
      </trkpt>
      <trkpt lat="47.22699" lon="0.01236">
        <ele>120</ele>
        <time>2011-08-28T09:45:50Z</time>
      </trkpt>
      <trkpt lat="47.22695" lon="0.01232">
        <ele>121</ele>
        <time>2011-08-28T09:45:54Z</time>
      </trkpt>
      <trkpt lat="47.2269" lon="0.0123">
        <ele>121</ele>
        <time>2011-08-28T09:45:59Z</time>
      </trkpt>
      <trkpt lat="47.22685" lon="0.01232">
        <ele>121</ele>
        <time>2011-08-28T09:46:04Z</time>
      </trkpt>
      <trkpt lat="47.22682" lon="0.01236">
        <ele>121</ele>
        <time>2011-08-28T09:46:08Z</time>
      </trkpt>
      <trkpt lat="47.22678" lon="0.01242">
        <ele>121</ele>
        <time>2011-08-28T09:46:12Z</time>
      </trkpt>
      <trkpt lat="47.22675" lon="0.01249">
        <ele>121</ele>
        <time>2011-08-28T09:46:16Z</time>
      </trkpt>
      <trkpt lat="47.22671" lon="0.01255">
        <ele>121</ele>
        <time>2011-08-28T09:46:20Z</time>
      </trkpt>
      <trkpt lat="47.22668" lon="0.01262">
        <ele>121</ele>
        <time>2011-08-28T09:46:24Z</time>
      </trkpt>
      <trkpt lat="47.22664" lon="0.01268">
        <ele>121</ele>
        <time>2011-08-28T09:46:28Z</time>
      </trkpt>
      <trkpt lat="47.22661" lon="0.01275">
        <ele>121</ele>
        <time>2011-08-28T09:46:32Z</time>
      </trkpt>
      <trkpt lat="47.22658" lon="0.01281">
        <ele>121</ele>
        <time>2011-08-28T09:46:36Z</time>
      </trkpt>
      <trkpt lat="47.22655" lon="0.01287">
        <ele>121</ele>
        <time>2011-08-28T09:46:40Z</time>
      </trkpt>
      <trkpt lat="47.22652" lon="0.01294">
        <ele>121</ele>
        <time>2011-08-28T09:46:44Z</time>
      </trkpt>
      <trkpt lat="47.22649" lon="0.013">
        <ele>121</ele>
        <time>2011-08-28T09:46:48Z</time>
      </trkpt>
      <trkpt lat="47.22646" lon="0.01306">
        <ele>121</ele>
        <time>2011-08-28T09:46:52Z</time>
      </trkpt>
      <trkpt lat="47.22643" lon="0.01312">
        <ele>121</ele>
        <time>2011-08-28T09:46:56Z</time>
      </trkpt>
      <trkpt lat="47.2264" lon="0.01318">
        <ele>121</ele>
        <time>2011-08-28T09:47:00Z</time>
      </trkpt>
      <trkpt lat="47.22636" lon="0.01324">
        <ele>121</ele>
        <time>2011-08-28T09:47:04Z</time>
      </trkpt>
      <trkpt lat="47.22633" lon="0.01329">
        <ele>121</ele>
        <time>2011-08-28T09:47:08Z</time>
      </trkpt>
      <trkpt lat="47.2263" lon="0.01335">
        <ele>121</ele>
        <time>2011-08-28T09:47:12Z</time>
      </trkpt>
      <trkpt lat="47.22627" lon="0.01342">
        <ele>121</ele>
        <time>2011-08-28T09:47:16Z</time>
      </trkpt>
      <trkpt lat="47.22625" lon="0.01349">
        <ele>121</ele>
        <time>2011-08-28T09:47:20Z</time>
      </trkpt>
      <trkpt lat="47.22622" lon="0.01355">
        <ele>121</ele>
        <time>2011-08-28T09:47:24Z</time>
      </trkpt>
      <trkpt lat="47.22618" lon="0.0136">
        <ele>121</ele>
        <time>2011-08-28T09:47:28Z</time>
      </trkpt>
      <trkpt lat="47.22615" lon="0.01366">
        <ele>121</ele>
        <time>2011-08-28T09:47:32Z</time>
      </trkpt>
      <trkpt lat="47.22612" lon="0.01372">
        <ele>121</ele>
        <time>2011-08-28T09:47:36Z</time>
      </trkpt>
      <trkpt lat="47.22609" lon="0.01378">
        <ele>120</ele>
        <time>2011-08-28T09:47:40Z</time>
      </trkpt>
      <trkpt lat="47.22606" lon="0.01384">
        <ele>120</ele>
        <time>2011-08-28T09:47:44Z</time>
      </trkpt>
      <trkpt lat="47.22603" lon="0.0139">
        <ele>120</ele>
        <time>2011-08-28T09:47:48Z</time>
      </trkpt>
      <trkpt lat="47.22599" lon="0.01396">
        <ele>120</ele>
        <time>2011-08-28T09:47:52Z</time>
      </trkpt>
      <trkpt lat="47.22596" lon="0.01401">
        <ele>120</ele>
        <time>2011-08-28T09:47:56Z</time>
      </trkpt>
      <trkpt lat="47.22593" lon="0.01406">
        <ele>120</ele>
        <time>2011-08-28T09:48:00Z</time>
      </trkpt>
      <trkpt lat="47.2259" lon="0.01412">
        <ele>120</ele>
        <time>2011-08-28T09:48:04Z</time>
      </trkpt>
      <trkpt lat="47.22587" lon="0.01418">
        <ele>120</ele>
        <time>2011-08-28T09:48:08Z</time>
      </trkpt>
      <trkpt lat="47.22582" lon="0.01422">
        <ele>120</ele>
        <time>2011-08-28T09:48:13Z</time>
      </trkpt>
      <trkpt lat="47.22578" lon="0.01426">
        <ele>120</ele>
        <time>2011-08-28T09:48:17Z</time>
      </trkpt>
      <trkpt lat="47.22573" lon="0.01428">
        <ele>120</ele>
        <time>2011-08-28T09:48:22Z</time>
      </trkpt>
      <trkpt lat="47.22569" lon="0.01424">
        <ele>119</ele>
        <time>2011-08-28T09:48:27Z</time>
      </trkpt>
      <trkpt lat="47.22565" lon="0.01419">
        <ele>119</ele>
        <time>2011-08-28T09:48:31Z</time>
      </trkpt>
      <trkpt lat="47.22562" lon="0.01414">
        <ele>119</ele>
        <time>2011-08-28T09:48:35Z</time>
      </trkpt>
      <trkpt lat="47.22558" lon="0.0141">
        <ele>119</ele>
        <time>2011-08-28T09:48:39Z</time>
      </trkpt>
      <trkpt lat="47.22555" lon="0.01405">
        <ele>119</ele>
        <time>2011-08-28T09:48:43Z</time>
      </trkpt>
      <trkpt lat="47.22551" lon="0.014">
        <ele>119</ele>
        <time>2011-08-28T09:48:48Z</time>
      </trkpt>
      <trkpt lat="47.22546" lon="0.014">
        <ele>119</ele>
        <time>2011-08-28T09:48:54Z</time>
      </trkpt>
      <trkpt lat="47.22541" lon="0.014">
        <ele>119</ele>
        <time>2011-08-28T09:48:59Z</time>
      </trkpt>
      <trkpt lat="47.22536" lon="0.01398">
        <ele>119</ele>
        <time>2011-08-28T09:49:04Z</time>
      </trkpt>
      <trkpt lat="47.22531" lon="0.01397">
        <ele>119</ele>
        <time>2011-08-28T09:49:12Z</time>
      </trkpt>
      <trkpt lat="47.22526" lon="0.014">
        <ele>119</ele>
        <time>2011-08-28T09:49:21Z</time>
      </trkpt>
      <trkpt lat="47.22523" lon="0.01406">
        <ele>119</ele>
        <time>2011-08-28T09:49:30Z</time>
      </trkpt>
      <trkpt lat="47.2252" lon="0.01413">
        <ele>118</ele>
        <time>2011-08-28T09:49:33Z</time>
      </trkpt>
      <trkpt lat="47.22518" lon="0.0142">
        <ele>118</ele>
        <time>2011-08-28T09:49:37Z</time>
      </trkpt>
      <trkpt lat="47.22516" lon="0.01427">
        <ele>118</ele>
        <time>2011-08-28T09:49:42Z</time>
      </trkpt>
      <trkpt lat="47.22514" lon="0.01433">
        <ele>118</ele>
        <time>2011-08-28T09:49:47Z</time>
      </trkpt>
      <trkpt lat="47.22513" lon="0.0144">
        <ele>117</ele>
        <time>2011-08-28T09:49:53Z</time>
      </trkpt>
      <trkpt lat="47.22511" lon="0.01447">
        <ele>117</ele>
        <time>2011-08-28T09:50:00Z</time>
      </trkpt>
      <trkpt lat="47.2251" lon="0.01454">
        <ele>117</ele>
        <time>2011-08-28T09:50:09Z</time>
      </trkpt>
      <trkpt lat="47.22508" lon="0.0146">
        <ele>116</ele>
        <time>2011-08-28T09:50:17Z</time>
      </trkpt>
      <trkpt lat="47.22506" lon="0.01467">
        <ele>116</ele>
        <time>2011-08-28T09:50:25Z</time>
      </trkpt>
      <trkpt lat="47.2251" lon="0.01468">
        <ele>115</ele>
        <time>2011-08-28T09:51:21Z</time>
      </trkpt>
      <trkpt lat="47.22513" lon="0.01463">
        <ele>115</ele>
        <time>2011-08-28T09:51:35Z</time>
      </trkpt>
      <trkpt lat="47.22511" lon="0.01457">
        <ele>114</ele>
        <time>2011-08-28T09:52:03Z</time>
      </trkpt>
      <trkpt lat="47.22512" lon="0.01464">
        <ele>114</ele>
        <time>2011-08-28T09:52:44Z</time>
      </trkpt>
      <trkpt lat="47.22516" lon="0.01469">
        <ele>113</ele>
        <time>2011-08-28T09:52:48Z</time>
      </trkpt>
      <trkpt lat="47.22519" lon="0.01474">
        <ele>113</ele>
        <time>2011-08-28T09:52:52Z</time>
      </trkpt>
      <trkpt lat="47.22523" lon="0.0148">
        <ele>113</ele>
        <time>2011-08-28T09:52:56Z</time>
      </trkpt>
      <trkpt lat="47.22528" lon="0.01483">
        <ele>113</ele>
        <time>2011-08-28T09:53:00Z</time>
      </trkpt>
      <trkpt lat="47.22532" lon="0.01487">
        <ele>113</ele>
        <time>2011-08-28T09:53:04Z</time>
      </trkpt>
      <trkpt lat="47.22536" lon="0.01491">
        <ele>112</ele>
        <time>2011-08-28T09:53:08Z</time>
      </trkpt>
      <trkpt lat="47.2254" lon="0.01496">
        <ele>112</ele>
        <time>2011-08-28T09:53:12Z</time>
      </trkpt>
      <trkpt lat="47.22544" lon="0.015">
        <ele>112</ele>
        <time>2011-08-28T09:53:16Z</time>
      </trkpt>
      <trkpt lat="47.22548" lon="0.01503">
        <ele>112</ele>
        <time>2011-08-28T09:53:20Z</time>
      </trkpt>
      <trkpt lat="47.22552" lon="0.01506">
        <ele>112</ele>
        <time>2011-08-28T09:53:24Z</time>
      </trkpt>
      <trkpt lat="47.22557" lon="0.0151">
        <ele>112</ele>
        <time>2011-08-28T09:53:29Z</time>
      </trkpt>
      <trkpt lat="47.22561" lon="0.01514">
        <ele>112</ele>
        <time>2011-08-28T09:53:34Z</time>
      </trkpt>
      <trkpt lat="47.22564" lon="0.01519">
        <ele>112</ele>
        <time>2011-08-28T09:53:39Z</time>
      </trkpt>
      <trkpt lat="47.22568" lon="0.01524">
        <ele>112</ele>
        <time>2011-08-28T09:53:44Z</time>
      </trkpt>
      <trkpt lat="47.22571" lon="0.01529">
        <ele>112</ele>
        <time>2011-08-28T09:53:49Z</time>
      </trkpt>
      <trkpt lat="47.22575" lon="0.01534">
        <ele>112</ele>
        <time>2011-08-28T09:53:54Z</time>
      </trkpt>
      <trkpt lat="47.22578" lon="0.01539">
        <ele>111</ele>
        <time>2011-08-28T09:53:59Z</time>
      </trkpt>
      <trkpt lat="47.22583" lon="0.01543">
        <ele>111</ele>
        <time>2011-08-28T09:54:04Z</time>
      </trkpt>
      <trkpt lat="47.22587" lon="0.01547">
        <ele>111</ele>
        <time>2011-08-28T09:54:09Z</time>
      </trkpt>
      <trkpt lat="47.22591" lon="0.01551">
        <ele>111</ele>
        <time>2011-08-28T09:54:14Z</time>
      </trkpt>
      <trkpt lat="47.22596" lon="0.01554">
        <ele>111</ele>
        <time>2011-08-28T09:54:19Z</time>
      </trkpt>
      <trkpt lat="47.226" lon="0.01556">
        <ele>111</ele>
        <time>2011-08-28T09:54:24Z</time>
      </trkpt>
      <trkpt lat="47.22605" lon="0.01559">
        <ele>111</ele>
        <time>2011-08-28T09:54:30Z</time>
      </trkpt>
      <trkpt lat="47.22609" lon="0.01562">
        <ele>111</ele>
        <time>2011-08-28T09:54:35Z</time>
      </trkpt>
      <trkpt lat="47.22614" lon="0.01563">
        <ele>111</ele>
        <time>2011-08-28T09:54:40Z</time>
      </trkpt>
      <trkpt lat="47.22618" lon="0.01567">
        <ele>111</ele>
        <time>2011-08-28T09:54:45Z</time>
      </trkpt>
      <trkpt lat="47.22622" lon="0.0157">
        <ele>111</ele>
        <time>2011-08-28T09:54:49Z</time>
      </trkpt>
      <trkpt lat="47.22627" lon="0.01571">
        <ele>111</ele>
        <time>2011-08-28T09:54:53Z</time>
      </trkpt>
      <trkpt lat="47.22632" lon="0.0157">
        <ele>111</ele>
        <time>2011-08-28T09:54:58Z</time>
      </trkpt>
      <trkpt lat="47.22637" lon="0.0157">
        <ele>111</ele>
        <time>2011-08-28T09:55:03Z</time>
      </trkpt>
      <trkpt lat="47.22642" lon="0.01573">
        <ele>111</ele>
        <time>2011-08-28T09:55:08Z</time>
      </trkpt>
      <trkpt lat="47.22646" lon="0.01576">
        <ele>111</ele>
        <time>2011-08-28T09:55:16Z</time>
      </trkpt>
      <trkpt lat="47.22651" lon="0.0158">
        <ele>111</ele>
        <time>2011-08-28T09:55:21Z</time>
      </trkpt>
      <trkpt lat="47.22656" lon="0.01583">
        <ele>111</ele>
        <time>2011-08-28T09:55:25Z</time>
      </trkpt>
      <trkpt lat="47.2266" lon="0.01585">
        <ele>111</ele>
        <time>2011-08-28T09:55:29Z</time>
      </trkpt>
      <trkpt lat="47.22664" lon="0.01588">
        <ele>111</ele>
        <time>2011-08-28T09:55:33Z</time>
      </trkpt>
      <trkpt lat="47.22669" lon="0.01585">
        <ele>110</ele>
        <time>2011-08-28T09:55:41Z</time>
      </trkpt>
      <trkpt lat="47.22671" lon="0.01578">
        <ele>110</ele>
        <time>2011-08-28T09:55:51Z</time>
      </trkpt>
      <trkpt lat="47.22673" lon="0.01573">
        <ele>110</ele>
        <time>2011-08-28T09:55:59Z</time>
      </trkpt>
      <trkpt lat="47.22669" lon="0.01573">
        <ele>110</ele>
        <time>2011-08-28T09:56:36Z</time>
      </trkpt>
      <trkpt lat="47.22667" lon="0.0158">
        <ele>109</ele>
        <time>2011-08-28T09:56:47Z</time>
      </trkpt>
      <trkpt lat="47.22663" lon="0.01583">
        <ele>109</ele>
        <time>2011-08-28T09:56:56Z</time>
      </trkpt>
      <trkpt lat="47.22658" lon="0.0158">
        <ele>108</ele>
        <time>2011-08-28T09:57:11Z</time>
      </trkpt>
      <trkpt lat="47.22653" lon="0.01578">
        <ele>108</ele>
        <time>2011-08-28T09:57:16Z</time>
      </trkpt>
      <trkpt lat="47.2265" lon="0.01583">
        <ele>108</ele>
        <time>2011-08-28T09:57:24Z</time>
      </trkpt>
      <trkpt lat="47.22648" lon="0.0159">
        <ele>107</ele>
        <time>2011-08-28T09:57:30Z</time>
      </trkpt>
      <trkpt lat="47.22646" lon="0.01595">
        <ele>107</ele>
        <time>2011-08-28T09:57:36Z</time>
      </trkpt>
      <trkpt lat="47.22644" lon="0.01602">
        <ele>107</ele>
        <time>2011-08-28T09:57:43Z</time>
      </trkpt>
      <trkpt lat="47.22643" lon="0.01609">
        <ele>106</ele>
        <time>2011-08-28T09:57:48Z</time>
      </trkpt>
      <trkpt lat="47.22643" lon="0.01616">
        <ele>106</ele>
        <time>2011-08-28T09:57:53Z</time>
      </trkpt>
      <trkpt lat="47.22643" lon="0.01623">
        <ele>106</ele>
        <time>2011-08-28T09:57:58Z</time>
      </trkpt>
      <trkpt lat="47.22642" lon="0.0163">
        <ele>106</ele>
        <time>2011-08-28T09:58:04Z</time>
      </trkpt>
      <trkpt lat="47.22644" lon="0.01636">
        <ele>107</ele>
        <time>2011-08-28T09:58:23Z</time>
      </trkpt>
      <trkpt lat="47.22647" lon="0.01642">
        <ele>107</ele>
        <time>2011-08-28T09:58:28Z</time>
      </trkpt>
      <trkpt lat="47.2265" lon="0.01648">
        <ele>107</ele>
        <time>2011-08-28T09:58:33Z</time>
      </trkpt>
      <trkpt lat="47.22654" lon="0.01653">
        <ele>107</ele>
        <time>2011-08-28T09:58:39Z</time>
      </trkpt>
      <trkpt lat="47.22658" lon="0.01657">
        <ele>107</ele>
        <time>2011-08-28T09:58:45Z</time>
      </trkpt>
      <trkpt lat="47.22662" lon="0.0166">
        <ele>107</ele>
        <time>2011-08-28T09:58:54Z</time>
      </trkpt>
      <trkpt lat="47.22666" lon="0.01664">
        <ele>107</ele>
        <time>2011-08-28T09:58:59Z</time>
      </trkpt>
      <trkpt lat="47.22669" lon="0.0167">
        <ele>107</ele>
        <time>2011-08-28T09:59:03Z</time>
      </trkpt>
      <trkpt lat="47.22673" lon="0.01674">
        <ele>107</ele>
        <time>2011-08-28T09:59:06Z</time>
      </trkpt>
      <trkpt lat="47.22677" lon="0.01679">
        <ele>107</ele>
        <time>2011-08-28T09:59:10Z</time>
      </trkpt>
      <trkpt lat="47.2268" lon="0.01684">
        <ele>107</ele>
        <time>2011-08-28T09:59:14Z</time>
      </trkpt>
      <trkpt lat="47.22684" lon="0.01687">
        <ele>107</ele>
        <time>2011-08-28T09:59:18Z</time>
      </trkpt>
      <trkpt lat="47.22689" lon="0.01692">
        <ele>107</ele>
        <time>2011-08-28T09:59:22Z</time>
      </trkpt>
      <trkpt lat="47.22693" lon="0.01697">
        <ele>107</ele>
        <time>2011-08-28T09:59:26Z</time>
      </trkpt>
      <trkpt lat="47.22697" lon="0.017">
        <ele>107</ele>
        <time>2011-08-28T09:59:29Z</time>
      </trkpt>
      <trkpt lat="47.22701" lon="0.01706">
        <ele>107</ele>
        <time>2011-08-28T09:59:33Z</time>
      </trkpt>
      <trkpt lat="47.22705" lon="0.0171">
        <ele>107</ele>
        <time>2011-08-28T09:59:37Z</time>
      </trkpt>
      <trkpt lat="47.22707" lon="0.01716">
        <ele>108</ele>
        <time>2011-08-28T09:59:41Z</time>
      </trkpt>
      <trkpt lat="47.22705" lon="0.01723">
        <ele>108</ele>
        <time>2011-08-28T09:59:47Z</time>
      </trkpt>
      <trkpt lat="47.22702" lon="0.01728">
        <ele>108</ele>
        <time>2011-08-28T09:59:51Z</time>
      </trkpt>
      <trkpt lat="47.22698" lon="0.01734">
        <ele>108</ele>
        <time>2011-08-28T09:59:55Z</time>
      </trkpt>
      <trkpt lat="47.22695" lon="0.01741">
        <ele>108</ele>
        <time>2011-08-28T09:59:59Z</time>
      </trkpt>
      <trkpt lat="47.22691" lon="0.01748">
        <ele>108</ele>
        <time>2011-08-28T10:00:03Z</time>
      </trkpt>
      <trkpt lat="47.22688" lon="0.01754">
        <ele>108</ele>
        <time>2011-08-28T10:00:07Z</time>
      </trkpt>
      <trkpt lat="47.22684" lon="0.0176">
        <ele>108</ele>
        <time>2011-08-28T10:00:11Z</time>
      </trkpt>
      <trkpt lat="47.22682" lon="0.01765">
        <ele>108</ele>
        <time>2011-08-28T10:00:15Z</time>
      </trkpt>
      <trkpt lat="47.22679" lon="0.01773">
        <ele>108</ele>
        <time>2011-08-28T10:00:20Z</time>
      </trkpt>
      <trkpt lat="47.22678" lon="0.01781">
        <ele>108</ele>
        <time>2011-08-28T10:00:25Z</time>
      </trkpt>
      <trkpt lat="47.22678" lon="0.01788">
        <ele>108</ele>
        <time>2011-08-28T10:00:30Z</time>
      </trkpt>
      <trkpt lat="47.22679" lon="0.01794">
        <ele>108</ele>
        <time>2011-08-28T10:00:35Z</time>
      </trkpt>
      <trkpt lat="47.22679" lon="0.01802">
        <ele>108</ele>
        <time>2011-08-28T10:00:40Z</time>
      </trkpt>
      <trkpt lat="47.22678" lon="0.0181">
        <ele>109</ele>
        <time>2011-08-28T10:00:45Z</time>
      </trkpt>
      <trkpt lat="47.2268" lon="0.01818">
        <ele>109</ele>
        <time>2011-08-28T10:00:50Z</time>
      </trkpt>
      <trkpt lat="47.22682" lon="0.01825">
        <ele>109</ele>
        <time>2011-08-28T10:00:55Z</time>
      </trkpt>
      <trkpt lat="47.22683" lon="0.01832">
        <ele>109</ele>
        <time>2011-08-28T10:01:00Z</time>
      </trkpt>
      <trkpt lat="47.22684" lon="0.01839">
        <ele>109</ele>
        <time>2011-08-28T10:01:04Z</time>
      </trkpt>
      <trkpt lat="47.22685" lon="0.01847">
        <ele>109</ele>
        <time>2011-08-28T10:01:09Z</time>
      </trkpt>
      <trkpt lat="47.22684" lon="0.01855">
        <ele>110</ele>
        <time>2011-08-28T10:01:14Z</time>
      </trkpt>
      <trkpt lat="47.22681" lon="0.01862">
        <ele>110</ele>
        <time>2011-08-28T10:01:19Z</time>
      </trkpt>
      <trkpt lat="47.22681" lon="0.01869">
        <ele>110</ele>
        <time>2011-08-28T10:01:24Z</time>
      </trkpt>
      <trkpt lat="47.22681" lon="0.01877">
        <ele>110</ele>
        <time>2011-08-28T10:01:29Z</time>
      </trkpt>
      <trkpt lat="47.22681" lon="0.01885">
        <ele>110</ele>
        <time>2011-08-28T10:01:34Z</time>
      </trkpt>
      <trkpt lat="47.22681" lon="0.01892">
        <ele>110</ele>
        <time>2011-08-28T10:01:39Z</time>
      </trkpt>
      <trkpt lat="47.22676" lon="0.01894">
        <ele>110</ele>
        <time>2011-08-28T10:01:46Z</time>
      </trkpt>
      <trkpt lat="47.22669" lon="0.01893">
        <ele>110</ele>
        <time>2011-08-28T10:01:49Z</time>
      </trkpt>
      <trkpt lat="47.22664" lon="0.01892">
        <ele>111</ele>
        <time>2011-08-28T10:01:51Z</time>
      </trkpt>
      <trkpt lat="47.22658" lon="0.01889">
        <ele>111</ele>
        <time>2011-08-28T10:01:54Z</time>
      </trkpt>
      <trkpt lat="47.22652" lon="0.01887">
        <ele>111</ele>
        <time>2011-08-28T10:01:57Z</time>
      </trkpt>
      <trkpt lat="47.22647" lon="0.01884">
        <ele>111</ele>
        <time>2011-08-28T10:02:01Z</time>
      </trkpt>
      <trkpt lat="47.22643" lon="0.01884">
        <ele>111</ele>
        <time>2011-08-28T10:02:15Z</time>
      </trkpt>
      <trkpt lat="47.22639" lon="0.01879">
        <ele>112</ele>
        <time>2011-08-28T10:04:33Z</time>
      </trkpt>
      <trkpt lat="47.22636" lon="0.01874">
        <ele>113</ele>
        <time>2011-08-28T10:04:50Z</time>
      </trkpt>
      <trkpt lat="47.22631" lon="0.01875">
        <ele>113</ele>
        <time>2011-08-28T10:05:12Z</time>
      </trkpt>
      <trkpt lat="47.22626" lon="0.01874">
        <ele>113</ele>
        <time>2011-08-28T10:05:39Z</time>
      </trkpt>
      <trkpt lat="47.22621" lon="0.0187">
        <ele>113</ele>
        <time>2011-08-28T10:05:45Z</time>
      </trkpt>
      <trkpt lat="47.22617" lon="0.01867">
        <ele>113</ele>
        <time>2011-08-28T10:05:50Z</time>
      </trkpt>
      <trkpt lat="47.22612" lon="0.01864">
        <ele>113</ele>
        <time>2011-08-28T10:05:55Z</time>
      </trkpt>
      <trkpt lat="47.22607" lon="0.01862">
        <ele>113</ele>
        <time>2011-08-28T10:06:00Z</time>
      </trkpt>
      <trkpt lat="47.22602" lon="0.0186">
        <ele>113</ele>
        <time>2011-08-28T10:06:05Z</time>
      </trkpt>
      <trkpt lat="47.22596" lon="0.01858">
        <ele>113</ele>
        <time>2011-08-28T10:06:10Z</time>
      </trkpt>
      <trkpt lat="47.22591" lon="0.01857">
        <ele>113</ele>
        <time>2011-08-28T10:06:15Z</time>
      </trkpt>
      <trkpt lat="47.22586" lon="0.01854">
        <ele>113</ele>
        <time>2011-08-28T10:06:20Z</time>
      </trkpt>
      <trkpt lat="47.22581" lon="0.01852">
        <ele>113</ele>
        <time>2011-08-28T10:06:25Z</time>
      </trkpt>
      <trkpt lat="47.22576" lon="0.0185">
        <ele>114</ele>
        <time>2011-08-28T10:06:30Z</time>
      </trkpt>
      <trkpt lat="47.22572" lon="0.01846">
        <ele>114</ele>
        <time>2011-08-28T10:06:35Z</time>
      </trkpt>
      <trkpt lat="47.22567" lon="0.01843">
        <ele>114</ele>
        <time>2011-08-28T10:06:40Z</time>
      </trkpt>
      <trkpt lat="47.22562" lon="0.01842">
        <ele>114</ele>
        <time>2011-08-28T10:06:44Z</time>
      </trkpt>
      <trkpt lat="47.22558" lon="0.0184">
        <ele>114</ele>
        <time>2011-08-28T10:06:48Z</time>
      </trkpt>
      <trkpt lat="47.22553" lon="0.01838">
        <ele>114</ele>
        <time>2011-08-28T10:06:52Z</time>
      </trkpt>
      <trkpt lat="47.22549" lon="0.01836">
        <ele>114</ele>
        <time>2011-08-28T10:06:56Z</time>
      </trkpt>
      <trkpt lat="47.22544" lon="0.01832">
        <ele>114</ele>
        <time>2011-08-28T10:07:01Z</time>
      </trkpt>
      <trkpt lat="47.22539" lon="0.01829">
        <ele>114</ele>
        <time>2011-08-28T10:07:06Z</time>
      </trkpt>
      <trkpt lat="47.22534" lon="0.01826">
        <ele>114</ele>
        <time>2011-08-28T10:07:11Z</time>
      </trkpt>
      <trkpt lat="47.22529" lon="0.01824">
        <ele>115</ele>
        <time>2011-08-28T10:07:15Z</time>
      </trkpt>
      <trkpt lat="47.22525" lon="0.01821">
        <ele>115</ele>
        <time>2011-08-28T10:07:19Z</time>
      </trkpt>
      <trkpt lat="47.2252" lon="0.01818">
        <ele>115</ele>
        <time>2011-08-28T10:07:23Z</time>
      </trkpt>
      <trkpt lat="47.22515" lon="0.01816">
        <ele>115</ele>
        <time>2011-08-28T10:07:27Z</time>
      </trkpt>
      <trkpt lat="47.2251" lon="0.01812">
        <ele>115</ele>
        <time>2011-08-28T10:07:31Z</time>
      </trkpt>
      <trkpt lat="47.22504" lon="0.01809">
        <ele>115</ele>
        <time>2011-08-28T10:07:35Z</time>
      </trkpt>
      <trkpt lat="47.22499" lon="0.01805">
        <ele>115</ele>
        <time>2011-08-28T10:07:39Z</time>
      </trkpt>
      <trkpt lat="47.22495" lon="0.01802">
        <ele>115</ele>
        <time>2011-08-28T10:07:43Z</time>
      </trkpt>
      <trkpt lat="47.2249" lon="0.01799">
        <ele>115</ele>
        <time>2011-08-28T10:07:47Z</time>
      </trkpt>
      <trkpt lat="47.22486" lon="0.01796">
        <ele>115</ele>
        <time>2011-08-28T10:07:51Z</time>
      </trkpt>
      <trkpt lat="47.22482" lon="0.01793">
        <ele>115</ele>
        <time>2011-08-28T10:07:55Z</time>
      </trkpt>
      <trkpt lat="47.22478" lon="0.0179">
        <ele>115</ele>
        <time>2011-08-28T10:07:59Z</time>
      </trkpt>
      <trkpt lat="47.22473" lon="0.01787">
        <ele>115</ele>
        <time>2011-08-28T10:08:03Z</time>
      </trkpt>
      <trkpt lat="47.22469" lon="0.01783">
        <ele>115</ele>
        <time>2011-08-28T10:08:07Z</time>
      </trkpt>
      <trkpt lat="47.22465" lon="0.01779">
        <ele>115</ele>
        <time>2011-08-28T10:08:11Z</time>
      </trkpt>
      <trkpt lat="47.2246" lon="0.01776">
        <ele>115</ele>
        <time>2011-08-28T10:08:15Z</time>
      </trkpt>
      <trkpt lat="47.22456" lon="0.01772">
        <ele>116</ele>
        <time>2011-08-28T10:08:19Z</time>
      </trkpt>
      <trkpt lat="47.22451" lon="0.01769">
        <ele>116</ele>
        <time>2011-08-28T10:08:23Z</time>
      </trkpt>
      <trkpt lat="47.22447" lon="0.01766">
        <ele>116</ele>
        <time>2011-08-28T10:08:27Z</time>
      </trkpt>
      <trkpt lat="47.22442" lon="0.01763">
        <ele>116</ele>
        <time>2011-08-28T10:08:31Z</time>
      </trkpt>
      <trkpt lat="47.22438" lon="0.0176">
        <ele>116</ele>
        <time>2011-08-28T10:08:35Z</time>
      </trkpt>
      <trkpt lat="47.22433" lon="0.01758">
        <ele>116</ele>
        <time>2011-08-28T10:08:39Z</time>
      </trkpt>
      <trkpt lat="47.22428" lon="0.01755">
        <ele>116</ele>
        <time>2011-08-28T10:08:43Z</time>
      </trkpt>
      <trkpt lat="47.22424" lon="0.01752">
        <ele>116</ele>
        <time>2011-08-28T10:08:47Z</time>
      </trkpt>
      <trkpt lat="47.22419" lon="0.01749">
        <ele>116</ele>
        <time>2011-08-28T10:08:51Z</time>
      </trkpt>
      <trkpt lat="47.22414" lon="0.01746">
        <ele>116</ele>
        <time>2011-08-28T10:08:55Z</time>
      </trkpt>
      <trkpt lat="47.2241" lon="0.01742">
        <ele>116</ele>
        <time>2011-08-28T10:08:59Z</time>
      </trkpt>
      <trkpt lat="47.22405" lon="0.01739">
        <ele>116</ele>
        <time>2011-08-28T10:09:03Z</time>
      </trkpt>
      <trkpt lat="47.22401" lon="0.01736">
        <ele>116</ele>
        <time>2011-08-28T10:09:07Z</time>
      </trkpt>
      <trkpt lat="47.22396" lon="0.01732">
        <ele>116</ele>
        <time>2011-08-28T10:09:11Z</time>
      </trkpt>
      <trkpt lat="47.22391" lon="0.0173">
        <ele>116</ele>
        <time>2011-08-28T10:09:15Z</time>
      </trkpt>
      <trkpt lat="47.22386" lon="0.01727">
        <ele>116</ele>
        <time>2011-08-28T10:09:19Z</time>
      </trkpt>
      <trkpt lat="47.22381" lon="0.01725">
        <ele>116</ele>
        <time>2011-08-28T10:09:23Z</time>
      </trkpt>
      <trkpt lat="47.22376" lon="0.01722">
        <ele>116</ele>
        <time>2011-08-28T10:09:27Z</time>
      </trkpt>
      <trkpt lat="47.22372" lon="0.0172">
        <ele>116</ele>
        <time>2011-08-28T10:09:31Z</time>
      </trkpt>
      <trkpt lat="47.22367" lon="0.01718">
        <ele>117</ele>
        <time>2011-08-28T10:09:35Z</time>
      </trkpt>
      <trkpt lat="47.22362" lon="0.01715">
        <ele>117</ele>
        <time>2011-08-28T10:09:39Z</time>
      </trkpt>
      <trkpt lat="47.22357" lon="0.01713">
        <ele>117</ele>
        <time>2011-08-28T10:09:43Z</time>
      </trkpt>
      <trkpt lat="47.22353" lon="0.0171">
        <ele>117</ele>
        <time>2011-08-28T10:09:47Z</time>
      </trkpt>
      <trkpt lat="47.22348" lon="0.01708">
        <ele>117</ele>
        <time>2011-08-28T10:09:51Z</time>
      </trkpt>
      <trkpt lat="47.22343" lon="0.01705">
        <ele>117</ele>
        <time>2011-08-28T10:09:55Z</time>
      </trkpt>
      <trkpt lat="47.22338" lon="0.01702">
        <ele>117</ele>
        <time>2011-08-28T10:09:59Z</time>
      </trkpt>
      <trkpt lat="47.22333" lon="0.01699">
        <ele>117</ele>
        <time>2011-08-28T10:10:03Z</time>
      </trkpt>
      <trkpt lat="47.22329" lon="0.01696">
        <ele>117</ele>
        <time>2011-08-28T10:10:07Z</time>
      </trkpt>
      <trkpt lat="47.22324" lon="0.01692">
        <ele>117</ele>
        <time>2011-08-28T10:10:11Z</time>
      </trkpt>
      <trkpt lat="47.2232" lon="0.01689">
        <ele>117</ele>
        <time>2011-08-28T10:10:15Z</time>
      </trkpt>
      <trkpt lat="47.22316" lon="0.01686">
        <ele>118</ele>
        <time>2011-08-28T10:10:19Z</time>
      </trkpt>
      <trkpt lat="47.22312" lon="0.01682">
        <ele>118</ele>
        <time>2011-08-28T10:10:23Z</time>
      </trkpt>
      <trkpt lat="47.22308" lon="0.01678">
        <ele>118</ele>
        <time>2011-08-28T10:10:27Z</time>
      </trkpt>
      <trkpt lat="47.22303" lon="0.01674">
        <ele>118</ele>
        <time>2011-08-28T10:10:31Z</time>
      </trkpt>
      <trkpt lat="47.22299" lon="0.01671">
        <ele>118</ele>
        <time>2011-08-28T10:10:35Z</time>
      </trkpt>
      <trkpt lat="47.22295" lon="0.01667">
        <ele>118</ele>
        <time>2011-08-28T10:10:39Z</time>
      </trkpt>
      <trkpt lat="47.2229" lon="0.01664">
        <ele>118</ele>
        <time>2011-08-28T10:10:43Z</time>
      </trkpt>
      <trkpt lat="47.22286" lon="0.01661">
        <ele>118</ele>
        <time>2011-08-28T10:10:47Z</time>
      </trkpt>
      <trkpt lat="47.22281" lon="0.01657">
        <ele>118</ele>
        <time>2011-08-28T10:10:51Z</time>
      </trkpt>
      <trkpt lat="47.22276" lon="0.01653">
        <ele>118</ele>
        <time>2011-08-28T10:10:55Z</time>
      </trkpt>
      <trkpt lat="47.22272" lon="0.0165">
        <ele>118</ele>
        <time>2011-08-28T10:10:59Z</time>
      </trkpt>
      <trkpt lat="47.22267" lon="0.01647">
        <ele>118</ele>
        <time>2011-08-28T10:11:03Z</time>
      </trkpt>
      <trkpt lat="47.22262" lon="0.01644">
        <ele>118</ele>
        <time>2011-08-28T10:11:07Z</time>
      </trkpt>
      <trkpt lat="47.22258" lon="0.01641">
        <ele>118</ele>
        <time>2011-08-28T10:11:11Z</time>
      </trkpt>
      <trkpt lat="47.22254" lon="0.01638">
        <ele>118</ele>
        <time>2011-08-28T10:11:15Z</time>
      </trkpt>
      <trkpt lat="47.22249" lon="0.01635">
        <ele>119</ele>
        <time>2011-08-28T10:11:19Z</time>
      </trkpt>
      <trkpt lat="47.22245" lon="0.01632">
        <ele>119</ele>
        <time>2011-08-28T10:11:23Z</time>
      </trkpt>
      <trkpt lat="47.2224" lon="0.01631">
        <ele>119</ele>
        <time>2011-08-28T10:11:27Z</time>
      </trkpt>
      <trkpt lat="47.22236" lon="0.01628">
        <ele>119</ele>
        <time>2011-08-28T10:11:31Z</time>
      </trkpt>
      <trkpt lat="47.22231" lon="0.01626">
        <ele>119</ele>
        <time>2011-08-28T10:11:35Z</time>
      </trkpt>
      <trkpt lat="47.22227" lon="0.01624">
        <ele>119</ele>
        <time>2011-08-28T10:11:39Z</time>
      </trkpt>
      <trkpt lat="47.22222" lon="0.01622">
        <ele>119</ele>
        <time>2011-08-28T10:11:43Z</time>
      </trkpt>
      <trkpt lat="47.22218" lon="0.01619">
        <ele>119</ele>
        <time>2011-08-28T10:11:47Z</time>
      </trkpt>
      <trkpt lat="47.22213" lon="0.01617">
        <ele>119</ele>
        <time>2011-08-28T10:11:51Z</time>
      </trkpt>
      <trkpt lat="47.22208" lon="0.01614">
        <ele>119</ele>
        <time>2011-08-28T10:11:55Z</time>
      </trkpt>
      <trkpt lat="47.22204" lon="0.01611">
        <ele>119</ele>
        <time>2011-08-28T10:11:59Z</time>
      </trkpt>
      <trkpt lat="47.22199" lon="0.01608">
        <ele>119</ele>
        <time>2011-08-28T10:12:03Z</time>
      </trkpt>
      <trkpt lat="47.22194" lon="0.01606">
        <ele>119</ele>
        <time>2011-08-28T10:12:07Z</time>
      </trkpt>
      <trkpt lat="47.22189" lon="0.01603">
        <ele>119</ele>
        <time>2011-08-28T10:12:11Z</time>
      </trkpt>
      <trkpt lat="47.22184" lon="0.016">
        <ele>120</ele>
        <time>2011-08-28T10:12:15Z</time>
      </trkpt>
      <trkpt lat="47.22179" lon="0.01598">
        <ele>120</ele>
        <time>2011-08-28T10:12:19Z</time>
      </trkpt>
      <trkpt lat="47.22174" lon="0.01595">
        <ele>120</ele>
        <time>2011-08-28T10:12:23Z</time>
      </trkpt>
      <trkpt lat="47.2217" lon="0.01592">
        <ele>120</ele>
        <time>2011-08-28T10:12:27Z</time>
      </trkpt>
      <trkpt lat="47.22165" lon="0.01589">
        <ele>120</ele>
        <time>2011-08-28T10:12:31Z</time>
      </trkpt>
      <trkpt lat="47.22161" lon="0.01586">
        <ele>120</ele>
        <time>2011-08-28T10:12:35Z</time>
      </trkpt>
      <trkpt lat="47.22156" lon="0.01583">
        <ele>120</ele>
        <time>2011-08-28T10:12:39Z</time>
      </trkpt>
      <trkpt lat="47.22152" lon="0.01579">
        <ele>120</ele>
        <time>2011-08-28T10:12:43Z</time>
      </trkpt>
      <trkpt lat="47.22148" lon="0.01575">
        <ele>120</ele>
        <time>2011-08-28T10:12:47Z</time>
      </trkpt>
      <trkpt lat="47.22144" lon="0.01572">
        <ele>120</ele>
        <time>2011-08-28T10:12:51Z</time>
      </trkpt>
      <trkpt lat="47.22139" lon="0.01568">
        <ele>120</ele>
        <time>2011-08-28T10:12:55Z</time>
      </trkpt>
      <trkpt lat="47.22135" lon="0.01565">
        <ele>120</ele>
        <time>2011-08-28T10:12:59Z</time>
      </trkpt>
      <trkpt lat="47.22131" lon="0.01561">
        <ele>120</ele>
        <time>2011-08-28T10:13:03Z</time>
      </trkpt>
      <trkpt lat="47.22126" lon="0.01557">
        <ele>120</ele>
        <time>2011-08-28T10:13:07Z</time>
      </trkpt>
      <trkpt lat="47.22122" lon="0.01553">
        <ele>120</ele>
        <time>2011-08-28T10:13:11Z</time>
      </trkpt>
      <trkpt lat="47.22118" lon="0.0155">
        <ele>120</ele>
        <time>2011-08-28T10:13:15Z</time>
      </trkpt>
      <trkpt lat="47.22113" lon="0.01546">
        <ele>121</ele>
        <time>2011-08-28T10:13:19Z</time>
      </trkpt>
      <trkpt lat="47.22109" lon="0.01543">
        <ele>121</ele>
        <time>2011-08-28T10:13:23Z</time>
      </trkpt>
      <trkpt lat="47.22104" lon="0.01539">
        <ele>121</ele>
        <time>2011-08-28T10:13:27Z</time>
      </trkpt>
      <trkpt lat="47.221" lon="0.01536">
        <ele>121</ele>
        <time>2011-08-28T10:13:31Z</time>
      </trkpt>
      <trkpt lat="47.22096" lon="0.01532">
        <ele>121</ele>
        <time>2011-08-28T10:13:35Z</time>
      </trkpt>
      <trkpt lat="47.22092" lon="0.01528">
        <ele>121</ele>
        <time>2011-08-28T10:13:39Z</time>
      </trkpt>
      <trkpt lat="47.22088" lon="0.01525">
        <ele>121</ele>
        <time>2011-08-28T10:13:43Z</time>
      </trkpt>
      <trkpt lat="47.22084" lon="0.01521">
        <ele>121</ele>
        <time>2011-08-28T10:13:47Z</time>
      </trkpt>
      <trkpt lat="47.2208" lon="0.01518">
        <ele>121</ele>
        <time>2011-08-28T10:13:51Z</time>
      </trkpt>
      <trkpt lat="47.22076" lon="0.01514">
        <ele>121</ele>
        <time>2011-08-28T10:13:55Z</time>
      </trkpt>
      <trkpt lat="47.22071" lon="0.01511">
        <ele>121</ele>
        <time>2011-08-28T10:13:59Z</time>
      </trkpt>
      <trkpt lat="47.22067" lon="0.01508">
        <ele>122</ele>
        <time>2011-08-28T10:14:03Z</time>
      </trkpt>
      <trkpt lat="47.22063" lon="0.01505">
        <ele>122</ele>
        <time>2011-08-28T10:14:07Z</time>
      </trkpt>
      <trkpt lat="47.22058" lon="0.01503">
        <ele>122</ele>
        <time>2011-08-28T10:14:11Z</time>
      </trkpt>
      <trkpt lat="47.22053" lon="0.015">
        <ele>122</ele>
        <time>2011-08-28T10:14:15Z</time>
      </trkpt>
      <trkpt lat="47.22049" lon="0.01497">
        <ele>122</ele>
        <time>2011-08-28T10:14:19Z</time>
      </trkpt>
      <trkpt lat="47.22044" lon="0.01494">
        <ele>122</ele>
        <time>2011-08-28T10:14:23Z</time>
      </trkpt>
      <trkpt lat="47.2204" lon="0.01491">
        <ele>122</ele>
        <time>2011-08-28T10:14:27Z</time>
      </trkpt>
      <trkpt lat="47.22035" lon="0.0149">
        <ele>122</ele>
        <time>2011-08-28T10:14:31Z</time>
      </trkpt>
      <trkpt lat="47.2203" lon="0.01488">
        <ele>122</ele>
        <time>2011-08-28T10:14:35Z</time>
      </trkpt>
      <trkpt lat="47.22026" lon="0.01486">
        <ele>122</ele>
        <time>2011-08-28T10:14:39Z</time>
      </trkpt>
      <trkpt lat="47.22021" lon="0.01484">
        <ele>123</ele>
        <time>2011-08-28T10:14:43Z</time>
      </trkpt>
      <trkpt lat="47.22017" lon="0.01483">
        <ele>123</ele>
        <time>2011-08-28T10:14:47Z</time>
      </trkpt>
      <trkpt lat="47.22012" lon="0.01483">
        <ele>123</ele>
        <time>2011-08-28T10:14:52Z</time>
      </trkpt>
      <trkpt lat="47.22011" lon="0.01491">
        <ele>123</ele>
        <time>2011-08-28T10:14:58Z</time>
      </trkpt>
      <trkpt lat="47.22012" lon="0.01498">
        <ele>123</ele>
        <time>2011-08-28T10:15:01Z</time>
      </trkpt>
      <trkpt lat="47.22012" lon="0.01505">
        <ele>123</ele>
        <time>2011-08-28T10:15:04Z</time>
      </trkpt>
      <trkpt lat="47.22013" lon="0.01512">
        <ele>123</ele>
        <time>2011-08-28T10:15:07Z</time>
      </trkpt>
      <trkpt lat="47.22014" lon="0.01518">
        <ele>123</ele>
        <time>2011-08-28T10:15:10Z</time>
      </trkpt>
      <trkpt lat="47.22016" lon="0.01525">
        <ele>124</ele>
        <time>2011-08-28T10:15:13Z</time>
      </trkpt>
      <trkpt lat="47.22017" lon="0.01532">
        <ele>124</ele>
        <time>2011-08-28T10:15:17Z</time>
      </trkpt>
      <trkpt lat="47.22019" lon="0.01539">
        <ele>124</ele>
        <time>2011-08-28T10:15:21Z</time>
      </trkpt>
      <trkpt lat="47.2202" lon="0.01545">
        <ele>124</ele>
        <time>2011-08-28T10:15:25Z</time>
      </trkpt>
      <trkpt lat="47.22022" lon="0.01552">
        <ele>124</ele>
        <time>2011-08-28T10:15:29Z</time>
      </trkpt>
      <trkpt lat="47.22024" lon="0.01559">
        <ele>125</ele>
        <time>2011-08-28T10:15:33Z</time>
      </trkpt>
      <trkpt lat="47.22025" lon="0.01566">
        <ele>125</ele>
        <time>2011-08-28T10:15:37Z</time>
      </trkpt>
      <trkpt lat="47.22026" lon="0.01574">
        <ele>125</ele>
        <time>2011-08-28T10:15:41Z</time>
      </trkpt>
      <trkpt lat="47.22028" lon="0.01581">
        <ele>125</ele>
        <time>2011-08-28T10:15:45Z</time>
      </trkpt>
      <trkpt lat="47.22029" lon="0.01588">
        <ele>125</ele>
        <time>2011-08-28T10:15:49Z</time>
      </trkpt>
      <trkpt lat="47.22031" lon="0.01595">
        <ele>125</ele>
        <time>2011-08-28T10:15:53Z</time>
      </trkpt>
      <trkpt lat="47.22032" lon="0.01602">
        <ele>126</ele>
        <time>2011-08-28T10:15:57Z</time>
      </trkpt>
      <trkpt lat="47.22033" lon="0.01609">
        <ele>126</ele>
        <time>2011-08-28T10:16:01Z</time>
      </trkpt>
      <trkpt lat="47.22035" lon="0.01617">
        <ele>126</ele>
        <time>2011-08-28T10:16:05Z</time>
      </trkpt>
      <trkpt lat="47.22036" lon="0.01625">
        <ele>126</ele>
        <time>2011-08-28T10:16:09Z</time>
      </trkpt>
      <trkpt lat="47.22037" lon="0.01632">
        <ele>126</ele>
        <time>2011-08-28T10:16:13Z</time>
      </trkpt>
      <trkpt lat="47.22038" lon="0.01638">
        <ele>126</ele>
        <time>2011-08-28T10:16:17Z</time>
      </trkpt>
      <trkpt lat="47.22039" lon="0.01645">
        <ele>126</ele>
        <time>2011-08-28T10:16:21Z</time>
      </trkpt>
      <trkpt lat="47.2204" lon="0.01653">
        <ele>126</ele>
        <time>2011-08-28T10:16:26Z</time>
      </trkpt>
      <trkpt lat="47.22041" lon="0.01661">
        <ele>126</ele>
        <time>2011-08-28T10:16:31Z</time>
      </trkpt>
      <trkpt lat="47.22041" lon="0.01669">
        <ele>126</ele>
        <time>2011-08-28T10:16:36Z</time>
      </trkpt>
      <trkpt lat="47.22042" lon="0.01675">
        <ele>127</ele>
        <time>2011-08-28T10:16:40Z</time>
      </trkpt>
      <trkpt lat="47.22042" lon="0.01682">
        <ele>127</ele>
        <time>2011-08-28T10:16:44Z</time>
      </trkpt>
      <trkpt lat="47.22042" lon="0.01689">
        <ele>127</ele>
        <time>2011-08-28T10:16:48Z</time>
      </trkpt>
      <trkpt lat="47.22041" lon="0.01697">
        <ele>127</ele>
        <time>2011-08-28T10:16:52Z</time>
      </trkpt>
      <trkpt lat="47.2204" lon="0.01704">
        <ele>127</ele>
        <time>2011-08-28T10:16:56Z</time>
      </trkpt>
      <trkpt lat="47.22039" lon="0.01712">
        <ele>127</ele>
        <time>2011-08-28T10:17:00Z</time>
      </trkpt>
      <trkpt lat="47.22038" lon="0.01719">
        <ele>127</ele>
        <time>2011-08-28T10:17:04Z</time>
      </trkpt>
      <trkpt lat="47.22038" lon="0.01726">
        <ele>127</ele>
        <time>2011-08-28T10:17:08Z</time>
      </trkpt>
      <trkpt lat="47.22037" lon="0.01734">
        <ele>127</ele>
        <time>2011-08-28T10:17:12Z</time>
      </trkpt>
      <trkpt lat="47.22036" lon="0.01741">
        <ele>127</ele>
        <time>2011-08-28T10:17:16Z</time>
      </trkpt>
      <trkpt lat="47.22036" lon="0.01748">
        <ele>127</ele>
        <time>2011-08-28T10:17:20Z</time>
      </trkpt>
      <trkpt lat="47.22035" lon="0.01756">
        <ele>127</ele>
        <time>2011-08-28T10:17:24Z</time>
      </trkpt>
      <trkpt lat="47.22034" lon="0.01763">
        <ele>127</ele>
        <time>2011-08-28T10:17:28Z</time>
      </trkpt>
      <trkpt lat="47.22033" lon="0.0177">
        <ele>127</ele>
        <time>2011-08-28T10:17:32Z</time>
      </trkpt>
      <trkpt lat="47.22032" lon="0.01777">
        <ele>127</ele>
        <time>2011-08-28T10:17:36Z</time>
      </trkpt>
      <trkpt lat="47.22032" lon="0.01784">
        <ele>127</ele>
        <time>2011-08-28T10:17:40Z</time>
      </trkpt>
      <trkpt lat="47.22031" lon="0.01791">
        <ele>127</ele>
        <time>2011-08-28T10:17:44Z</time>
      </trkpt>
      <trkpt lat="47.22031" lon="0.01799">
        <ele>127</ele>
        <time>2011-08-28T10:17:48Z</time>
      </trkpt>
      <trkpt lat="47.22031" lon="0.01806">
        <ele>127</ele>
        <time>2011-08-28T10:17:52Z</time>
      </trkpt>
      <trkpt lat="47.2203" lon="0.01814">
        <ele>127</ele>
        <time>2011-08-28T10:17:56Z</time>
      </trkpt>
      <trkpt lat="47.2203" lon="0.01821">
        <ele>127</ele>
        <time>2011-08-28T10:18:00Z</time>
      </trkpt>
      <trkpt lat="47.2203" lon="0.01829">
        <ele>127</ele>
        <time>2011-08-28T10:18:04Z</time>
      </trkpt>
      <trkpt lat="47.22029" lon="0.01837">
        <ele>127</ele>
        <time>2011-08-28T10:18:08Z</time>
      </trkpt>
      <trkpt lat="47.22029" lon="0.01844">
        <ele>127</ele>
        <time>2011-08-28T10:18:12Z</time>
      </trkpt>
      <trkpt lat="47.22028" lon="0.01852">
        <ele>127</ele>
        <time>2011-08-28T10:18:16Z</time>
      </trkpt>
      <trkpt lat="47.22027" lon="0.0186">
        <ele>127</ele>
        <time>2011-08-28T10:18:20Z</time>
      </trkpt>
      <trkpt lat="47.22027" lon="0.01868">
        <ele>127</ele>
        <time>2011-08-28T10:18:24Z</time>
      </trkpt>
      <trkpt lat="47.22026" lon="0.01875">
        <ele>127</ele>
        <time>2011-08-28T10:18:28Z</time>
      </trkpt>
      <trkpt lat="47.22026" lon="0.01882">
        <ele>127</ele>
        <time>2011-08-28T10:18:32Z</time>
      </trkpt>
      <trkpt lat="47.22029" lon="0.01888">
        <ele>127</ele>
        <time>2011-08-28T10:18:39Z</time>
      </trkpt>
      <trkpt lat="47.22034" lon="0.0189">
        <ele>127</ele>
        <time>2011-08-28T10:18:43Z</time>
      </trkpt>
      <trkpt lat="47.22038" lon="0.01893">
        <ele>127</ele>
        <time>2011-08-28T10:18:47Z</time>
      </trkpt>
      <trkpt lat="47.22043" lon="0.01896">
        <ele>127</ele>
        <time>2011-08-28T10:18:51Z</time>
      </trkpt>
      <trkpt lat="47.22048" lon="0.019">
        <ele>127</ele>
        <time>2011-08-28T10:18:55Z</time>
      </trkpt>
      <trkpt lat="47.22053" lon="0.01904">
        <ele>127</ele>
        <time>2011-08-28T10:18:59Z</time>
      </trkpt>
      <trkpt lat="47.22058" lon="0.01908">
        <ele>127</ele>
        <time>2011-08-28T10:19:03Z</time>
      </trkpt>
      <trkpt lat="47.22063" lon="0.01912">
        <ele>127</ele>
        <time>2011-08-28T10:19:07Z</time>
      </trkpt>
      <trkpt lat="47.22067" lon="0.01916">
        <ele>127</ele>
        <time>2011-08-28T10:19:11Z</time>
      </trkpt>
      <trkpt lat="47.22072" lon="0.0192">
        <ele>127</ele>
        <time>2011-08-28T10:19:15Z</time>
      </trkpt>
      <trkpt lat="47.22076" lon="0.01923">
        <ele>127</ele>
        <time>2011-08-28T10:19:19Z</time>
      </trkpt>
      <trkpt lat="47.22081" lon="0.01926">
        <ele>127</ele>
        <time>2011-08-28T10:19:23Z</time>
      </trkpt>
      <trkpt lat="47.22085" lon="0.0193">
        <ele>127</ele>
        <time>2011-08-28T10:19:27Z</time>
      </trkpt>
      <trkpt lat="47.22089" lon="0.01933">
        <ele>127</ele>
        <time>2011-08-28T10:19:31Z</time>
      </trkpt>
      <trkpt lat="47.22094" lon="0.01936">
        <ele>127</ele>
        <time>2011-08-28T10:19:35Z</time>
      </trkpt>
      <trkpt lat="47.22098" lon="0.0194">
        <ele>127</ele>
        <time>2011-08-28T10:19:39Z</time>
      </trkpt>
      <trkpt lat="47.22101" lon="0.01945">
        <ele>127</ele>
        <time>2011-08-28T10:19:43Z</time>
      </trkpt>
      <trkpt lat="47.22104" lon="0.0195">
        <ele>127</ele>
        <time>2011-08-28T10:19:47Z</time>
      </trkpt>
      <trkpt lat="47.22106" lon="0.01957">
        <ele>127</ele>
        <time>2011-08-28T10:19:51Z</time>
      </trkpt>
      <trkpt lat="47.22108" lon="0.01963">
        <ele>127</ele>
        <time>2011-08-28T10:19:55Z</time>
      </trkpt>
      <trkpt lat="47.2211" lon="0.01969">
        <ele>128</ele>
        <time>2011-08-28T10:19:59Z</time>
      </trkpt>
      <trkpt lat="47.22112" lon="0.01976">
        <ele>128</ele>
        <time>2011-08-28T10:20:03Z</time>
      </trkpt>
      <trkpt lat="47.22115" lon="0.01982">
        <ele>128</ele>
        <time>2011-08-28T10:20:07Z</time>
      </trkpt>
      <trkpt lat="47.22118" lon="0.01988">
        <ele>128</ele>
        <time>2011-08-28T10:20:11Z</time>
      </trkpt>
      <trkpt lat="47.22121" lon="0.01993">
        <ele>128</ele>
        <time>2011-08-28T10:20:15Z</time>
      </trkpt>
      <trkpt lat="47.22125" lon="0.01998">
        <ele>128</ele>
        <time>2011-08-28T10:20:19Z</time>
      </trkpt>
      <trkpt lat="47.22129" lon="0.02002">
        <ele>128</ele>
        <time>2011-08-28T10:20:23Z</time>
      </trkpt>
      <trkpt lat="47.22132" lon="0.02006">
        <ele>128</ele>
        <time>2011-08-28T10:20:27Z</time>
      </trkpt>
      <trkpt lat="47.22136" lon="0.02011">
        <ele>127</ele>
        <time>2011-08-28T10:20:31Z</time>
      </trkpt>
      <trkpt lat="47.2214" lon="0.02015">
        <ele>127</ele>
        <time>2011-08-28T10:20:35Z</time>
      </trkpt>
      <trkpt lat="47.22144" lon="0.02019">
        <ele>127</ele>
        <time>2011-08-28T10:20:39Z</time>
      </trkpt>
      <trkpt lat="47.22148" lon="0.02023">
        <ele>127</ele>
        <time>2011-08-28T10:20:43Z</time>
      </trkpt>
      <trkpt lat="47.22151" lon="0.02028">
        <ele>127</ele>
        <time>2011-08-28T10:20:47Z</time>
      </trkpt>
      <trkpt lat="47.22155" lon="0.02032">
        <ele>127</ele>
        <time>2011-08-28T10:20:51Z</time>
      </trkpt>
      <trkpt lat="47.22159" lon="0.02036">
        <ele>127</ele>
        <time>2011-08-28T10:20:55Z</time>
      </trkpt>
      <trkpt lat="47.22163" lon="0.02041">
        <ele>127</ele>
        <time>2011-08-28T10:20:59Z</time>
      </trkpt>
      <trkpt lat="47.22168" lon="0.02046">
        <ele>127</ele>
        <time>2011-08-28T10:21:03Z</time>
      </trkpt>
      <trkpt lat="47.22172" lon="0.0205">
        <ele>127</ele>
        <time>2011-08-28T10:21:07Z</time>
      </trkpt>
      <trkpt lat="47.22175" lon="0.02055">
        <ele>127</ele>
        <time>2011-08-28T10:21:11Z</time>
      </trkpt>
      <trkpt lat="47.22179" lon="0.02059">
        <ele>127</ele>
        <time>2011-08-28T10:21:15Z</time>
      </trkpt>
      <trkpt lat="47.22183" lon="0.02064">
        <ele>127</ele>
        <time>2011-08-28T10:21:19Z</time>
      </trkpt>
      <trkpt lat="47.22186" lon="0.02068">
        <ele>127</ele>
        <time>2011-08-28T10:21:23Z</time>
      </trkpt>
      <trkpt lat="47.2219" lon="0.02073">
        <ele>127</ele>
        <time>2011-08-28T10:21:27Z</time>
      </trkpt>
      <trkpt lat="47.22193" lon="0.02077">
        <ele>127</ele>
        <time>2011-08-28T10:21:31Z</time>
      </trkpt>
      <trkpt lat="47.22196" lon="0.02082">
        <ele>126</ele>
        <time>2011-08-28T10:21:35Z</time>
      </trkpt>
      <trkpt lat="47.222" lon="0.02086">
        <ele>126</ele>
        <time>2011-08-28T10:21:39Z</time>
      </trkpt>
      <trkpt lat="47.22203" lon="0.02091">
        <ele>126</ele>
        <time>2011-08-28T10:21:43Z</time>
      </trkpt>
      <trkpt lat="47.22207" lon="0.02095">
        <ele>126</ele>
        <time>2011-08-28T10:21:47Z</time>
      </trkpt>
      <trkpt lat="47.22211" lon="0.02099">
        <ele>126</ele>
        <time>2011-08-28T10:21:51Z</time>
      </trkpt>
      <trkpt lat="47.22214" lon="0.02103">
        <ele>126</ele>
        <time>2011-08-28T10:21:55Z</time>
      </trkpt>
      <trkpt lat="47.22218" lon="0.02108">
        <ele>126</ele>
        <time>2011-08-28T10:21:59Z</time>
      </trkpt>
      <trkpt lat="47.22222" lon="0.02111">
        <ele>126</ele>
        <time>2011-08-28T10:22:03Z</time>
      </trkpt>
      <trkpt lat="47.22225" lon="0.02115">
        <ele>126</ele>
        <time>2011-08-28T10:22:07Z</time>
      </trkpt>
      <trkpt lat="47.22229" lon="0.02119">
        <ele>126</ele>
        <time>2011-08-28T10:22:11Z</time>
      </trkpt>
      <trkpt lat="47.22234" lon="0.02123">
        <ele>126</ele>
        <time>2011-08-28T10:22:15Z</time>
      </trkpt>
      <trkpt lat="47.22238" lon="0.02128">
        <ele>125</ele>
        <time>2011-08-28T10:22:19Z</time>
      </trkpt>
      <trkpt lat="47.22242" lon="0.02132">
        <ele>125</ele>
        <time>2011-08-28T10:22:23Z</time>
      </trkpt>
      <trkpt lat="47.22247" lon="0.02136">
        <ele>125</ele>
        <time>2011-08-28T10:22:27Z</time>
      </trkpt>
      <trkpt lat="47.22251" lon="0.0214">
        <ele>125</ele>
        <time>2011-08-28T10:22:31Z</time>
      </trkpt>
      <trkpt lat="47.22256" lon="0.02144">
        <ele>125</ele>
        <time>2011-08-28T10:22:35Z</time>
      </trkpt>
      <trkpt lat="47.2226" lon="0.02148">
        <ele>125</ele>
        <time>2011-08-28T10:22:39Z</time>
      </trkpt>
      <trkpt lat="47.22264" lon="0.02153">
        <ele>124</ele>
        <time>2011-08-28T10:22:43Z</time>
      </trkpt>
      <trkpt lat="47.22269" lon="0.02157">
        <ele>124</ele>
        <time>2011-08-28T10:22:47Z</time>
      </trkpt>
      <trkpt lat="47.22273" lon="0.02161">
        <ele>124</ele>
        <time>2011-08-28T10:22:51Z</time>
      </trkpt>
      <trkpt lat="47.22277" lon="0.02165">
        <ele>124</ele>
        <time>2011-08-28T10:22:55Z</time>
      </trkpt>
      <trkpt lat="47.22281" lon="0.02169">
        <ele>124</ele>
        <time>2011-08-28T10:22:59Z</time>
      </trkpt>
      <trkpt lat="47.22285" lon="0.02173">
        <ele>124</ele>
        <time>2011-08-28T10:23:03Z</time>
      </trkpt>
      <trkpt lat="47.22289" lon="0.02177">
        <ele>123</ele>
        <time>2011-08-28T10:23:07Z</time>
      </trkpt>
      <trkpt lat="47.22294" lon="0.0218">
        <ele>123</ele>
        <time>2011-08-28T10:23:11Z</time>
      </trkpt>
      <trkpt lat="47.22298" lon="0.02184">
        <ele>123</ele>
        <time>2011-08-28T10:23:15Z</time>
      </trkpt>
      <trkpt lat="47.22302" lon="0.02187">
        <ele>123</ele>
        <time>2011-08-28T10:23:19Z</time>
      </trkpt>
      <trkpt lat="47.22306" lon="0.0219">
        <ele>123</ele>
        <time>2011-08-28T10:23:23Z</time>
      </trkpt>
      <trkpt lat="47.2231" lon="0.02193">
        <ele>123</ele>
        <time>2011-08-28T10:23:27Z</time>
      </trkpt>
      <trkpt lat="47.22314" lon="0.02196">
        <ele>123</ele>
        <time>2011-08-28T10:23:31Z</time>
      </trkpt>
      <trkpt lat="47.22318" lon="0.02199">
        <ele>123</ele>
        <time>2011-08-28T10:23:35Z</time>
      </trkpt>
      <trkpt lat="47.22323" lon="0.02202">
        <ele>123</ele>
        <time>2011-08-28T10:23:39Z</time>
      </trkpt>
      <trkpt lat="47.22327" lon="0.02205">
        <ele>122</ele>
        <time>2011-08-28T10:23:43Z</time>
      </trkpt>
      <trkpt lat="47.22332" lon="0.02209">
        <ele>122</ele>
        <time>2011-08-28T10:23:48Z</time>
      </trkpt>
      <trkpt lat="47.22336" lon="0.02212">
        <ele>122</ele>
        <time>2011-08-28T10:23:52Z</time>
      </trkpt>
      <trkpt lat="47.2234" lon="0.02216">
        <ele>122</ele>
        <time>2011-08-28T10:23:56Z</time>
      </trkpt>
      <trkpt lat="47.22344" lon="0.02219">
        <ele>122</ele>
        <time>2011-08-28T10:24:00Z</time>
      </trkpt>
      <trkpt lat="47.22348" lon="0.02222">
        <ele>122</ele>
        <time>2011-08-28T10:24:04Z</time>
      </trkpt>
      <trkpt lat="47.22352" lon="0.02223">
        <ele>122</ele>
        <time>2011-08-28T10:24:08Z</time>
      </trkpt>
      <trkpt lat="47.22358" lon="0.02223">
        <ele>122</ele>
        <time>2011-08-28T10:24:13Z</time>
      </trkpt>
      <trkpt lat="47.22362" lon="0.02224">
        <ele>122</ele>
        <time>2011-08-28T10:24:17Z</time>
      </trkpt>
      <trkpt lat="47.22367" lon="0.02222">
        <ele>122</ele>
        <time>2011-08-28T10:24:21Z</time>
      </trkpt>
      <trkpt lat="47.22372" lon="0.02222">
        <ele>122</ele>
        <time>2011-08-28T10:24:25Z</time>
      </trkpt>
      <trkpt lat="47.22377" lon="0.02221">
        <ele>122</ele>
        <time>2011-08-28T10:24:29Z</time>
      </trkpt>
      <trkpt lat="47.22382" lon="0.0222">
        <ele>122</ele>
        <time>2011-08-28T10:24:33Z</time>
      </trkpt>
      <trkpt lat="47.22387" lon="0.02219">
        <ele>122</ele>
        <time>2011-08-28T10:24:37Z</time>
      </trkpt>
      <trkpt lat="47.22392" lon="0.0222">
        <ele>122</ele>
        <time>2011-08-28T10:24:41Z</time>
      </trkpt>
      <trkpt lat="47.22397" lon="0.0222">
        <ele>122</ele>
        <time>2011-08-28T10:24:45Z</time>
      </trkpt>
      <trkpt lat="47.22402" lon="0.02222">
        <ele>122</ele>
        <time>2011-08-28T10:24:49Z</time>
      </trkpt>
      <trkpt lat="47.22407" lon="0.02223">
        <ele>122</ele>
        <time>2011-08-28T10:24:53Z</time>
      </trkpt>
      <trkpt lat="47.22412" lon="0.02224">
        <ele>121</ele>
        <time>2011-08-28T10:24:57Z</time>
      </trkpt>
      <trkpt lat="47.22417" lon="0.02226">
        <ele>121</ele>
        <time>2011-08-28T10:25:01Z</time>
      </trkpt>
      <trkpt lat="47.22422" lon="0.02227">
        <ele>121</ele>
        <time>2011-08-28T10:25:05Z</time>
      </trkpt>
      <trkpt lat="47.22428" lon="0.02228">
        <ele>121</ele>
        <time>2011-08-28T10:25:09Z</time>
      </trkpt>
      <trkpt lat="47.22433" lon="0.02229">
        <ele>121</ele>
        <time>2011-08-28T10:25:13Z</time>
      </trkpt>
      <trkpt lat="47.22438" lon="0.02229">
        <ele>121</ele>
        <time>2011-08-28T10:25:17Z</time>
      </trkpt>
      <trkpt lat="47.22443" lon="0.02231">
        <ele>121</ele>
        <time>2011-08-28T10:25:25Z</time>
      </trkpt>
      <trkpt lat="47.22448" lon="0.02232">
        <ele>121</ele>
        <time>2011-08-28T10:25:30Z</time>
      </trkpt>
      <trkpt lat="47.22453" lon="0.02233">
        <ele>120</ele>
        <time>2011-08-28T10:25:34Z</time>
      </trkpt>
      <trkpt lat="47.22458" lon="0.02234">
        <ele>120</ele>
        <time>2011-08-28T10:25:38Z</time>
      </trkpt>
      <trkpt lat="47.22462" lon="0.02234">
        <ele>120</ele>
        <time>2011-08-28T10:25:42Z</time>
      </trkpt>
      <trkpt lat="47.22468" lon="0.02234">
        <ele>120</ele>
        <time>2011-08-28T10:25:47Z</time>
      </trkpt>
      <trkpt lat="47.22473" lon="0.02234">
        <ele>120</ele>
        <time>2011-08-28T10:25:51Z</time>
      </trkpt>
      <trkpt lat="47.22477" lon="0.02232">
        <ele>119</ele>
        <time>2011-08-28T10:25:55Z</time>
      </trkpt>
      <trkpt lat="47.22483" lon="0.0223">
        <ele>119</ele>
        <time>2011-08-28T10:26:00Z</time>
      </trkpt>
      <trkpt lat="47.22488" lon="0.02229">
        <ele>119</ele>
        <time>2011-08-28T10:26:04Z</time>
      </trkpt>
      <trkpt lat="47.22492" lon="0.02228">
        <ele>119</ele>
        <time>2011-08-28T10:26:08Z</time>
      </trkpt>
      <trkpt lat="47.22497" lon="0.02228">
        <ele>118</ele>
        <time>2011-08-28T10:26:12Z</time>
      </trkpt>
      <trkpt lat="47.22502" lon="0.02227">
        <ele>118</ele>
        <time>2011-08-28T10:26:16Z</time>
      </trkpt>
      <trkpt lat="47.22507" lon="0.02226">
        <ele>118</ele>
        <time>2011-08-28T10:26:20Z</time>
      </trkpt>
      <trkpt lat="47.22512" lon="0.02226">
        <ele>118</ele>
        <time>2011-08-28T10:26:24Z</time>
      </trkpt>
      <trkpt lat="47.22517" lon="0.02226">
        <ele>118</ele>
        <time>2011-08-28T10:26:29Z</time>
      </trkpt>
      <trkpt lat="47.22522" lon="0.02225">
        <ele>118</ele>
        <time>2011-08-28T10:26:34Z</time>
      </trkpt>
      <trkpt lat="47.22526" lon="0.02224">
        <ele>118</ele>
        <time>2011-08-28T10:26:40Z</time>
      </trkpt>
      <trkpt lat="47.22531" lon="0.02223">
        <ele>117</ele>
        <time>2011-08-28T10:26:46Z</time>
      </trkpt>
      <trkpt lat="47.22535" lon="0.02226">
        <ele>117</ele>
        <time>2011-08-28T10:27:03Z</time>
      </trkpt>
      <trkpt lat="47.2254" lon="0.02227">
        <ele>117</ele>
        <time>2011-08-28T10:27:15Z</time>
      </trkpt>
      <trkpt lat="47.22544" lon="0.02228">
        <ele>117</ele>
        <time>2011-08-28T10:27:22Z</time>
      </trkpt>
      <trkpt lat="47.22549" lon="0.02226">
        <ele>116</ele>
        <time>2011-08-28T10:27:27Z</time>
      </trkpt>
      <trkpt lat="47.22553" lon="0.02222">
        <ele>116</ele>
        <time>2011-08-28T10:27:34Z</time>
      </trkpt>
      <trkpt lat="47.22554" lon="0.02215">
        <ele>115</ele>
        <time>2011-08-28T10:27:42Z</time>
      </trkpt>
      <trkpt lat="47.22557" lon="0.0221">
        <ele>115</ele>
        <time>2011-08-28T10:27:48Z</time>
      </trkpt>
      <trkpt lat="47.22561" lon="0.02207">
        <ele>115</ele>
        <time>2011-08-28T10:27:59Z</time>
      </trkpt>
      <trkpt lat="47.22565" lon="0.02204">
        <ele>114</ele>
        <time>2011-08-28T10:28:05Z</time>
      </trkpt>
      <trkpt lat="47.22569" lon="0.022">
        <ele>114</ele>
        <time>2011-08-28T10:28:12Z</time>
      </trkpt>
      <trkpt lat="47.22573" lon="0.02195">
        <ele>113</ele>
        <time>2011-08-28T10:28:22Z</time>
      </trkpt>
      <trkpt lat="47.22577" lon="0.02192">
        <ele>112</ele>
        <time>2011-08-28T10:28:34Z</time>
      </trkpt>
      <trkpt lat="47.22581" lon="0.02196">
        <ele>112</ele>
        <time>2011-08-28T10:28:45Z</time>
      </trkpt>
      <trkpt lat="47.22583" lon="0.02202">
        <ele>111</ele>
        <time>2011-08-28T10:29:01Z</time>
      </trkpt>
      <trkpt lat="47.22585" lon="0.02208">
        <ele>111</ele>
        <time>2011-08-28T10:29:10Z</time>
      </trkpt>
      <trkpt lat="47.22586" lon="0.02215">
        <ele>111</ele>
        <time>2011-08-28T10:29:15Z</time>
      </trkpt>
      <trkpt lat="47.22586" lon="0.02222">
        <ele>111</ele>
        <time>2011-08-28T10:29:20Z</time>
      </trkpt>
      <trkpt lat="47.22584" lon="0.0223">
        <ele>111</ele>
        <time>2011-08-28T10:29:25Z</time>
      </trkpt>
      <trkpt lat="47.22582" lon="0.02236">
        <ele>111</ele>
        <time>2011-08-28T10:29:30Z</time>
      </trkpt>
      <trkpt lat="47.2258" lon="0.02242">
        <ele>111</ele>
        <time>2011-08-28T10:29:34Z</time>
      </trkpt>
      <trkpt lat="47.22578" lon="0.02248">
        <ele>111</ele>
        <time>2011-08-28T10:29:38Z</time>
      </trkpt>
      <trkpt lat="47.22574" lon="0.02255">
        <ele>111</ele>
        <time>2011-08-28T10:29:42Z</time>
      </trkpt>
      <trkpt lat="47.22572" lon="0.02261">
        <ele>111</ele>
        <time>2011-08-28T10:29:46Z</time>
      </trkpt>
      <trkpt lat="47.22569" lon="0.02268">
        <ele>111</ele>
        <time>2011-08-28T10:29:50Z</time>
      </trkpt>
      <trkpt lat="47.22566" lon="0.02275">
        <ele>111</ele>
        <time>2011-08-28T10:29:54Z</time>
      </trkpt>
      <trkpt lat="47.22563" lon="0.02281">
        <ele>111</ele>
        <time>2011-08-28T10:29:58Z</time>
      </trkpt>
      <trkpt lat="47.2256" lon="0.02288">
        <ele>111</ele>
        <time>2011-08-28T10:30:02Z</time>
      </trkpt>
      <trkpt lat="47.22557" lon="0.02294">
        <ele>111</ele>
        <time>2011-08-28T10:30:04Z</time>
      </trkpt>
      <trkpt lat="47.22554" lon="0.023">
        <ele>111</ele>
        <time>2011-08-28T10:30:08Z</time>
      </trkpt>
      <trkpt lat="47.22551" lon="0.02306">
        <ele>111</ele>
        <time>2011-08-28T10:30:13Z</time>
      </trkpt>
      <trkpt lat="47.22549" lon="0.02311">
        <ele>111</ele>
        <time>2011-08-28T10:30:17Z</time>
      </trkpt>
      <trkpt lat="47.22547" lon="0.02318">
        <ele>110</ele>
        <time>2011-08-28T10:30:22Z</time>
      </trkpt>
      <trkpt lat="47.22545" lon="0.02324">
        <ele>110</ele>
        <time>2011-08-28T10:30:26Z</time>
      </trkpt>
      <trkpt lat="47.22541" lon="0.0233">
        <ele>110</ele>
        <time>2011-08-28T10:30:31Z</time>
      </trkpt>
      <trkpt lat="47.22538" lon="0.02336">
        <ele>110</ele>
        <time>2011-08-28T10:30:36Z</time>
      </trkpt>
      <trkpt lat="47.22535" lon="0.02343">
        <ele>110</ele>
        <time>2011-08-28T10:30:41Z</time>
      </trkpt>
      <trkpt lat="47.22534" lon="0.02349">
        <ele>110</ele>
        <time>2011-08-28T10:30:46Z</time>
      </trkpt>
      <trkpt lat="47.22532" lon="0.02356">
        <ele>110</ele>
        <time>2011-08-28T10:30:51Z</time>
      </trkpt>
      <trkpt lat="47.2253" lon="0.02363">
        <ele>110</ele>
        <time>2011-08-28T10:30:57Z</time>
      </trkpt>
      <trkpt lat="47.22526" lon="0.02369">
        <ele>110</ele>
        <time>2011-08-28T10:31:02Z</time>
      </trkpt>
      <trkpt lat="47.22523" lon="0.02373">
        <ele>110</ele>
        <time>2011-08-28T10:31:06Z</time>
      </trkpt>
      <trkpt lat="47.2252" lon="0.02379">
        <ele>109</ele>
        <time>2011-08-28T10:31:10Z</time>
      </trkpt>
      <trkpt lat="47.22517" lon="0.02384">
        <ele>109</ele>
        <time>2011-08-28T10:31:14Z</time>
      </trkpt>
      <trkpt lat="47.22515" lon="0.02392">
        <ele>109</ele>
        <time>2011-08-28T10:31:18Z</time>
      </trkpt>
      <trkpt lat="47.22514" lon="0.024">
        <ele>109</ele>
        <time>2011-08-28T10:31:22Z</time>
      </trkpt>
      <trkpt lat="47.22511" lon="0.02406">
        <ele>109</ele>
        <time>2011-08-28T10:31:26Z</time>
      </trkpt>
      <trkpt lat="47.22509" lon="0.02412">
        <ele>109</ele>
        <time>2011-08-28T10:31:30Z</time>
      </trkpt>
      <trkpt lat="47.22508" lon="0.0242">
        <ele>109</ele>
        <time>2011-08-28T10:31:34Z</time>
      </trkpt>
      <trkpt lat="47.22507" lon="0.02427">
        <ele>109</ele>
        <time>2011-08-28T10:31:38Z</time>
      </trkpt>
      <trkpt lat="47.22506" lon="0.02434">
        <ele>109</ele>
        <time>2011-08-28T10:31:42Z</time>
      </trkpt>
      <trkpt lat="47.22504" lon="0.0244">
        <ele>109</ele>
        <time>2011-08-28T10:31:46Z</time>
      </trkpt>
      <trkpt lat="47.22502" lon="0.02448">
        <ele>109</ele>
        <time>2011-08-28T10:31:51Z</time>
      </trkpt>
      <trkpt lat="47.22499" lon="0.02455">
        <ele>109</ele>
        <time>2011-08-28T10:31:56Z</time>
      </trkpt>
      <trkpt lat="47.22498" lon="0.02462">
        <ele>109</ele>
        <time>2011-08-28T10:32:00Z</time>
      </trkpt>
      <trkpt lat="47.22496" lon="0.02468">
        <ele>109</ele>
        <time>2011-08-28T10:32:04Z</time>
      </trkpt>
      <trkpt lat="47.22494" lon="0.02474">
        <ele>109</ele>
        <time>2011-08-28T10:32:08Z</time>
      </trkpt>
      <trkpt lat="47.22491" lon="0.02481">
        <ele>108</ele>
        <time>2011-08-28T10:32:13Z</time>
      </trkpt>
      <trkpt lat="47.22487" lon="0.02487">
        <ele>108</ele>
        <time>2011-08-28T10:32:18Z</time>
      </trkpt>
      <trkpt lat="47.22485" lon="0.02495">
        <ele>108</ele>
        <time>2011-08-28T10:32:23Z</time>
      </trkpt>
      <trkpt lat="47.22483" lon="0.02501">
        <ele>108</ele>
        <time>2011-08-28T10:32:27Z</time>
      </trkpt>
      <trkpt lat="47.22481" lon="0.02507">
        <ele>108</ele>
        <time>2011-08-28T10:32:31Z</time>
      </trkpt>
      <trkpt lat="47.22478" lon="0.02514">
        <ele>108</ele>
        <time>2011-08-28T10:32:36Z</time>
      </trkpt>
      <trkpt lat="47.22475" lon="0.0252">
        <ele>108</ele>
        <time>2011-08-28T10:32:41Z</time>
      </trkpt>
      <trkpt lat="47.22473" lon="0.02526">
        <ele>108</ele>
        <time>2011-08-28T10:32:46Z</time>
      </trkpt>
      <trkpt lat="47.22471" lon="0.02532">
        <ele>108</ele>
        <time>2011-08-28T10:32:52Z</time>
      </trkpt>
      <trkpt lat="47.22468" lon="0.02538">
        <ele>108</ele>
        <time>2011-08-28T10:32:57Z</time>
      </trkpt>
      <trkpt lat="47.22464" lon="0.02544">
        <ele>108</ele>
        <time>2011-08-28T10:33:02Z</time>
      </trkpt>
      <trkpt lat="47.22461" lon="0.0255">
        <ele>108</ele>
        <time>2011-08-28T10:33:07Z</time>
      </trkpt>
      <trkpt lat="47.22457" lon="0.02556">
        <ele>108</ele>
        <time>2011-08-28T10:33:12Z</time>
      </trkpt>
      <trkpt lat="47.22454" lon="0.02561">
        <ele>108</ele>
        <time>2011-08-28T10:33:17Z</time>
      </trkpt>
      <trkpt lat="47.22451" lon="0.02566">
        <ele>108</ele>
        <time>2011-08-28T10:33:22Z</time>
      </trkpt>
      <trkpt lat="47.22448" lon="0.02572">
        <ele>108</ele>
        <time>2011-08-28T10:33:27Z</time>
      </trkpt>
      <trkpt lat="47.22445" lon="0.02577">
        <ele>108</ele>
        <time>2011-08-28T10:33:36Z</time>
      </trkpt>
      <trkpt lat="47.22442" lon="0.02584">
        <ele>108</ele>
        <time>2011-08-28T10:33:44Z</time>
      </trkpt>
      <trkpt lat="47.22439" lon="0.0259">
        <ele>108</ele>
        <time>2011-08-28T10:33:48Z</time>
      </trkpt>
      <trkpt lat="47.22436" lon="0.02597">
        <ele>108</ele>
        <time>2011-08-28T10:33:52Z</time>
      </trkpt>
      <trkpt lat="47.22434" lon="0.02605">
        <ele>108</ele>
        <time>2011-08-28T10:33:56Z</time>
      </trkpt>
      <trkpt lat="47.22433" lon="0.02613">
        <ele>108</ele>
        <time>2011-08-28T10:33:59Z</time>
      </trkpt>
      <trkpt lat="47.22432" lon="0.02621">
        <ele>108</ele>
        <time>2011-08-28T10:34:02Z</time>
      </trkpt>
      <trkpt lat="47.22431" lon="0.02628">
        <ele>108</ele>
        <time>2011-08-28T10:34:05Z</time>
      </trkpt>
      <trkpt lat="47.2243" lon="0.02636">
        <ele>108</ele>
        <time>2011-08-28T10:34:09Z</time>
      </trkpt>
      <trkpt lat="47.22428" lon="0.02643">
        <ele>108</ele>
        <time>2011-08-28T10:34:13Z</time>
      </trkpt>
      <trkpt lat="47.22427" lon="0.02651">
        <ele>108</ele>
        <time>2011-08-28T10:34:17Z</time>
      </trkpt>
      <trkpt lat="47.22426" lon="0.02659">
        <ele>108</ele>
        <time>2011-08-28T10:34:21Z</time>
      </trkpt>
      <trkpt lat="47.22425" lon="0.02667">
        <ele>108</ele>
        <time>2011-08-28T10:34:25Z</time>
      </trkpt>
      <trkpt lat="47.22424" lon="0.02675">
        <ele>108</ele>
        <time>2011-08-28T10:34:29Z</time>
      </trkpt>
      <trkpt lat="47.22423" lon="0.02684">
        <ele>108</ele>
        <time>2011-08-28T10:34:33Z</time>
      </trkpt>
      <trkpt lat="47.22422" lon="0.02691">
        <ele>108</ele>
        <time>2011-08-28T10:34:37Z</time>
      </trkpt>
      <trkpt lat="47.22419" lon="0.02697">
        <ele>108</ele>
        <time>2011-08-28T10:34:41Z</time>
      </trkpt>
      <trkpt lat="47.22417" lon="0.02704">
        <ele>108</ele>
        <time>2011-08-28T10:34:45Z</time>
      </trkpt>
      <trkpt lat="47.22415" lon="0.02711">
        <ele>108</ele>
        <time>2011-08-28T10:34:49Z</time>
      </trkpt>
      <trkpt lat="47.22412" lon="0.02718">
        <ele>108</ele>
        <time>2011-08-28T10:34:53Z</time>
      </trkpt>
      <trkpt lat="47.22411" lon="0.02726">
        <ele>108</ele>
        <time>2011-08-28T10:34:57Z</time>
      </trkpt>
      <trkpt lat="47.2241" lon="0.02733">
        <ele>108</ele>
        <time>2011-08-28T10:35:00Z</time>
      </trkpt>
      <trkpt lat="47.22408" lon="0.0274">
        <ele>108</ele>
        <time>2011-08-28T10:35:03Z</time>
      </trkpt>
      <trkpt lat="47.22406" lon="0.02746">
        <ele>108</ele>
        <time>2011-08-28T10:35:06Z</time>
      </trkpt>
      <trkpt lat="47.22404" lon="0.02753">
        <ele>108</ele>
        <time>2011-08-28T10:35:09Z</time>
      </trkpt>
      <trkpt lat="47.22402" lon="0.0276">
        <ele>108</ele>
        <time>2011-08-28T10:35:12Z</time>
      </trkpt>
      <trkpt lat="47.224" lon="0.02766">
        <ele>108</ele>
        <time>2011-08-28T10:35:15Z</time>
      </trkpt>
      <trkpt lat="47.22397" lon="0.0277">
        <ele>108</ele>
        <time>2011-08-28T10:35:18Z</time>
      </trkpt>
      <trkpt lat="47.22393" lon="0.02775">
        <ele>108</ele>
        <time>2011-08-28T10:35:21Z</time>
      </trkpt>
      <trkpt lat="47.22389" lon="0.02781">
        <ele>108</ele>
        <time>2011-08-28T10:35:25Z</time>
      </trkpt>
      <trkpt lat="47.22385" lon="0.02788">
        <ele>108</ele>
        <time>2011-08-28T10:35:29Z</time>
      </trkpt>
      <trkpt lat="47.22381" lon="0.02793">
        <ele>108</ele>
        <time>2011-08-28T10:35:33Z</time>
      </trkpt>
      <trkpt lat="47.22377" lon="0.02798">
        <ele>108</ele>
        <time>2011-08-28T10:35:37Z</time>
      </trkpt>
      <trkpt lat="47.22372" lon="0.02802">
        <ele>107</ele>
        <time>2011-08-28T10:35:41Z</time>
      </trkpt>
      <trkpt lat="47.22367" lon="0.02805">
        <ele>107</ele>
        <time>2011-08-28T10:35:45Z</time>
      </trkpt>
      <trkpt lat="47.22363" lon="0.02809">
        <ele>107</ele>
        <time>2011-08-28T10:35:49Z</time>
      </trkpt>
      <trkpt lat="47.22358" lon="0.02811">
        <ele>107</ele>
        <time>2011-08-28T10:35:53Z</time>
      </trkpt>
      <trkpt lat="47.22353" lon="0.02812">
        <ele>108</ele>
        <time>2011-08-28T10:35:57Z</time>
      </trkpt>
      <trkpt lat="47.22347" lon="0.02813">
        <ele>108</ele>
        <time>2011-08-28T10:36:02Z</time>
      </trkpt>
      <trkpt lat="47.22343" lon="0.02814">
        <ele>108</ele>
        <time>2011-08-28T10:36:06Z</time>
      </trkpt>
      <trkpt lat="47.22338" lon="0.02814">
        <ele>108</ele>
        <time>2011-08-28T10:36:10Z</time>
      </trkpt>
      <trkpt lat="47.22332" lon="0.02814">
        <ele>107</ele>
        <time>2011-08-28T10:36:14Z</time>
      </trkpt>
      <trkpt lat="47.22327" lon="0.02811">
        <ele>107</ele>
        <time>2011-08-28T10:36:18Z</time>
      </trkpt>
      <trkpt lat="47.22322" lon="0.0281">
        <ele>107</ele>
        <time>2011-08-28T10:36:22Z</time>
      </trkpt>
      <trkpt lat="47.22317" lon="0.0281">
        <ele>107</ele>
        <time>2011-08-28T10:36:27Z</time>
      </trkpt>
      <trkpt lat="47.22311" lon="0.02812">
        <ele>107</ele>
        <time>2011-08-28T10:36:31Z</time>
      </trkpt>
      <trkpt lat="47.22306" lon="0.02814">
        <ele>107</ele>
        <time>2011-08-28T10:36:35Z</time>
      </trkpt>
      <trkpt lat="47.22301" lon="0.02816">
        <ele>107</ele>
        <time>2011-08-28T10:36:39Z</time>
      </trkpt>
      <trkpt lat="47.22296" lon="0.02819">
        <ele>107</ele>
        <time>2011-08-28T10:36:44Z</time>
      </trkpt>
      <trkpt lat="47.22293" lon="0.02826">
        <ele>107</ele>
        <time>2011-08-28T10:36:49Z</time>
      </trkpt>
      <trkpt lat="47.22291" lon="0.02832">
        <ele>107</ele>
        <time>2011-08-28T10:36:51Z</time>
      </trkpt>
      <trkpt lat="47.22289" lon="0.0284">
        <ele>107</ele>
        <time>2011-08-28T10:36:54Z</time>
      </trkpt>
      <trkpt lat="47.22288" lon="0.02848">
        <ele>107</ele>
        <time>2011-08-28T10:36:58Z</time>
      </trkpt>
      <trkpt lat="47.22291" lon="0.02854">
        <ele>107</ele>
        <time>2011-08-28T10:37:00Z</time>
      </trkpt>
      <trkpt lat="47.22294" lon="0.02862">
        <ele>107</ele>
        <time>2011-08-28T10:37:03Z</time>
      </trkpt>
      <trkpt lat="47.22298" lon="0.02868">
        <ele>107</ele>
        <time>2011-08-28T10:37:06Z</time>
      </trkpt>
      <trkpt lat="47.22303" lon="0.02873">
        <ele>107</ele>
        <time>2011-08-28T10:37:08Z</time>
      </trkpt>
      <trkpt lat="47.22309" lon="0.02877">
        <ele>106</ele>
        <time>2011-08-28T10:37:10Z</time>
      </trkpt>
      <trkpt lat="47.22316" lon="0.02882">
        <ele>106</ele>
        <time>2011-08-28T10:37:12Z</time>
      </trkpt>
      <trkpt lat="47.22322" lon="0.02885">
        <ele>106</ele>
        <time>2011-08-28T10:37:14Z</time>
      </trkpt>
      <trkpt lat="47.22326" lon="0.02888">
        <ele>106</ele>
        <time>2011-08-28T10:37:16Z</time>
      </trkpt>
      <trkpt lat="47.22332" lon="0.02891">
        <ele>106</ele>
        <time>2011-08-28T10:37:19Z</time>
      </trkpt>
      <trkpt lat="47.22337" lon="0.02893">
        <ele>105</ele>
        <time>2011-08-28T10:37:22Z</time>
      </trkpt>
      <trkpt lat="47.2234" lon="0.02897">
        <ele>105</ele>
        <time>2011-08-28T10:37:26Z</time>
      </trkpt>
      <trkpt lat="47.22344" lon="0.02901">
        <ele>104</ele>
        <time>2011-08-28T10:37:32Z</time>
      </trkpt>
    </trkseg>
  </trk>
</gpx>